[[{"header":{"parameterUnit":"m.s-1","parameterCategory":1,"la1":30.6,"la2":28.766,"lo1":-90.7593,"lo2":-88.6598,"dy":0.0162,"dx":0.0183,"nx":116,"ny":114,"refTime":"2023-08-12T06:00:00:Z","depth":0,"parameterNumber":2,"parameterNumberName":"U-component_of_WINDS"},"data":[0.0,0.0,0.0,0.0,0.0,0.0,0.0,0.0,0.0,0.0,0.0,0.0,0.0,0.0,0.0,0.0,0.0,0.0,0.0,0.0,0.0,0.0,0.0,0.0,0.0,0.0,0.0,0.0,0.0,0.0,0.0,0.0,0.0,0.0,0.0,0.0,0.0,0.0,0.0,0.0,0.0,0.0,0.0,0.0,0.0,0.0,0.0,0.0,0.0,0.0,0.0,0.0,0.0,0.0,0.0,0.0,0.0,0.0,0.0,0.0,0.0,0.0,0.0,0.0,0.0,0.0,0.0,0.0,0.0,0.0,0.0,0.0,0.0,0.0,0.0,0.0,0.0,0.0,0.0,0.0,0.0,0.0,0.0,0.0,0.0,0.0,0.0,0.0,0.0,0.0,0.0,0.0,0.0,0.0,0.0,0.0,0.0,0.0,0.0,0.0,0.0,0.0,0.0,0.0,0.0,0.0,0.0,0.0,0.0,0.0,0.0,0.0,0.0,0.0,0.0,0.0,0.0,0.0,0.0,0.0,0.0,0.0,0.0,0.0,0.0,0.0,0.0,0.0,0.0,0.0,0.0,0.0,0.0,0.0,0.0,0.0,0.0,0.0,0.0,0.0,0.0,0.0,0.0,0.0,0.0,0.0,0.0,0.0,0.0,0.0,0.0,0.0,0.0,0.0,0.0,0.0,0.0,0.0,0.0,0.0,0.0,0.0,0.0,0.0,0.0,0.0,0.0,0.0,0.0,0.0,0.0,0.0,0.0,0.0,0.0,0.0,0.0,0.0,0.0,0.0,0.0,0.0,0.0,0.0,0.0,0.0,0.0,0.0,0.0,0.0,0.0,0.0,0.0,0.0,0.0,0.0,0.0,0.0,0.0,0.0,0.0,0.0,0.0,0.0,0.0,0.0,0.0,0.0,0.0,0.0,0.0,0.0,0.0,0.0,0.0,0.0,0.0,0.0,0.0,0.0,0.0,0.0,0.0,0.0,0.0,0.0,0.0,0.0,0.0,0.0,0.0,0.0,0.0,0.0,0.0,0.0,0.0,0.0,0.0,0.0,0.0,0.0,0.0,0.0,0.0,0.0,0.0,0.0,0.0,0.0,0.0,0.0,0.0,0.0,0.0,0.0,0.0,0.0,0.0,0.0,0.0,0.0,0.0,0.0,0.0,0.0,0.0,0.0,0.0,0.0,0.0,0.0,0.0,0.0,0.0,0.0,0.0,0.0,0.0,0.0,0.0,0.0,0.0,0.0,0.0,0.0,0.0,0.0,0.0,0.0,0.0,0.0,0.0,0.0,0.0,0.0,0.0,0.0,0.0,0.0,0.0,0.0,0.0,0.0,0.0,0.0,0.0,0.0,0.0,0.0,0.0,0.0,0.0,0.0,0.0,0.0,0.0,0.0,0.0,0.0,0.0,0.0,0.0,0.0,0.0,0.0,0.0,0.0,0.0,0.0,0.0,0.0,0.0,0.0,0.0,0.0,0.0,0.0,0.0,0.0,0.0,0.0,0.0,0.0,0.0,0.0,0.0,0.0,0.0,0.0,0.0,0.0,0.0,0.0,0.0,0.0,0.0,0.0,0.0,0.0,0.0,0.0,0.0,0.0,0.0,0.0,0.0,0.0,0.0,0.0,0.0,0.0,0.0,0.0,0.0,0.0,0.0,0.0,0.0,0.0,0.0,0.0,0.0,0.0,0.0,0.0,0.0,0.0,0.0,0.0,0.0,0.0,0.0,0.0,0.0,0.0,0.0,0.0,0.0,0.0,0.0,0.0,0.0,0.0,0.0,0.0,0.0,0.0,0.0,0.0,0.0,0.0,0.0,0.0,0.0,0.0,0.0,0.0,0.0,0.0,0.0,0.0,0.0,0.0,0.0,0.0,0.0,0.0,0.0,0.0,0.0,0.0,0.0,0.0,0.0,0.0,0.0,0.0,0.0,0.0,0.0,0.0,0.0,0.0,0.0,0.0,0.0,0.0,0.0,0.0,0.0,0.0,0.0,0.0,0.0,0.0,0.0,0.0,0.0,0.0,0.0,0.0,0.0,0.0,0.0,0.0,0.0,0.0,0.0,0.0,0.0,0.0,0.0,0.0,0.0,0.0,0.0,0.0,0.0,0.0,0.0,0.0,0.0,0.0,0.0,0.0,0.0,0.0,0.0,0.0,0.0,0.0,0.0,0.0,0.0,0.0,0.0,0.0,0.0,0.0,0.0,0.0,0.0,0.0,0.0,0.0,0.0,0.0,0.0,0.0,0.0,0.0,0.0,0.0,0.0,0.0,0.0,0.0,0.0,0.0,0.0,0.0,0.0,0.0,0.0,0.0,0.0,0.0,0.0,0.0,0.0,0.0,0.0,0.0,0.0,0.0,0.0,0.0,0.0,0.0,0.0,0.0,0.0,0.0,0.0,0.0,0.0,0.0,0.0,0.0,0.0,0.0,0.0,0.0,0.0,0.0,0.0,0.0,0.0,0.0,0.0,0.0,0.0,0.0,0.0,0.0,0.0,0.0,0.0,0.0,0.0,0.0,0.0,0.0,0.0,0.0,0.0,0.0,0.0,0.0,0.0,0.0,0.0,0.0,0.0,0.0,0.0,0.0,0.0,0.0,0.0,0.0,0.0,0.0,0.0,0.0,0.0,0.0,0.0,0.0,0.0,0.0,0.0,0.0,0.0,0.0,0.0,0.0,0.0,0.0,0.0,0.0,0.0,0.0,0.0,0.0,0.0,0.0,0.0,0.0,0.0,0.0,0.0,0.0,0.0,0.0,0.0,0.0,0.0,0.0,0.0,0.0,0.0,0.0,0.0,0.0,0.0,0.0,0.0,0.0,0.0,0.0,0.0,0.0,0.0,0.0,0.0,0.0,0.0,0.0,0.0,0.0,0.0,0.0,0.0,0.0,0.0,0.0,0.0,0.0,0.0,0.0,0.0,0.0,0.0,0.0,0.0,0.0,0.0,0.0,0.0,0.0,0.0,0.0,0.0,0.0,0.0,0.0,0.0,0.0,0.0,0.0,0.0,0.0,0.0,0.0,0.0,0.0,0.0,0.0,0.0,0.0,0.0,0.0,0.0,0.0,0.0,0.0,0.0,0.0,0.0,0.0,0.0,0.0,0.0,0.0,0.0,0.0,0.0,0.0,0.0,0.0,0.0,0.0,0.0,0.0,0.0,0.0,0.0,0.0,0.0,0.0,0.0,0.0,0.0,0.0,0.0,0.0,0.0,0.0,0.0,0.0,0.0,0.0,0.0,0.0,0.0,0.0,0.0,0.0,0.0,0.0,0.0,0.0,0.0,0.0,0.0,0.0,0.0,0.0,0.0,0.0,0.0,0.0,0.0,0.0,0.0,0.0,0.0,0.0,0.0,0.0,0.0,0.0,0.0,0.0,0.0,0.0,0.0,0.0,0.0,0.0,0.0,0.0,0.0,0.0,0.0,0.0,0.0,0.0,0.0,0.0,0.0,0.0,0.0,0.0,0.0,0.0,0.0,0.0,0.0,0.0,0.0,0.0,0.0,0.0,0.0,0.0,0.0,0.0,0.0,0.0,0.0,0.0,0.0,0.0,0.0,0.0,0.0,0.0,0.0,0.0,0.0,0.0,0.0,0.0,0.0,0.0,0.0,0.0,0.0,0.0,0.0,0.0,0.0,0.0,0.0,0.0,0.0,0.0,0.0,0.0,0.0,0.0,0.0,0.0,0.0,0.0,0.0,0.0,0.0,0.0,0.0,0.0,0.0,0.0,0.0,0.0,0.0,0.0,0.0,0.0,0.0,0.0,0.0,0.0,0.0,0.0,0.0,0.0,0.0,0.0,0.0,0.0,0.0,0.0,0.0,0.0,0.0,0.0,0.0,0.0,0.0,0.0,0.0,0.0,0.0,0.0,0.0,0.0,0.0,0.0,0.0,0.0,0.0,0.0,0.0,0.0,0.0,0.0,0.0,0.0,0.0,0.0,0.0,0.0,0.0,0.0,0.0,0.0,0.0,0.0,0.0,0.0,0.0,0.0,0.0,0.0,0.0,0.0,0.0,0.0,0.0,0.0,0.0,0.0,0.0,0.0,0.0,0.0,0.0,0.0,0.0,0.0,0.0,0.0,0.0,0.0,0.0,0.0,0.0,0.0,0.0,0.0,0.0,0.0,0.0,0.0,0.0,0.0,0.0,0.0,0.0,0.0,0.0,0.0,0.0,0.0,0.0,0.0,0.0,0.0,0.0,0.0,0.0,0.0,0.0,0.0,0.0,0.0,0.0,0.0,0.0,0.0,0.0,0.0,0.0,0.0,0.0,0.0,0.0,0.0,0.0,0.0,0.0,0.0,0.0,0.0,0.0,0.0,0.0,0.0,0.0,0.0,0.0,0.0,0.0,0.0,0.0,0.0,0.0,0.0,0.0,0.0,0.0,0.0,0.0,0.0,0.0,0.0,0.0,0.0,0.0,0.0,0.0,0.0,0.0,0.0,0.0,0.0,0.0,0.0,0.0,0.0,0.0,0.0,0.0,0.0,0.0,0.0,0.0,0.0,0.0,0.0,0.0,0.0,0.0,0.0,0.0,0.0,0.0,0.0,0.0,0.0,0.0,0.0,0.0,0.0,0.0,0.0,0.0,0.0,0.0,0.0,0.0,0.0,0.0,0.0,0.0,0.0,0.0,0.0,0.0,0.0,0.0,0.0,0.0,0.0,0.0,0.0,0.0,0.0,0.0,0.0,0.0,0.0,0.0,0.0,0.0,0.0,0.0,0.0,0.0,0.0,0.0,0.0,0.0,0.0,0.0,0.0,0.0,0.0,0.0,0.0,0.0,0.0,0.0,0.0,0.0,0.0,0.0,0.0,0.0,0.0,0.0,0.0,0.0,0.0,0.0,0.0,0.0,0.0,0.0,0.0,0.0,0.0,0.0,0.0,0.0,0.0,0.0,0.0,0.0,0.0,0.0,0.0,0.0,0.0,0.0,0.0,0.0,0.0,0.0,0.0,0.0,0.0,0.0,0.0,0.0,0.0,0.0,0.0,0.0,0.0,0.0,0.0,0.0,0.0,0.0,0.0,0.0,0.0,0.0,0.0,0.0,0.0,0.0,0.0,0.0,0.0,0.0,0.0,0.0,0.0,0.0,0.0,0.0,0.0,0.0,0.0,0.0,0.0,0.0,0.0,0.0,0.0,0.0,0.0,0.0,0.0,0.0,0.0,0.0,0.0,0.0,0.0,0.0,0.0,0.0,0.0,0.0,0.0,0.0,0.0,0.0,0.0,0.0,0.0,0.0,0.0,0.0,0.0,0.0,0.0,0.0,0.0,0.0,0.0,0.0,0.0,0.0,0.0,0.0,0.0,0.0,0.0,0.0,0.0,0.0,0.0,0.0,0.0,0.0,0.0,0.0,0.0,0.0,0.0,0.0,0.0,0.0,0.0,0.0,0.0,0.0,0.0,0.0,0.0,0.0,0.0,0.0,0.0,0.0,0.0,0.0,0.0,0.0,0.0,0.0,0.0,0.0,0.0,0.0,0.0,0.0,0.0,0.0,0.0,0.0,0.0,0.0,0.0,0.0,0.0,0.0,0.0,0.0,0.0,0.0,0.0,0.0,0.0,0.0,0.0,0.0,0.0,0.0,0.0,0.0,0.0,0.0,0.0,0.0,0.0,0.0,0.0,0.0,0.0,0.0,0.0,0.0,0.0,0.0,0.0,0.0,0.0,0.0,0.0,0.0,0.0,0.0,0.0,0.0,0.0,0.0,0.0,0.0,0.0,0.0,0.0,0.0,0.0,0.0,0.0,0.0,0.0,0.0,0.0,0.0,0.0,0.0,0.0,0.0,0.0,0.0,0.0,0.0,0.0,0.0,0.0,0.0,0.0,0.0,0.0,0.0,0.0,0.0,0.0,0.0,0.0,0.0,0.0,0.0,0.0,0.0,0.0,0.0,0.0,0.0,0.0,0.0,0.0,0.0,0.0,0.0,0.0,0.0,0.0,0.0,0.0,0.0,0.0,0.0,0.0,0.0,0.0,0.0,0.0,0.0,0.0,0.0,0.0,0.0,0.0,0.0,0.0,0.0,0.0,0.0,0.0,0.0,0.0,0.0,0.0,0.0,0.0,0.0,0.0,0.0,0.0,0.0765,0.0,0.0,0.0,0.0,0.0,0.0,0.0,0.0,0.0,0.0,0.0,0.0,0.0,0.0,0.0,0.0,0.0,0.0,0.0,0.0,0.0,0.0,0.0,0.0,0.0,0.0,0.0,0.0,0.0,0.0,0.0,0.0,0.0,0.0,0.0,0.0,0.0,0.0,0.0,0.0,0.0,0.0,0.0,0.0,0.0,0.0,0.0,0.0,0.0,0.0,0.0,0.0,0.0,0.0,0.0,0.0,0.0,0.0,0.0,0.0,0.0,0.0,0.0,0.0,0.0,0.0,0.0,0.0,0.0,0.0,0.0,0.0,0.0,0.0,0.0,0.0,0.0,0.0,0.0,0.0,0.0,0.0,0.0,0.0,0.0,0.0,0.0,0.0,0.0,0.0,0.0,0.0,0.0,0.0,0.0,0.0,0.0,0.0,0.0,0.0,0.0,0.0,0.0,0.0,0.0,0.0,0.0,0.0,0.0,0.0,0.0,0.0,0.0,0.0,0.0,0.0,0.0551,0.0,0.0,0.0,0.0,0.0,0.0,0.0,0.0,0.0,0.0,0.0,0.0,0.0,0.0,0.0,0.0,0.0,0.0,0.0,0.0,0.0,0.0,0.0,0.0,0.0,0.0,0.0,0.0,0.0,0.0,0.0,0.0,0.0,0.0,0.0,0.0,0.0,0.0,0.0,0.0,0.0,0.0,0.0,0.0,0.0,0.0,0.0,0.0,0.0,0.0,0.0,0.0,0.0,0.0,0.0,0.0,0.0,0.0,0.0,0.0,0.0,0.0,0.0,0.0,0.0,0.0,0.0,0.0,0.0,0.0,0.0,0.0,0.0,0.0,0.0,0.0,0.0,0.0,0.0,0.0,0.0,0.0,0.0,0.0,0.0,0.0,0.0,0.0,0.0,0.0,0.0,0.0,0.0,0.0,0.0,0.0,0.0,0.0,0.0,0.0,0.0,0.0,0.0,0.0,0.0,0.0,0.0,0.0,0.0,-0.6284,-0.505,-0.5043,-0.4142,-0.2352,-0.1681,-0.0336,0.1346,0.0,0.0,0.0,0.0,0.0,0.0,0.0,0.0,0.0,0.0,0.0,0.0,0.0,0.0,0.0,0.0,0.0,0.0,0.0,0.0,0.0,0.0,0.0,0.0,0.0,0.0,0.0,0.0,0.0,0.0,0.0,0.0,0.0,0.0,0.0,0.0,0.0,0.0,0.0,4.6114,4.6049,4.6055,4.6114,4.5577,0.0,0.0,0.0,0.0,0.0,0.0,0.0,0.0,0.0,0.0,0.0,0.0,0.0,0.0,0.0,0.0,0.0,0.0,0.0,0.0,0.0,0.0,0.0,0.0,0.0,0.0,0.0,0.0,0.0,0.0,0.0,0.0,0.0,0.0,0.0,0.0,0.0,0.0,0.0,0.0,0.0,0.0,0.0,0.4107,0.1788,0.0,0.0,0.0,0.0,0.0,0.0,0.0,0.0,0.0,0.0,0.0,0.0,0.0,0.0,-0.8162,-0.8048,-0.7721,-0.7182,-0.6507,-0.6061,-0.5835,-0.4489,-0.3475,-0.3021,-0.3137,0.0,-0.0561,-0.0561,0.0,0.0,0.0,0.0,0.0,0.0,0.0,0.0,0.0,0.0,0.0,0.0,0.0,0.0,0.0,0.0,0.0,0.0,0.0,0.0,0.0,0.0,0.0,0.0,0.0,0.0,0.0,0.0,0.0,0.0,0.0,0.0,0.0,0.0,0.0,0.0,4.5185,4.5626,4.6091,4.6027,4.6075,4.6178,4.5842,4.5559,4.5303,4.4848,0.0,0.0,0.0,0.0,0.0,0.0,0.0,0.0,0.0,0.0,0.0,0.0,0.0,0.0,0.0,0.0,0.0,0.0,0.0,0.0,0.0,0.0,0.0,0.0,0.0,0.0,0.0,0.0,0.0,0.0,0.0,0.0,0.0,0.0,0.0,0.0,0.0,0.0,0.0,1.0961,0.7003,0.412,0.0447,-0.2689,0.0,0.0,0.0,0.0,0.0,0.0,0.0,0.0,0.0,-0.9379,-0.9268,-0.8823,-0.8263,-0.8045,-0.7829,-0.7393,-0.6609,-0.5938,-0.5603,-0.4596,-0.3811,-0.336,-0.3586,-0.3026,-0.2017,-0.1232,-0.0448,0.0336,0.0,0.0,0.0,0.0,0.0,-0.1795,0.0,0.0,0.0,0.0,0.0,0.0,0.0,0.0,0.0,0.0,0.0,0.0,0.0,0.0,0.0,4.2103,0.0,0.0,0.0,0.0,0.0,0.0,0.0,0.0,0.0,0.0,0.0,4.4729,4.508,4.5522,4.6075,4.6013,4.6045,4.6166,4.5974,4.5762,4.5507,4.5067,4.4663,0.0,0.0,0.0,0.0,0.0,0.0,0.0,0.0,0.0,0.0,0.0,0.0,0.0,0.0,0.0,0.0,0.0,0.0,0.0,0.0,0.0,0.0,0.0,0.0,0.0,0.0,0.0,0.0,0.0,0.0,0.0,0.0,0.0,0.0,0.0,0.0,0.0,0.0,1.2516,0.9669,0.5768,0.1449,-0.1679,0.0,0.0,0.0,0.0,0.0,0.0,-0.8149,-0.8481,-0.8816,-0.904,-0.8712,-0.8491,-0.8377,-0.8156,-0.7712,-0.7271,-0.6487,-0.5706,-0.5148,-0.4479,-0.3921,-0.3587,-0.3475,-0.3251,-0.2914,-0.1904,-0.0896,0.0112,0.056,0.0224,-0.0449,-0.0449,-0.1009,-0.1795,0.0,0.0,0.0,0.0,0.0,0.0,0.0,0.0,0.0,0.0,0.0,0.0,0.0,0.0,4.2103,4.2103,4.1805,4.1498,0.0,0.0,0.0,0.0,0.0,0.0,0.0,0.0,0.0,4.4331,4.48,4.5343,4.6007,4.5946,4.5976,4.6095,4.5963,4.5801,4.5557,4.489,4.4565,4.443,0.0,0.0,0.0,0.0,0.0,0.0,0.0,0.0,0.0,0.0,0.0,0.0,0.0,0.0,0.0,0.0,0.0,0.0,0.0,0.0,0.0,0.0,0.0,0.0,0.0,0.0,0.0,0.0,0.0,0.0,0.0,0.0,0.0,0.0,0.0,0.0,0.0,0.0,0.0,0.5863,0.0445,0.0,0.0,0.0,0.0,-0.5901,-0.6687,-0.7138,-0.7138,-0.6914,-0.7246,-0.8029,-0.7811,-0.7817,-0.8045,-0.8045,-0.7487,-0.6374,-0.5706,-0.5148,-0.448,-0.3585,-0.3362,-0.3587,-0.303,-0.2693,-0.2693,-0.2914,-0.2578,-0.202,-0.202,-0.1907,-0.1683,-0.1683,-0.1795,-0.1795,0.0,0.0,0.0,0.0,0.0,0.0,0.0,0.0,0.0,0.0,0.0,0.0,0.0,4.2205,4.1934,4.1762,4.1453,4.1134,4.0918,0.0,0.0,0.0,0.0,0.0,0.0,0.0,4.3712,4.4102,4.4796,4.5361,4.5815,4.5959,4.6026,4.6034,4.5982,4.2381,3.6727,4.2478,4.48,4.4617,4.425,4.0433,0.0,0.0,0.0,0.0,0.0,0.0,0.0,0.0,0.0,0.0,0.0,0.0,0.0,0.0,0.0,0.0,0.0,0.0,0.0,0.0,0.0,0.0,0.0,0.0,0.0,0.0,0.0,0.0,0.0,0.0,0.0,0.0,0.0,0.0,0.0,0.0,0.0,0.699,0.2893,0.0,0.0,-0.2125,-0.3578,-0.3463,-0.5027,-0.5922,-0.5697,-0.6139,-0.6473,-0.6586,-0.6998,-0.704,-0.693,-0.7689,-0.75,-0.6467,-0.5777,-0.5201,-0.4627,-0.3702,-0.324,-0.3356,-0.2894,-0.2664,-0.2433,-0.2548,-0.2287,-0.1908,-0.1908,-0.1907,-0.1795,-0.1795,-0.1795,-0.1795,0.0,0.0,0.0,0.0,0.0,0.0,0.0,0.0,0.0,0.0,0.0,4.164,4.2222,4.1995,4.1719,4.1498,4.1134,4.0871,4.0697,0.0,0.0,0.0,0.0,0.0,0.0,4.3069,4.3619,4.4005,4.47,4.5266,4.5728,4.5919,4.6006,4.5993,4.6002,4.2309,3.6269,3.9064,3.8209,3.4984,3.473,3.0755,2.504,0.0,0.0,0.0,0.0,0.0,0.0,0.0,0.0,0.0,0.0,0.0,0.0,0.0,0.0,0.0,0.0,0.0,0.0,0.0,0.0,0.0,0.0,0.0,0.0,0.0,0.0,0.0,0.0,0.0,0.0,0.0,0.0,0.0,0.0,0.0,1.1345,0.8109,0.4342,0.19,0.1568,-0.0672,-0.2016,-0.1793,-0.3358,-0.4364,-0.4252,-0.4834,-0.5073,-0.5187,-0.5728,-0.6125,-0.6474,-0.7246,-0.7168,-0.6228,-0.5643,-0.4941,-0.4356,-0.3532,-0.3179,-0.3297,-0.2708,-0.2474,-0.224,-0.224,-0.1979,-0.1825,-0.1825,-0.1825,-0.1825,-0.1825,-0.1825,-0.1939,0.0,0.0,0.0,0.0,0.0,0.0,0.0,0.0,0.0,0.0,4.1111,4.1036,4.1788,4.1675,4.1453,4.1192,4.0853,4.0697,4.0697,4.0453,0.0,0.0,0.0,0.0,4.2103,4.2806,4.3456,4.3975,4.4484,4.508,4.5796,4.579,4.5871,4.5991,4.6005,4.5718,4.46,3.4852,2.4868,1.5576,1.5595,1.5615,1.5679,0.0,0.0,0.0,0.0,0.0,0.0,0.0,0.0,0.0,0.0,0.0,0.0,0.0,0.0,0.0,0.0,0.0,0.0,0.0,0.0,0.0,0.0,0.0,0.0,0.0,0.0,0.0,0.0,0.0,0.0,0.0,0.0,0.0,1.6137,1.2788,1.0194,0.8886,0.4446,0.2009,0.3356,0.0336,-0.1457,-0.0898,-0.1682,-0.2466,-0.3027,-0.285,-0.3103,-0.4014,-0.4079,-0.4934,-0.6341,-0.6708,-0.6474,-0.5526,-0.4941,-0.4356,-0.3768,-0.3061,-0.2943,-0.3179,-0.2356,-0.2004,-0.224,-0.2004,-0.1886,-0.1886,-0.1886,-0.1886,-0.1886,-0.1886,-0.1886,-0.2121,0.0,0.0,0.0,0.0,0.0,0.0,0.0,0.0,0.0,0.0,3.9902,4.0218,4.0685,4.0814,4.0832,4.0784,4.0645,4.0485,4.0404,0.0,0.0,0.0,0.0,0.0,4.2246,4.2768,4.33,4.3844,4.4478,4.5082,4.5648,4.5859,4.5962,4.6009,4.6044,4.2047,3.5078,3.226,2.1302,0.6376,1.2971,1.5738,1.5953,0.0,0.0,0.0,0.0,0.0,0.0,0.0,0.0,0.0,0.0,0.0,0.0,0.0,0.0,0.0,0.0,0.0,0.0,0.0,0.0,0.0,0.0,0.0,0.0,0.0,0.0,0.0,0.0,0.0,0.0,0.0,0.0,1.9037,1.5852,1.3439,1.0534,0.6795,0.5131,0.3798,0.2465,0.0784,-0.0113,0.0114,-0.1142,-0.1827,-0.1827,-0.218,-0.2402,-0.2484,-0.3441,-0.3468,-0.2424,-0.5144,-0.5647,-0.3995,-0.447,-0.4118,-0.2824,-0.2824,-0.2825,-0.2943,-0.2239,-0.1886,-0.2004,-0.1886,-0.1886,-0.1886,-0.1886,-0.1886,-0.1886,-0.1886,-0.1886,-0.2124,0.0,0.0,0.0,0.0,0.0,0.0,0.0,0.0,0.0,0.0,3.8559,3.892,3.9393,3.9512,3.9767,4.0136,3.9851,3.9833,4.0188,0.0,0.0,0.0,0.0,4.1507,4.2346,4.2768,4.3212,4.3578,4.4325,4.4912,4.5436,4.5738,4.5916,4.5991,4.6033,4.2862,3.6899,2.8594,1.8443,0.8107,0.9347,1.0009,1.0238,1.0795,1.1916,1.2587,0.8285,1.0616,1.4008,0.2482,0.0,0.0,0.0,0.0,0.0,0.0,0.0,0.0,0.0,0.0,0.0,0.0,0.0,0.0,0.0,0.0,0.0,0.0,0.0,0.0,0.0,0.0,0.0,0.0,2.1027,1.9038,1.6141,1.384,1.0651,0.5913,0.5394,0.4405,0.204,0.136,0.091,0.0919,-0.0457,-0.1138,-0.1023,-0.1833,-0.2176,-0.1814,-0.2303,-0.2089,-0.0927,-0.3278,-0.4353,-0.3998,-0.4237,-0.3885,-0.2943,-0.2825,-0.2824,0.0,-0.212,-0.1886,-0.1886,-0.1886,-0.1886,0.0,0.0,0.0,0.0,0.0,-0.1924,-0.2166,0.0,0.0,0.0,0.0,0.0,0.0,0.0,0.0,0.0,0.0,0.0,3.7229,3.7875,3.7931,3.8329,3.9229,3.8619,3.8619,0.0,0.0,0.0,4.1065,4.1036,4.1373,4.2323,4.2691,4.2996,4.3279,4.402,4.4656,4.5189,4.5526,4.5794,4.6007,4.6009,4.6018,4.487,2.7292,1.8548,1.5822,0.827,0.3992,0.2371,0.4696,0.6314,0.7618,0.8827,0.9352,0.8603,0.2206,0.0,0.0,0.0,0.0,0.0,0.0,0.0,0.0,0.0,0.0,0.0,0.0,0.0,0.0,0.0,0.0,0.0,0.0,0.0,0.0,0.0,0.0,0.0,0.0,2.1203,1.8877,1.6478,1.3983,1.0798,0.6388,0.5566,0.4584,0.2299,0.1837,0.1721,0.1607,0.034,-0.0337,-0.0337,0.0,0.0,0.0,0.0,-0.0937,-0.0936,-0.1288,-0.2577,-0.4566,-0.3872,-0.3523,-0.3523,-0.3058,-0.2824,-0.2824,-0.2239,-0.2004,-0.2003,-0.2003,-0.2005,-0.2011,-0.1917,-0.1926,-0.1929,-0.1956,-0.2092,0.0,0.0,0.0,0.0,0.0,0.0,0.0,0.0,0.0,0.0,3.4442,3.5016,3.5591,3.6168,3.6337,3.6685,3.7419,3.6714,3.6502,0.0,0.0,3.9098,3.937,4.0235,4.0849,4.1265,4.1821,4.2426,4.3067,4.3541,4.4223,4.5128,4.5453,4.5776,4.6069,4.6075,4.6078,4.5824,4.1953,3.108,1.7049,2.3094,1.6694,0.4422,1.2592,1.6496,1.7706,1.8039,1.8816,1.8729,1.2243,1.235,1.4227,0.869,0.0,0.0,0.0,0.0,0.0,0.0,0.0,0.0,0.0,0.0,0.0,0.0,0.0,0.0,0.0,0.0,0.0,0.0,0.0,0.0,2.3114,2.1293,1.9287,1.5993,1.3902,1.1707,0.9003,0.6896,0.5041,0.3557,0.2384,0.1926,0.2409,0.0917,0.0114,0.0571,-0.1032,0.0,-0.1804,-0.1243,-0.068,-0.0226,0.0226,-0.034,-0.1698,0.0,0.0,-0.1616,-0.2456,-0.2943,-0.3178,-0.2592,-0.2474,-0.2708,-0.2708,-0.2728,-0.2638,-0.2139,-0.1894,-0.1895,-0.1901,-0.2636,-0.375,0.0,0.0,0.0,0.0,0.0,0.0,0.0,0.0,0.0,0.0,2.9921,3.0223,3.0703,3.1087,3.1694,3.2624,3.374,0.0,0.0,3.6459,3.762,3.7907,3.9043,3.9834,4.0131,4.1115,4.1853,4.2393,4.324,4.4005,4.4706,4.5285,4.5687,4.5944,4.602,4.6061,4.5772,4.0765,3.2908,2.3894,2.4581,1.6777,0.5425,1.0341,1.2991,1.3699,1.0135,1.2111,1.534,0.916,1.1172,1.5293,0.9308,0.8845,1.1814,0.0,0.0,0.0,0.0,0.0,0.0,0.0,0.0,0.0,0.0,0.0,0.0,0.0,0.0,3.5375,0.0,0.0,2.7472,2.3676,2.1929,2.0185,1.7853,1.5252,1.2525,0.9685,0.7689,0.5956,0.4356,0.3644,0.3413,0.3557,0.2166,0.1361,0.136,-0.0113,-0.1131,-0.1795,-0.1244,-0.0568,-0.0,0.0687,0.0805,0.046,-0.139,-0.2092,-0.1628,-0.258,-0.3178,-0.3297,-0.2827,-0.2709,-0.2943,-0.2943,-0.2957,-0.2857,-0.248,-0.2379,-0.2413,-0.2413,-0.3268,-0.4622,0.0,0.0,0.0,0.0,0.0,0.0,0.0,0.0,0.0,0.0,2.482,2.4673,2.5065,2.5605,2.637,0.0,0.0,0.0,0.0,3.4171,3.5674,3.609,3.7486,3.8439,3.8891,4.0048,4.0943,4.1499,4.2667,4.355,4.4168,4.4998,4.5526,4.5808,4.5959,4.6052,4.5579,3.758,3.2061,2.834,2.3339,1.4126,0.3706,0.753,0.859,0.7334,0.1659,0.4384,0.9942,0.5452,0.8909,1.4155,0.9334,0.9395,1.2921,2.1442,2.4047,0.0,0.0,0.0,0.0,0.0,0.0,0.0,0.0,0.0,4.1041,3.951,3.7632,3.5379,3.2216,3.0406,2.8127,2.4351,2.2565,2.1205,1.9765,1.65,1.3327,1.0588,0.882,0.6982,0.5155,0.5028,0.4795,0.4571,0.3386,0.2579,0.2137,0.0901,-0.0451,-0.1812,-0.1377,-0.0693,-0.0,0.0585,0.1178,0.1885,-0.0354,-0.1655,-0.2128,-0.2728,-0.3209,-0.3447,-0.3209,-0.3089,-0.3089,-0.3089,-0.3089,-0.3089,-0.3324,-0.3497,-0.3573,-0.343,-0.4279,-0.587,0.0,0.0,0.0,0.0,0.0,0.0,0.0,0.0,0.0,0.0,0.0,0.0,0.0,0.0,0.0,0.0,0.0,0.0,2.839,3.124,3.3067,3.3343,3.5138,3.6549,3.7494,3.8004,3.8994,4.0357,4.1165,4.228,4.3695,4.4556,4.5266,4.5814,4.5996,4.6136,4.6109,4.4928,3.4977,2.0667,2.845,1.6664,-0.3671,1.3557,1.5505,0.903,0.8613,1.0429,1.3017,1.3391,1.0923,0.7648,0.8206,0.941,1.3087,2.5398,0.0,2.5621,3.6617,3.9578,3.9624,3.9996,4.2519,4.4886,0.0,0.0,4.2435,4.0703,3.847,3.5862,3.2735,3.0815,2.8354,2.3834,2.2647,2.1639,1.9285,1.6275,1.4265,1.3862,1.0543,0.7772,0.6757,0.5541,0.4823,0.4492,0.3363,0.2931,0.343,0.1602,-0.023,-0.1755,-0.176,-0.1175,-0.0,0.0118,0.0707,0.2004,0.1554,0.0481,-0.1202,-0.1829,-0.2822,-0.3808,-0.3808,-0.3807,-0.3807,-0.3561,-0.3561,-0.3929,-0.4777,-0.5275,-0.5521,-0.4892,-0.6186,-0.8417,0.0,0.0,0.0,0.0,0.0,0.0,0.0,0.0,0.0,0.0,0.0,0.0,0.0,0.0,0.0,0.0,0.0,0.0,2.4933,2.8029,3.0121,3.0747,3.2709,3.4193,3.517,3.6734,3.8156,3.9326,4.0665,4.1988,4.3383,4.4342,4.5084,4.5623,4.5843,4.6011,4.6132,4.6118,3.8769,2.7072,2.6181,1.9413,1.0154,1.3279,1.9057,2.4957,2.0318,1.9297,0.0,0.0,1.8431,1.4782,1.8891,1.8639,1.9266,3.1644,3.4193,0.0,4.3423,4.3435,4.1522,0.0,4.4865,4.5358,4.396,4.2592,4.1196,3.9508,3.7807,3.5637,3.2485,3.1211,2.9144,0.0,2.3447,2.2511,1.9972,1.7208,1.539,1.539,1.239,0.9817,0.8481,0.7497,0.667,0.61,0.4953,0.4276,0.384,0.2678,0.1051,-0.1176,-0.1664,-0.1195,-0.0,0.0362,0.0848,0.1454,0.0609,-0.0244,-0.1099,-0.246,-0.3455,-0.3951,-0.3951,-0.3951,-0.3951,-0.3826,-0.3826,-0.4073,-0.5172,-0.6272,-0.6994,-0.6661,-0.7739,-0.9353,0.0,0.0,0.0,0.0,0.0,0.0,0.0,0.0,0.0,0.0,0.0,0.0,0.0,0.0,0.0,0.0,0.0,0.0,0.0,2.4504,2.6887,2.8306,3.0261,3.1888,3.3073,3.5076,3.6747,3.8035,3.9761,4.1276,4.2558,4.386,4.4754,4.5303,4.5588,4.5838,4.5937,4.3559,3.7609,2.9296,2.303,1.9656,1.8213,1.7001,2.5153,3.6115,2.7919,2.6697,0.0,0.0,2.3441,2.2503,2.5254,2.5043,2.5864,3.6434,4.1056,4.3618,4.7758,0.0,0.0,4.5942,4.5897,4.493,4.3165,4.1641,4.0201,3.8578,3.6988,3.4958,3.2383,3.0988,2.8885,2.4678,2.3646,2.2706,2.047,1.7839,1.6138,1.6138,1.3573,1.1433,1.0292,0.9362,0.8362,0.7163,0.646,0.5534,0.4613,0.4263,0.2847,0.0238,-0.0844,-0.085,-0.0,0.0246,0.0494,0.0494,-0.0493,-0.1109,-0.148,-0.3085,-0.3951,-0.3951,-0.3951,-0.3951,-0.3951,-0.4318,-0.4441,-0.4562,-0.6272,-0.7614,-0.8465,-0.8836,-0.9566,-1.0297,0.0,0.0,0.0,0.0,0.0,0.0,0.0,0.0,0.0,0.0,0.0,0.0,0.0,0.0,0.0,0.0,0.0,0.0,0.0,2.0766,2.3242,2.5937,2.7853,2.9706,3.1626,3.2524,3.4143,3.6369,3.8066,3.9546,4.0822,4.2865,4.4177,4.4848,4.5238,4.5667,4.5547,3.714,2.8761,2.1073,2.0709,1.6167,1.1386,2.8682,3.5957,3.5874,2.7869,0.0,0.0,0.0,2.2892,2.7292,2.1882,2.4751,0.0,3.8344,4.4601,4.9159,4.8413,0.0,4.6743,4.5905,4.511,4.4128,4.2386,4.1281,4.0225,3.9057,3.649,3.4083,3.2681,2.9727,2.6857,2.4343,2.2944,2.1654,2.0348,1.7988,1.6253,1.6253,1.3904,1.2215,0.0,1.0842,0.9291,0.7285,0.7044,0.6857,0.6246,0.6259,0.5211,0.2951,0.0985,-0.0,-0.0,-0.0617,-0.0987,-0.0986,-0.0986,-0.148,-0.2467,-0.3455,-0.3951,-0.3951,-0.3951,-0.3951,-0.395,-0.5297,-0.5784,-0.6151,-0.8708,-0.968,-0.9926,-1.116,-1.1655,-1.1776,0.0,0.0,0.0,0.0,0.0,0.0,0.0,0.0,0.0,0.0,0.0,0.0,0.0,0.0,0.0,0.0,0.0,0.0,0.0,1.7598,2.0412,2.2669,2.5029,2.714,2.9142,3.0237,3.2061,3.4792,3.6013,3.7997,4.0732,4.1716,4.3018,4.448,4.484,4.524,4.5472,4.2802,3.6814,2.9059,2.9093,2.8265,2.765,3.3636,4.01,4.5601,0.0,0.0,0.0,0.0,0.0,0.0,3.7772,0.0,3.7482,4.3841,4.7211,4.881,4.8467,4.7655,4.6742,4.6024,4.5153,4.3866,4.1601,4.1113,4.0473,3.7718,3.6339,3.49,3.2529,3.0088,2.7497,2.5044,2.3604,2.2008,1.9782,1.788,1.6483,1.5465,1.3806,0.0,0.0,0.0,0.0,0.8354,0.8216,0.7635,0.6472,0.6726,0.6503,0.5554,0.1972,-0.0,-0.0,-0.1977,-0.2963,-0.2957,-0.2711,-0.2836,-0.3455,-0.3703,-0.3951,-0.3951,-0.3951,-0.4439,-0.5297,-0.5663,-0.6394,-0.737,-0.9073,-0.9805,-0.9926,-1.1281,-1.1776,-1.1776,0.0,0.0,0.0,0.0,0.0,0.0,0.0,0.0,0.0,0.0,0.0,0.0,0.0,0.0,0.0,0.0,0.0,0.0,0.0,0.0,1.5934,1.8324,2.1047,2.3448,2.5254,2.7035,2.9239,3.1856,3.3762,3.6182,3.9076,4.0572,4.2147,4.38,4.4285,4.4836,4.5221,4.2409,3.8307,3.368,3.3426,3.4482,3.6489,3.9118,4.4337,0.0,0.0,0.0,0.0,0.0,0.0,0.0,0.0,4.31,4.2712,4.7282,4.8439,4.8258,4.8194,4.7439,4.6518,4.5794,4.4781,4.3412,4.142,4.1282,4.0715,3.7568,3.6333,3.504,3.2696,2.96,2.6936,2.5423,2.3574,2.1832,2.0316,1.8518,1.7103,1.6322,1.4656,0.0,0.0,0.0,0.0,0.9532,0.9345,0.8587,0.6893,0.7143,0.7278,0.7293,0.3451,0.0986,-0.0,-0.2595,-0.4325,-0.5306,-0.4436,-0.4067,-0.4193,-0.395,-0.3951,-0.3951,-0.4441,-0.5051,-0.6029,-0.6881,-0.7856,-0.8711,-1.0051,-1.0543,-1.0664,-1.1526,-1.1776,-1.1776,0.0,0.0,0.0,0.0,0.0,0.0,0.0,0.0,0.0,0.0,0.0,0.0,0.0,0.0,0.0,0.0,0.0,0.0,0.0,0.0,0.0,1.3251,1.6162,1.8571,2.0254,2.3037,2.5497,2.7663,3.1162,3.3891,3.5859,3.9143,4.1361,4.2614,4.3472,4.4403,4.4759,3.664,3.3868,3.4885,3.412,3.5068,3.778,4.5074,0.0,0.0,0.0,0.0,0.0,0.0,0.0,0.0,0.0,4.2271,4.6879,4.8483,4.845,4.7819,4.7638,4.7001,4.6237,4.5316,4.4051,4.2725,4.1767,4.1568,4.0983,3.8704,3.6615,3.4775,0.0,0.0,2.5178,2.557,2.3091,2.1355,2.1853,1.9674,1.8133,0.0,0.0,0.0,0.0,0.0,0.0,1.0813,0.0,0.9441,0.7508,0.7385,0.7518,0.7913,0.5297,0.2586,-0.0,-0.2594,-0.5193,-0.7926,-0.5921,-0.4925,-0.4926,-0.4316,-0.395,-0.4073,-0.5419,-0.6029,-0.6272,-0.883,-0.9805,-1.0051,-1.1281,-1.1776,-1.1776,-1.1776,-1.1776,-1.1776,0.0,0.0,0.0,0.0,0.0,0.0,0.0,0.0,0.0,0.0,0.0,0.0,0.0,0.0,0.0,0.0,0.0,0.0,0.0,0.0,0.0,0.0,0.0,0.0,0.0,0.0,0.0,2.3504,2.6597,2.9346,3.1788,3.5079,3.7562,3.9457,4.1262,4.2701,4.367,4.2106,4.1788,4.2288,0.0,4.317,4.486,0.0,0.0,0.0,0.0,0.0,0.0,0.0,0.0,0.0,0.0,4.6288,4.7629,4.8039,4.7967,4.7556,4.7153,4.6237,4.53,4.475,4.3789,4.2659,4.1254,4.1576,4.1465,3.8768,3.7019,3.5517,0.0,0.0,0.0,2.5904,2.3574,0.0,1.9661,1.8768,0.0,1.5954,0.0,1.5038,1.5634,1.4258,0.0,0.0,1.0758,0.9201,0.7508,0.7627,0.7763,0.791,0.5297,0.2586,-0.0,-0.2588,-0.5304,-0.7926,-0.6903,-0.6151,-0.5661,-0.4926,-0.5174,-0.6154,-0.5908,-0.7004,-0.883,-0.9559,-1.0418,-1.1285,-1.1651,-1.1776,-1.1776,-1.1776,-1.1776,-1.1776,0.0,0.0,0.0,0.0,0.0,0.0,0.0,0.0,0.0,0.0,0.0,0.0,0.0,0.0,0.0,0.0,0.0,0.0,0.0,0.0,0.0,0.0,0.0,0.0,0.0,0.0,0.0,0.0,0.0,0.0,2.7803,3.1764,3.4725,3.6932,3.9069,4.0948,4.263,4.341,0.0,0.0,0.0,0.0,0.0,0.0,0.0,0.0,0.0,0.0,0.0,0.0,0.0,4.6161,4.6605,4.6647,4.6586,4.7209,0.0,4.6673,4.6394,4.5665,4.475,4.4159,4.3254,4.2146,4.1055,4.1341,4.0949,3.8178,3.6775,0.0,3.254,0.0,0.0,0.0,0.0,0.0,2.0055,1.8908,1.7888,0.0,1.6094,0.0,1.6359,1.4465,1.293,0.0,1.0936,0.9265,0.7783,0.7857,0.7962,0.7865,0.5315,0.2586,-0.0,-0.2586,-0.5298,-0.7918,-0.7271,-0.6644,-0.6276,-0.5661,-0.5906,-0.6888,0.0,-0.8224,-1.0044,-1.0539,-1.1152,-1.201,-1.1897,-1.1776,-1.1776,-1.1776,-1.1776,-1.1776,0.0,0.0,0.0,0.0,0.0,0.0,0.0,0.0,0.0,0.0,0.0,0.0,0.0,0.0,0.0,0.0,0.0,0.0,0.0,0.0,0.0,0.0,0.0,0.0,0.0,0.0,0.0,0.0,0.0,0.0,0.0,0.0,0.0,0.0,0.0,0.0,0.0,0.0,0.0,0.0,0.0,0.0,0.0,0.0,0.0,0.0,0.0,0.0,0.0,0.0,4.4406,4.5354,4.5467,4.5142,4.4994,4.6045,4.5937,4.5447,4.5316,4.4899,4.4266,4.3521,4.2474,4.1398,4.0794,4.0658,3.9869,3.6994,0.0,3.4129,3.0684,2.7776,2.5538,2.4587,0.0,2.0856,2.1096,1.9437,1.8162,1.8279,1.7512,1.6872,1.6742,1.4221,1.2576,1.2318,1.0902,0.9413,0.8236,0.8136,0.8092,0.7865,0.4983,0.1976,-0.0991,-0.2958,-0.5297,-0.791,-0.7268,-0.7011,-0.7011,-0.6519,-0.6641,-0.7375,0.0,0.0,-1.0653,-1.1522,-1.2005,-1.2118,-1.1893,-1.1776,-1.1776,-1.1776,-1.1776,-1.1776,0.0,0.0,0.0,0.0,0.0,0.0,0.0,0.0,0.0,0.0,-1.2431,-1.1161,0.0,0.0,0.0,0.0,0.0,0.0,0.0,0.0,0.0,0.0,0.0,0.0,0.0,0.0,0.0,0.0,0.0,0.0,0.0,0.0,0.0,0.0,0.0,0.0,0.0,0.0,0.0,0.0,0.0,0.0,0.0,0.0,0.0,0.0,0.0,0.0,0.0,0.0,4.3976,4.528,4.4659,4.4978,4.5396,4.4567,4.4235,4.3945,4.3304,4.3081,4.2776,4.217,4.1582,4.0678,3.9043,3.8781,0.0,0.0,3.3265,3.2035,2.947,2.6936,2.4933,2.3915,0.0,0.0,0.0,0.0,1.8156,0.0,0.0,0.0,0.0,0.0,0.0,0.0,0.0,0.0,0.8244,0.8095,0.8098,0.7865,0.3168,-0.1634,-0.6426,-0.4837,-0.5295,-0.7902,-0.7758,-0.7747,-0.7747,-0.7867,-0.8596,-0.9694,0.0,0.0,-1.2234,-1.2118,-1.2118,-1.2118,-1.1893,-1.1776,-1.1776,-1.1776,-1.1776,-1.1776,0.0,0.0,0.0,0.0,0.0,0.0,0.0,-1.5214,-1.5109,-1.5614,-1.4998,-1.3987,-1.305,-1.1546,0.0,0.0,0.0,0.0,0.0,0.0,0.0,0.0,0.0,0.0,0.0,0.0,0.0,0.0,0.0,0.0,0.0,0.0,0.0,0.0,0.0,0.0,0.0,0.0,0.0,0.0,0.0,0.0,0.0,0.0,0.0,0.0,0.0,0.0,0.0,0.0,4.149,4.2794,4.3372,4.394,4.419,4.3431,4.3289,4.313,4.2164,4.1587,4.1226,4.0681,4.0193,3.9362,3.7859,0.0,0.0,0.0,3.1127,2.9773,2.7271,0.0,0.0,0.0,0.0,0.0,0.0,0.0,0.0,0.0,0.0,0.0,0.0,0.0,0.0,0.0,0.0,0.0,0.8437,0.8391,0.8213,0.7899,-0.0128,-0.5607,-0.7854,-0.6638,-0.6706,-0.7899,-0.788,-0.8113,-0.8604,-0.8723,-0.9694,-1.1031,-1.1265,0.0,-1.2719,-1.2359,-1.2234,-1.2118,-1.1893,-1.1776,-1.1776,-1.1776,-1.2251,-1.2844,0.0,0.0,0.0,0.0,0.0,0.0,0.0,-1.6807,-1.6814,-1.6807,-1.6707,-1.613,-1.4698,-1.3573,-1.2583,0.0,0.0,0.0,0.0,0.0,0.0,0.0,0.0,0.0,0.0,0.0,0.0,0.0,0.0,0.0,0.0,0.0,0.0,0.0,0.0,0.0,0.0,0.0,0.0,0.0,0.0,0.0,0.0,0.0,0.0,0.0,0.0,0.0,0.0,0.0,3.8192,3.9159,4.072,4.1865,4.2452,4.185,4.1782,4.1767,4.0774,4.0201,3.9707,3.9108,3.8548,3.7821,3.6152,3.4876,0.0,0.0,2.8555,2.703,2.4773,0.0,2.2419,0.0,0.0,0.0,0.0,0.0,0.0,0.0,0.0,0.0,0.0,0.0,0.0,0.0,0.0,0.0,0.7665,0.8281,0.7266,0.4428,-0.4009,-0.8244,-0.7883,-0.8065,-0.7983,-0.7894,-0.8122,-0.8604,-0.9335,-0.97,-1.0668,-1.1877,-1.2118,0.0,0.0,-1.2479,-1.2238,-1.2118,-1.1893,-1.2014,-1.2251,-1.2251,-1.296,-1.4143,0.0,0.0,0.0,0.0,0.0,0.0,0.0,-1.895,-1.8277,-1.8459,-1.7484,-1.6587,-1.6427,-1.5513,-1.4909,0.0,0.0,0.0,0.0,0.0,0.0,0.0,0.0,0.0,0.0,0.0,0.0,0.0,0.0,0.0,0.0,0.0,0.0,0.0,0.0,0.0,0.0,0.0,0.0,0.0,0.0,0.0,0.0,0.0,0.0,0.0,0.0,0.0,0.0,0.0,0.0,3.4716,3.5344,3.8136,4.0732,3.9108,0.0,0.0,3.8238,3.8438,3.846,3.7356,3.7047,3.6119,3.2671,0.0,0.0,2.6357,2.477,2.3611,2.2454,2.1348,2.039,0.0,0.0,1.8361,0.0,0.0,0.0,0.0,0.0,0.0,0.0,0.0,0.0,0.0,0.0,0.0,0.0,0.7139,0.3758,-0.6721,-0.7611,-0.8012,-0.8106,-0.8021,-0.7899,-0.7875,-0.8726,-0.9214,-0.9335,-1.1148,-1.1993,-1.2238,0.0,0.0,0.0,-1.284,-1.2479,-1.2118,-1.1893,-1.2487,-1.355,-1.355,-1.4381,-1.5456,0.0,0.0,0.0,0.0,0.0,0.0,-2.0848,-2.0356,-1.976,-1.9542,-1.8738,-1.8044,-1.7551,-1.7028,-1.595,0.0,0.0,0.0,0.0,0.0,0.0,0.0,0.0,0.0,0.0,0.0,0.0,0.0,0.0,0.0,0.0,0.0,0.0,0.0,0.0,0.0,0.0,0.0,0.0,0.0,0.0,0.0,0.0,0.0,0.0,0.0,0.0,0.0,0.0,0.0,0.0,0.0,3.1285,3.2673,0.0,0.0,3.6599,3.6188,3.6219,3.6034,3.5719,3.5164,3.4598,3.3639,3.1687,0.0,2.6833,2.4632,2.2817,2.1477,2.1103,1.9555,1.8228,1.7932,0.0,0.0,1.4192,0.0,0.0,0.0,0.0,0.0,0.0,0.0,0.0,0.0,0.0,0.0,0.0,-0.0537,-0.3902,-0.8518,-0.8341,-0.8202,-0.8119,-0.8079,-0.8321,-0.8726,-0.9092,-0.994,-1.1027,-1.1872,-1.2479,-1.3084,0.0,0.0,0.0,-1.2719,-1.2835,-1.3071,-1.2955,-1.367,-1.4857,-1.4857,-1.5682,-1.675,0.0,0.0,0.0,0.0,0.0,-2.1591,-2.1996,-2.1794,-2.1277,-2.0254,-1.9731,-1.9027,-1.8122,-1.7799,-1.6774,-1.4303,0.0,0.0,0.0,0.0,0.0,0.0,0.0,0.0,0.0,0.0,0.0,-0.4137,0.0,0.0,0.0,0.0,0.0,0.0,0.0,0.0,0.0,0.0,0.0,0.0,0.0,0.0,0.0,0.0,0.0,0.0,0.0,0.0,0.0,0.0,0.0,0.0,0.0,0.0,0.0,0.0,3.3687,3.3637,3.3808,3.3761,3.3569,3.32,3.2306,3.1091,0.0,0.0,2.4324,2.2892,2.0811,1.9334,1.949,1.7518,1.6026,1.6089,1.4595,1.3205,1.2739,1.2731,0.0,0.0,0.0,0.0,0.0,0.0,0.0,0.0,0.0,0.0,0.0,-0.6327,-0.8628,-0.859,-0.8451,-0.8189,-0.8063,-0.8315,-0.8697,-0.9335,-0.994,-1.0906,-1.2238,-1.2479,-1.308,-1.3688,0.0,0.0,0.0,-1.3315,-1.367,-1.4262,-1.4262,-1.5095,-1.6161,-1.6161,-1.6985,-1.8046,0.0,0.0,0.0,0.0,0.0,0.0,-2.3619,-2.3411,-2.2593,-2.0783,-2.0151,-1.9531,-1.8122,-1.8016,-1.7371,-1.5962,0.0,0.0,0.0,0.0,0.0,0.0,0.0,0.0,0.0,0.0,-0.5361,-0.5361,-0.5359,-0.4131,0.0,0.0,0.0,0.0,0.0,0.0,0.0,0.0,0.0,0.0,0.0,0.0,0.0,0.0,0.0,0.0,0.0,0.0,0.0,0.0,0.0,0.0,0.0,0.0,0.0,0.0,2.9486,3.07,3.0863,3.17,3.2329,3.1614,3.0649,2.8928,0.0,0.0,2.287,2.0922,1.8353,1.6773,1.7234,1.5251,1.3656,1.3843,1.3876,1.3247,1.1674,1.1372,0.0,0.0,0.0,0.0,0.0,0.0,0.0,0.0,0.0,0.0,0.0,-0.863,-0.856,-0.8437,-0.8186,-0.806,-0.8057,-0.8919,-0.9339,-0.9339,-1.1269,-1.2234,-1.2234,-1.3204,-1.3688,0.0,0.0,0.0,0.0,-1.4629,-1.4981,-1.5575,-1.5575,-1.6397,-1.7455,-1.7455,-1.8286,-1.9366,0.0,0.0,0.0,0.0,0.0,0.0,0.0,-2.4529,-2.4016,-2.3094,-2.1878,-2.0656,-1.9531,-1.852,-1.7799,-1.7147,0.0,0.0,0.0,0.0,0.0,0.0,0.0,0.0,0.0,0.0,-0.7371,-0.6591,-0.6591,-0.5808,-0.4242,-0.4015,-0.2557,0.0,0.0,0.0,0.0,0.0,0.0,0.0,0.0,0.0,0.0,0.0,0.0,0.0,0.0,0.0,0.0,0.0,0.0,0.0,0.0,0.0,0.0,2.1496,2.3698,0.0,2.7122,2.7335,2.7323,2.7499,2.61,2.4293,2.2157,0.0,1.815,1.6708,1.5285,1.4398,1.4657,1.3271,1.224,1.2294,1.1462,1.0593,1.0111,0.0,0.0,0.0,0.0,0.0,0.0,0.0,0.0,0.0,0.0,0.0,0.0,0.0,-0.8473,-0.8432,-0.8945,-0.9184,-0.9044,-0.9893,-1.0668,-1.1269,-1.1872,-1.2599,-1.3204,-1.3569,0.0,0.0,0.0,0.0,0.0,-1.5919,-1.6273,-1.6868,-1.6868,-1.7695,-1.8771,-1.8771,-1.901,-1.9366,0.0,0.0,0.0,0.0,0.0,0.0,0.0,-2.503,-2.4627,-2.3094,-2.2383,-2.1371,-1.9635,-1.8617,-1.801,-1.7582,0.0,0.0,0.0,0.0,0.0,0.0,0.0,0.0,0.0,-0.9699,-0.9037,-0.782,-0.782,-0.7149,-0.6031,-0.6031,-0.5025,-0.3126,0.0,0.0,0.0,0.0,0.0,0.0,0.0,0.0,1.3281,0.0,0.0,0.0,0.0,0.0,0.0,0.0,0.0,0.0,0.0,0.0,0.0,0.0,1.8342,2.019,0.0,2.4134,2.4039,2.4092,2.2523,0.0,0.0,0.0,1.5308,1.4316,1.3295,1.2515,1.2685,1.1674,1.0743,1.0743,0.9902,0.8894,0.741,0.0,0.0,0.0,0.0,0.0,0.0,0.0,0.0,0.0,0.0,0.0,0.0,0.0,-0.9181,-0.9518,-0.9624,-0.9728,-0.9954,-1.0837,-1.1631,-1.2234,-1.2599,-1.332,-1.4396,-1.4396,0.0,0.0,0.0,0.0,0.0,-1.7214,-1.7689,-1.8396,-1.8286,-1.8648,-1.9366,-1.9366,-1.9366,-1.9366,0.0,0.0,0.0,0.0,0.0,0.0,0.0,-2.5011,-2.452,-2.1489,-2.1785,-2.1371,-1.8826,-1.8422,-1.8213,-1.7687,0.0,0.0,0.0,0.0,0.0,0.0,0.0,0.0,-1.0891,-1.0769,-1.0229,-0.9158,-0.9158,-0.8488,-0.7374,-0.7374,-0.6702,-0.5472,-0.3126,0.0,0.0,0.0,0.0,0.0,0.0,0.0,0.0,0.0,0.0,0.0,0.0,0.0,0.0,0.0,0.0,0.0,0.0,0.0,0.0,0.0,0.0,0.0,0.0,2.1513,2.1911,0.0,0.0,0.0,0.0,0.0,0.0,1.315,1.1956,1.1133,1.1272,1.0176,0.9332,0.9184,0.92,0.8029,0.436,0.0,0.0,0.0,0.0,0.0,0.0,0.0,0.0,0.0,0.0,0.0,0.0,0.0,-1.0405,-1.1389,-1.0343,-1.0197,-1.091,-1.1872,-1.2475,-1.2475,-1.3439,-1.4629,-1.5688,-1.5688,0.0,0.0,0.0,0.0,0.0,-1.8629,-1.8984,-1.97,-1.9482,-1.9366,-1.9366,-1.9366,-1.9366,-1.9366,0.0,0.0,0.0,0.0,0.0,0.0,0.0,0.0,0.0,0.0,-2.1802,-2.0672,-1.9731,-1.8729,-1.801,0.0,0.0,0.0,0.0,0.0,0.0,0.0,0.0,0.0,-1.1978,-1.1832,-1.1617,-1.1546,-1.1546,-1.1,-0.99,-0.99,-0.8689,-0.6702,-0.6144,-0.5248,0.0,0.0,0.0,0.0,0.0,0.0,0.0,0.0,0.0,0.0,1.0559,1.1854,0.0,0.0,0.0,0.0,0.0,0.0,0.0,0.0,1.3336,1.3233,1.4668,0.0,1.5944,1.5915,1.5091,1.3818,0.0,0.0,0.0,0.0,0.0,0.0,0.0,0.8747,0.8907,0.7722,0.8472,0.8036,0.436,0.0,0.0,0.0,0.0,0.0,0.0,0.0,0.0,0.0,0.0,0.0,0.0,0.0,-1.1385,-1.2093,-1.2743,-1.2621,-1.1872,-1.3784,-1.4857,-1.4857,-1.6037,-1.6738,-1.6973,-1.6973,0.0,0.0,0.0,0.0,-1.9924,-1.9917,-1.9693,-1.9482,-1.9366,-1.9366,-1.9366,-1.9366,-1.9366,-1.9366,0.0,0.0,0.0,0.0,0.0,0.0,0.0,0.0,0.0,0.0,0.0,0.0,0.0,0.0,0.0,0.0,0.0,0.0,0.0,0.0,0.0,0.0,0.0,-1.4284,-1.3021,-1.2906,-1.2587,-1.2168,-1.237,-1.2087,-1.1437,-1.1437,-1.0449,-0.8692,-0.7703,-0.67,0.0,0.0,0.0,0.0,0.0,0.0,0.0,0.0,0.0,0.0,0.7238,0.8383,0.0,1.0631,1.0884,1.0884,0.0,0.0,0.0,0.0,1.1377,1.103,1.1456,1.2393,1.3177,1.2755,1.2266,1.1508,1.0002,0.0,0.0,0.0,0.0,0.0,0.0,0.0,0.7295,0.5827,0.5543,0.0,0.0,0.0,0.0,0.0,0.0,0.0,0.0,0.0,0.0,0.0,0.0,0.0,0.0,0.0,-1.2324,-1.3746,-1.449,-1.449,-1.3784,-1.5564,-1.6391,-1.6391,-1.7091,-1.7677,-1.8267,-1.8267,0.0,0.0,0.0,0.0,-2.0493,-2.0385,-2.0046,-1.9591,-1.9482,-1.9366,-1.9366,-1.9366,-1.9707,-2.027,0.0,0.0,0.0,0.0,0.0,0.0,0.0,0.0,0.0,0.0,0.0,0.0,0.0,0.0,0.0,0.0,0.0,0.0,0.0,0.0,0.0,0.0,0.0,-1.5029,-1.4113,-1.397,-1.3551,-1.2534,-1.2851,-1.2852,-1.2635,-1.2635,-1.1978,-1.0672,-0.8806,-0.7479,0.0,0.0,0.0,0.0,-0.2276,0.0,0.0,0.0,0.0,0.0,0.0,0.0,0.0,0.7121,0.7612,0.7736,0.8861,0.0,0.0,0.0,0.0,0.0,0.9624,1.0972,1.2014,1.0836,1.0591,1.0245,0.8761,0.8198,0.0,0.0,0.0,0.0,0.0,0.5245,0.0,0.0,0.0,0.0,0.0,0.0,0.0,0.0,0.0,0.0,0.0,0.0,0.0,0.0,0.0,0.0,0.0,0.0,0.0,-1.564,-1.5915,-1.6161,-1.6161,-1.7214,-1.7677,-1.7677,-1.7917,-1.85,-1.9564,-1.9564,-2.0148,0.0,0.0,0.0,-2.0716,-2.0378,-2.0155,-2.004,-1.9822,-1.9822,-1.9938,-1.9938,-2.0615,-2.1517,0.0,0.0,0.0,0.0,0.0,0.0,0.0,0.0,0.0,0.0,0.0,0.0,0.0,0.0,0.0,0.0,0.0,0.0,0.0,0.0,0.0,-1.5998,-1.5427,-1.5167,-1.5279,-1.5071,-1.4962,-1.4966,-1.5223,-1.4917,-1.3948,-1.3948,-1.2748,-1.0672,-0.9805,-0.9368,-0.9258,-0.8585,-0.7756,-0.6505,-0.4409,0.0,0.0,0.0,0.0,0.0,0.0,0.0,0.0,0.5774,0.6263,0.6278,0.6483,0.0,0.0,0.0,0.0,0.0,1.0019,1.019,1.0054,0.9924,0.9875,0.9691,0.808,0.6003,0.4264,0.0,0.0,0.0,0.0,0.2771,0.0,0.0,0.0,0.0,0.0,0.0,0.0,0.0,0.0,0.0,0.0,0.0,0.0,0.0,0.0,0.0,0.0,0.0,0.0,-1.6713,-1.7837,-1.8519,-1.8739,-1.8971,-1.8971,-1.8971,-2.0148,-2.0737,-2.0859,-2.0859,-2.0974,0.0,0.0,-2.0967,-2.0716,-2.0378,-2.0723,-2.1281,-2.106,-2.1517,-2.2418,-2.2418,-2.2523,-2.2869,0.0,0.0,0.0,0.0,0.0,0.0,0.0,0.0,0.0,0.0,0.0,0.0,0.0,0.0,0.0,0.0,0.0,0.0,0.0,0.0,0.0,-1.5686,-1.5312,-1.5234,-1.5493,-1.524,-1.5234,-1.5499,-1.5765,-1.5672,-1.5137,-1.4493,-1.329,-1.1542,-1.1013,-1.0363,-0.9816,-0.9809,-0.9227,-0.8124,0.0,0.0,0.0,0.0,0.0,0.0,0.0,0.0,0.0,0.0,0.482,0.4984,0.5644,0.0,0.0,0.0,0.0,0.0,0.7897,0.8315,0.8581,0.8043,0.822,0.8431,0.7748,0.574,0.3828,0.0,0.0,0.0,0.0,0.0,0.0,0.0,0.0,0.0,0.0,0.0,0.0,0.0,0.0,0.0,0.0,0.0,0.0,0.0,0.0,0.0,0.0,0.0,0.0,0.0,-1.8945,-2.0221,-2.1038,-2.1805,-2.1593,-2.0378,-2.0974,-2.1211,-2.1211,-2.1873,-2.2207,-2.2207,0.0,-2.2862,-2.241,-2.2305,-2.2297,-2.2297,-2.2184,-2.2531,-2.3087,-2.3768,-2.3991,-2.4103,0.0,0.0,0.0,0.0,0.0,0.0,0.0,0.0,0.0,0.0,0.0,0.0,0.0,0.0,0.0,0.0,0.0,0.0,0.0,0.0,-1.5771,-1.5511,-1.5246,-1.5203,-1.5403,-1.5215,-1.5234,-1.5499,-1.5765,-1.5891,-1.5891,-1.4702,-1.3727,-1.2743,-1.1882,-1.1017,-1.0257,-1.0516,-1.007,-0.9087,0.0,0.0,0.0,0.0,0.0,0.0,0.0,0.0,0.0,0.0,0.0,0.0,0.0,0.0,0.0,0.5412,0.5723,0.6036,0.6036,0.6853,0.7409,0.6197,0.7159,0.804,0.6979,0.5914,0.4546,0.0,0.0,0.0,0.0,0.0,0.0,0.0,0.0,0.0,0.0,0.0,0.0,0.0,0.0,0.0,0.0,0.0,0.0,0.0,0.0,0.0,0.0,0.0,0.0,0.0,-2.0085,-2.1457,-2.2862,-2.4069,-2.3743,-2.1979,-2.1979,-2.1979,-2.2093,-2.2895,-2.3294,-2.3286,-2.3955,-2.404,-2.3734,-2.3505,-2.3402,-2.3173,-2.3181,-2.334,-2.3867,-2.4855,-2.5229,-2.534,0.0,0.0,0.0,0.0,0.0,0.0,0.0,0.0,0.0,0.0,0.0,0.0,0.0,0.0,0.0,0.0,0.0,0.0,0.0,0.0,-1.5771,-1.5511,-1.5246,-1.5119,-1.5137,-1.5119,-1.5234,-1.5499,-1.5765,-1.5891,-1.5891,-1.4702,-1.4164,-1.3948,-1.1982,-1.1227,-1.1472,-1.0763,-1.0019,-0.9242,-0.8086,0.0,0.0,0.0,0.0,0.0,0.0,0.0,0.0,0.0,0.0,0.0,0.0,0.0,0.4484,0.4411,0.5364,0.6299,0.6299,0.6494,0.6287,0.4793,0.7726,0.9883,0.5589,0.5697,0.5944,0.2913,0.0,0.0,0.0,0.0,0.0,0.0,0.0,0.0,0.0,0.0,0.0,0.0,0.0,0.0,0.0,0.0,0.0,0.0,0.0,0.0,0.0,0.0,0.0,0.0,0.0,-2.2402,-2.4094,-2.4317,-2.442,-2.4505,-2.4505,-2.4505,-2.4488,-2.4157,-2.3996,-2.3979,-2.3426,-2.3176,-2.307,-2.2535,-2.2963,-2.3937,-2.3619,-2.4482,-2.5827,-2.6327,-2.6473,-2.6473,0.0,0.0,0.0,0.0,0.0,0.0,0.0,0.0,0.0,0.0,0.0,0.0,0.0,0.0,0.0,0.0,0.0,0.0,0.0,-1.4131,-1.4157,-1.4235,-1.414,-1.4287,-1.4593,-1.4898,-1.5318,-1.5741,-1.5843,-1.5891,-1.5891,-1.5458,-1.4482,-1.3078,-1.2779,-1.1952,-1.0639,-1.0822,-1.0882,-1.0453,-0.8485,-0.7386,0.0,0.0,0.0,0.0,0.0,0.0,0.0,0.0,0.0253,0.1154,0.1171,0.198,0.294,0.2956,0.3361,0.3769,0.3802,0.4479,0.4757,0.3324,0.571,0.0,0.0,0.3573,0.4037,0.378,0.306,0.0,0.0,0.0,0.0,0.0,0.0,0.0,0.0,0.0,0.0,0.0,0.0,0.0,0.0,0.0,0.0,0.0,0.0,0.0,0.0,0.0,0.0,0.0,0.0,-2.43,-2.5084,-2.5721,-2.6258,-2.6579,-2.5037,-2.4384,-2.4367,-2.4632,-2.4774,-2.4765,-2.5163,-2.5213,-2.5004,-2.4595,-2.4604,-2.4823,-2.4718,-2.5131,-2.5647,-2.605,-2.6197,-2.6233,0.0,0.0,0.0,0.0,0.0,0.0,0.0,0.0,0.0,0.0,0.0,0.0,0.0,0.0,0.0,0.0,0.0,0.0,-1.2733,-1.2602,-1.2539,-1.2749,-1.2804,-1.2944,-1.3351,-1.3849,-1.4756,-1.5891,-1.5891,-1.5891,-1.5891,-1.5891,-1.4843,-1.3068,-1.3226,-1.2324,-1.0705,-1.0886,-1.1149,-1.1264,-0.9155,-0.8383,0.0,0.0,0.0,0.0,0.0,0.0,0.0,0.0,-0.0894,0.013,0.0,0.1065,0.175,0.2155,0.2155,0.2159,0.218,0.2865,0.3419,0.2501,0.0,0.0,0.2715,0.2728,0.3173,0.3779,0.306,0.2187,0.1895,0.0,0.0,0.0,0.0,0.0,0.0,0.0,0.0,0.0,0.0,0.0,0.0,0.0,0.0,0.0,0.0,0.0,0.0,0.0,0.0,0.0,0.0,0.0,-2.6073,-2.6667,-2.7122,-2.7552,-2.5656,-2.4854,-2.5067,-2.5402,-2.5526,-2.5526,-2.5933,-2.5885,-2.5673,-2.5396,-2.5191,-2.4996,-2.5133,-2.5188,-2.5234,-2.5628,-2.5775,-2.583,0.0,0.0,0.0,0.0,0.0,0.0,0.0,0.0,0.0,0.0,0.0,0.0,0.0,0.0,0.0,0.0,0.0,0.0,-1.152,-1.152,-1.1324,-1.1141,-1.1212,-1.1315,-1.1315,-1.1731,-1.3282,-1.5897,-1.5897,-1.5897,-1.5897,-1.5897,-1.5377,-1.4282,-1.3179,-1.2406,-1.1923,-1.0954,-1.0913,-1.1398,-1.0233,-0.9805,-0.9559,0.0,0.0,0.0,0.0,0.0,0.0,0.0,-0.193,-0.0923,0.0,0.0,0.0673,0.1885,0.2155,0.2155,0.2155,0.22,0.2238,0.0,0.0,0.0,0.2297,0.3465,0.4222,0.2623,0.2333,0.1895,0.0874,0.0,0.0,0.0,0.0,0.0,0.0,0.0,0.0,0.0,0.0,0.0,0.0,0.0,0.0,0.0,0.0,0.0,0.0,0.0,0.0,0.0,0.0,0.0,-2.698,-2.6588,-2.6692,-2.7189,-2.6362,-2.6391,-2.6992,-2.6572,-2.6277,-2.5948,-2.522,-2.4735,-2.443,-2.4242,-2.4152,-2.4198,-2.4611,-2.4776,-2.4821,-2.5225,-2.5362,-2.5417,0.0,0.0,0.0,0.0,0.0,0.0,0.0,0.0,0.0,0.0,0.0,0.0,0.0,0.0,0.0,0.0,0.0,0.0,-0.968,-0.9577,-0.9656,-1.005,-1.0104,-1.0402,-1.085,-1.1816,-1.2796,-1.3745,-1.3745,-1.3745,-1.3745,-1.3745,-1.3223,-1.2047,-1.2298,-1.1936,-1.1075,-1.1375,-1.1575,-1.1575,-1.0276,-0.9805,-0.9562,0.0,0.0,0.0,0.0,0.0,0.0,0.0,0.0,0.0,-0.1865,0.0,-0.0403,0.0673,0.1084,0.1232,0.1936,0.2216,0.0,0.2256,0.0,0.0,0.0,0.2601,0.0,0.0,0.2476,0.2322,0.0864,0.0,0.0,0.0,0.0,0.0,0.0,0.0,0.0,0.0,0.0,0.0,0.0,0.0,0.0,0.0,0.0,0.0,0.0,0.0,0.0,0.0,0.0,0.0,-2.657,-2.6169,-2.6022,-2.612,-2.6448,-2.6615,-2.6562,-2.5925,-2.5624,-2.5516,-2.489,-2.4529,-2.443,-2.4242,-2.4152,-2.4161,-2.429,-2.4345,-2.439,-2.4803,-2.4959,-2.5014,0.0,0.0,0.0,0.0,0.0,0.0,0.0,0.0,0.0,0.0,0.0,0.0,0.0,0.0,0.0,0.0,0.0,0.0,0.0,-0.8125,-0.826,-0.8677,-0.8794,-0.9148,-0.9754,-1.0427,-1.1063,-1.1415,-1.2422,-1.2918,-1.2918,-1.2918,-1.2276,-1.1205,-1.1779,-1.152,-1.0774,-1.1358,-1.1651,-1.1776,-1.0914,-1.0543,-1.0422,0.0,0.0,0.0,0.0,0.0,0.0,0.0,0.0,0.0,-0.2817,0.0,-0.1479,-0.0404,-0.0135,0.0136,0.1239,0.1239,0.0,0.2091,0.196,0.1546,0.1558,0.0,0.0,0.0,0.0,0.0,0.0,0.0,0.0,0.0,0.0,0.0,0.0,0.0,0.0,0.0,0.0,0.0,0.0,0.0,0.0,0.0,0.0,0.0,0.0,0.0,0.0,0.0,0.0,0.0,-2.6692,-2.6588,-2.6473,-2.6357,-2.6861,-2.7088,-2.6976,-2.6393,-2.5984,-2.5693,-2.4824,-2.4341,-2.4341,-2.4251,-2.4152,-2.4152,-2.4152,-2.4152,-2.4189,-2.4436,-2.4528,-2.4592,0.0,0.0,0.0,0.0,0.0,0.0,0.0,0.0,0.0,0.0,-0.7619,0.0,0.0,0.0,0.0,0.0,0.0,0.0,0.0,0.0,-0.7231,-0.7369,-0.7592,-0.7889,-0.8366,-0.8369,-0.8732,-0.9217,-1.1528,-1.263,-1.263,-1.263,-1.2147,-1.1142,-1.1496,-1.1355,-1.0789,-1.1152,-1.1522,-1.1776,-1.1776,-1.1776,-1.1651,-1.0422,0.0,0.0,0.0,0.0,0.0,0.0,0.0,0.0,-0.3094,-0.2824,-0.269,-0.1613,-0.1211,-0.0943,0.0135,0.0,0.0,0.1488,0.1236,0.0,0.042,0.1285,0.1737,0.0,0.0,0.0,0.0,0.0,0.0,0.0,0.0,0.0,0.0,0.0,0.0,0.0,0.0,0.0,0.0,0.0,0.0,0.0,0.0,0.0,0.0,0.0,0.0,0.0,0.0,0.0,-2.7131,-2.7528,-2.7612,0.0,-2.7608,-2.7788,-2.7987,-2.7484,-2.6999,-2.6234,-2.4815,-2.4152,-2.4152,-2.4152,-2.4152,-2.4152,-2.4152,-2.4152,-2.4152,-2.4152,-2.4152,-2.4207,0.0,0.0,0.0,0.0,0.0,0.0,0.0,0.0,0.0,0.0,0.0,0.0,0.0,0.0,0.0,0.0,0.0,0.0,0.0,0.0,-0.6844,-0.7614,-0.7758,-0.7845,-0.7994,-0.8488,-0.8854,-0.8976,-0.9754,-1.0197,-1.0437,-1.0437,-1.0335,-1.013,-1.0733,-1.0872,-1.0789,-1.1405,-1.1772,-1.1776,-1.1776,-1.1776,-1.1776,-1.1526,-1.0668,0.0,0.0,0.0,0.0,0.0,0.0,0.0,-0.4038,-0.3902,-0.3768,-0.269,-0.2304,-0.205,-0.0957,-0.0822,0.0,0.0,-0.0549,-0.0691,-0.0699,-0.0422,0.0,0.0,0.0,0.0,0.0,0.0,0.0,0.0,0.0,0.0,0.0,0.0,0.0,0.0,0.0,0.0,0.0,0.0,0.0,0.0,0.0,0.0,0.0,0.0,0.0,0.0,0.0,-2.7435,-2.761,-2.7382,-2.7049,0.0,-2.7726,-2.8143,-2.8236,-2.8132,-2.7369,-2.6031,-2.4716,-2.4152,-2.4152,-2.4152,-2.4152,-2.4152,-2.4152,-2.4152,-2.4152,-2.4152,-2.4152,-2.4161,0.0,0.0,0.0,0.0,0.0,0.0,0.0,0.0,0.0,0.0,0.0,0.0,0.0,0.0,0.0,0.0,0.0,0.0,0.0,0.0,-0.7238,-0.7774,-0.7839,-0.7872,-0.7872,-0.8366,-0.8732,-0.8854,-0.9217,-0.9457,-0.9822,-0.9822,-0.9822,-0.9819,-1.0547,-1.0789,-1.0789,-1.153,-1.1776,-1.1776,-1.1776,-1.1776,-1.1776,-1.1776,-1.1453,-1.0674,-0.9459,0.0,0.0,0.0,0.0,0.0,0.0,0.0,-0.4172,-0.3632,-0.3398,-0.3154,-0.2178,0.0,0.0,-0.1906,0.0,0.0,-0.1646,0.0,0.0,0.0,0.0,0.0,0.0,0.0,0.0,0.0,0.0,0.0,0.0,0.0,0.0,0.0,0.0,0.0,0.0,0.0,0.0,0.0,0.0,0.0,0.0,0.0,0.0,0.0,-2.8247,-2.8228,-2.7969,-2.8125,-2.8072,-2.76,-2.8434,-2.8991,-2.9176,-2.8598,-2.7662,-2.635,-2.5586,-2.5304,-2.5304,-2.4922,-2.4726,-2.4726,-2.4341,-2.4152,-2.4152,-2.4152,-2.444,-2.4726,0.0,0.0,0.0,0.0,0.0,0.0,0.0,0.0,0.0,0.0,0.0,0.0,0.0,0.0,0.0,0.0,0.0,0.0,0.0,0.0,0.0,-0.7867,-0.7872,-0.7872,-0.7994,-0.8366,-0.8613,-0.8976,-0.9217,-0.9579,-0.9822,-0.9822,-0.9822,-0.9819,-1.0547,-1.0789,-1.0789,-1.153,-1.1776,-1.1776,-1.1776,-1.1651,-1.1526,-1.1655,-1.176,-1.1553,-1.0331,-0.9193,-0.8016,-0.6544,0.0,0.0,0.0,0.0,-0.4308,-0.4308,-0.4343,-0.4234,-0.3238,0.0,-0.4097,-0.3237,-0.2286,0.0,0.0,0.0,0.0,0.0,0.0,0.0,0.0,0.0,0.0,0.0,0.0,0.0,0.0,0.0,0.0,0.0,0.0,0.0,0.0,0.0,0.0,0.0,0.0,0.0,0.0,0.0,-2.8055,-2.845,-2.9083,-2.9079,-2.841,-2.9105,-2.915,-2.8757,-2.9209,-2.9577,-2.9943,-2.8899,-2.7966,-2.7136,-2.6648,-2.6456,-2.6456,-2.5781,-2.5489,-2.5489,-2.4824,-2.4637,-2.4637,-2.4637,-2.5011,-2.5489,0.0,0.0,0.0,0.0,0.0,0.0,0.0,0.0,0.0,0.0,0.0,0.0,0.0,0.0,0.0,0.0,0.0,0.0,-0.7481,0.0,0.0,-0.7872,-0.7872,-0.7997,-0.8369,-0.861,-0.8976,-0.9214,-0.9579,-0.97,-0.9822,-0.9822,-0.9822,-0.9819,-1.0547,-1.0789,-1.0789,-1.153,-1.1776,-1.1776,-1.1776,-1.1156,-1.0172,-1.1405,-1.1141,-1.0177,-0.8808,-0.8291,-0.7885,-0.5484,-0.4441,0.0,0.0,0.0,-0.4308,-0.4308,-0.4313,-0.4318,0.0,0.0,-0.4318,0.0,-0.4037,0.0,0.0,0.0,0.0,0.0,0.0,0.0,0.0,0.0,0.0,0.0,0.0,0.0,0.0,0.0,0.0,0.0,0.0,0.0,0.0,0.0,0.0,0.0,0.0,0.0,0.0,-2.7914,-2.843,-2.8769,-2.8593,-2.8731,-2.9287,-2.9063,-2.8822,-2.8757,-2.8839,-2.8943,-2.8932,-2.8839,-2.8538,-2.8038,-2.6924,-2.6456,-2.6456,-2.636,-2.636,-2.636,-2.6264,-2.6167,-2.6167,-2.6167,-2.6264,-2.636,0.0,0.0,0.0,0.0,0.0,0.0,0.0,0.0,0.0,0.0,0.0,0.0,0.0,0.0,0.0,-0.5128,-0.6551,-0.7481,-0.7701,-0.7812,-0.7872,-0.7872,-0.8119,-0.8244,-0.8369,-0.8854,-0.9217,-0.9335,-0.9579,-0.9822,-0.9822,-0.9822,-0.9822,-0.9819,-1.0547,-1.0789,-1.0789,-1.153,-1.1776,-1.1776,-1.1035,-1.0297,-0.9815,-0.9658,-0.9405,-0.8908,-0.8397,-0.7739,-0.7048,-0.5897,-0.4977,-0.4308,-0.4308,0.0,0.0,0.0,-0.4333,-0.4358,-0.4358,-0.4334,-0.4308,0.0,0.0,0.0,0.0,0.0,0.0,0.0,0.0,0.0,0.0,0.0,0.0,0.0,0.0,0.0,0.0,0.0,0.0,0.0,0.0,0.0,0.0,0.0,0.0,0.0,0.0,0.0,-2.8571,-2.8962,-2.9151,-2.9214,-2.9,-2.8966,-2.9074,-2.8855,-2.8757,-2.8757,-2.8757,-2.8757,-2.8757,-2.8757,-2.8746,-2.8538,-2.7977,-2.7799,-2.7799,-2.7305,-2.7115,-2.7115,-2.6648,-2.6456,-2.6456,-2.6456,-2.6733,-2.7115,0.0,0.0,0.0,0.0,0.0,0.0,0.0,0.0,0.0,0.0,0.0,0.0,0.0,0.0,0.0,0.0,-0.6091,-0.763,-0.7856,-0.7872,-0.7872,-0.7872,-0.8119,-0.8366,-0.8491,-0.8976,-0.9217,-0.9457,-0.97,-0.9822,-0.9822,-0.9822,-0.9822,-0.994,-1.0547,-1.0789,-1.0789,-1.153,-1.1651,-1.116,-1.0172,-0.9438,-0.8717,-0.808,-0.783,-0.7709,-0.7793,-0.713,-0.6309,-0.6044,-0.5109,-0.4308,-0.4308,-0.4308,0.0,0.0,0.0,0.0,0.0,0.0,-0.5376,0.0,0.0,0.0,0.0,0.0,0.0,0.0,0.0,0.0,0.0,0.0,0.0,0.0,0.0,0.0,0.0,0.0,0.0,0.0,0.0,0.0,0.0,0.0,0.0,0.0,0.0,0.0,-2.9429,-2.9606,-2.9567,-2.9325,-2.9292,-2.9128,-2.8757,-2.8757,-2.8757,-2.8757,-2.8757,-2.8757,-2.8757,-2.8757,-2.8757,-2.8757,-2.8757,-2.8757,-2.8757,-2.8175,-2.7882,-2.7882,-2.7315,-2.7125,-2.7125,-2.7125,-2.7483,-2.8063,0.0,0.0,0.0,0.0,0.0,0.0,0.0,0.0,0.0,0.0,0.0,0.0,-0.0,-0.2325,-0.3926,-0.3878,-0.6295,-0.7881,-0.7858,-0.7872,-0.7872,-0.7872,-0.7872,0.0,-0.8854,-0.8854,-0.9217,-0.9822,-0.9822,-0.9822,-0.9822,-0.9822,-0.9943,-1.0304,-1.0668,-1.0789,-1.0789,-1.153,-1.1035,-0.9926,-0.9805,-0.8343,-0.6274,-0.7497,-0.7264,-0.6428,-0.6304,-0.629,-0.6176,-0.4842,-0.4307,-0.4308,-0.4308,-0.4308,-0.4575,0.0,0.0,0.0,0.0,-0.8312,0.0,0.0,0.0,0.0,0.0,0.0,0.0,0.0,0.0,0.0,0.0,0.0,0.0,0.0,0.0,0.0,0.0,0.0,0.0,0.0,0.0,0.0,0.0,0.0,0.0,0.0,0.0,0.0,-2.8927,-2.93,-2.9314,-2.8811,-2.879,-2.8779,-2.8757,-2.8757,-2.8757,-2.8757,-2.8757,-2.8757,-2.8757,-2.8757,-2.8757,-2.8757,-2.8757,-2.8757,-2.8757,-2.8757,-2.8757,-2.8746,-2.8653,-2.8653,-2.8653,-2.8653,-2.8947,-2.9445,0.0,0.0,0.0,0.0,0.0,0.0,0.0,0.0,0.0,0.0,0.0,0.0,0.0,-0.23,-0.3855,-0.395,-0.6323,-0.7911,-0.7867,-0.7872,-0.7994,-0.8244,-0.8485,-0.8729,-0.9095,-0.9335,-0.9579,-0.9822,-0.9822,-0.9822,-0.9822,-0.9822,-0.9822,-0.994,-1.0547,-1.0422,-0.9933,-1.1281,-1.0547,0.0,-0.8587,-0.7492,-0.5912,-0.5474,-0.5185,0.0,0.0,0.0,-0.4975,-0.4441,-0.4308,-0.4308,-0.4308,-0.4975,-0.591,-0.7376,-0.8174,0.0,0.0,0.0,0.0,0.0,0.0,0.0,0.0,0.0,0.0,0.0,0.0,0.0,0.0,0.0,0.0,0.0,0.0,0.0,0.0,0.0,0.0,0.0,0.0,0.0,0.0,0.0,0.0,0.0,0.0,0.0,-2.9279,-2.9374,-2.9259,-2.8768,-2.8757,-2.8757,-2.8757,-2.8757,-2.8757,-2.8757,-2.8757,-2.8757,-2.8757,-2.8757,-2.8757,-2.8757,-2.8757,-2.8757,-2.8757,-2.8757,-2.8757,-2.8757,-2.8757,-2.8757,-2.879,-2.9106,-2.9336,-2.9532,0.0,0.0,0.0,0.0,0.0,0.0,0.0,0.0,0.0,-0.0,0.0,0.0,0.0,0.0,-0.3273,-0.5126,-0.6815,-0.7877,-0.7872,-0.7994,-0.8122,-0.8369,-0.8735,-0.8976,-0.9335,-0.9529,-0.965,-0.9822,-0.9774,-0.9774,-0.9822,-0.9822,-0.9822,-0.994,-1.0547,-1.0422,-0.993,0.0,0.0,-0.7858,0.0,0.0,-0.5217,0.0,0.0,0.0,0.0,0.0,0.0,0.0,0.0,-0.4308,-0.4308,-0.5644,-0.7374,-0.8839,-0.9637,0.0,-1.0038,0.0,0.0,0.0,0.0,0.0,0.0,0.0,0.0,0.0,0.0,0.0,0.0,0.0,0.0,0.0,0.0,0.0,0.0,0.0,0.0,0.0,0.0,0.0,0.0,0.0,0.0,0.0,0.0,0.0,-2.9521,-2.9325,-2.9095,-2.8768,-2.8757,-2.8757,-2.8757,-2.8757,-2.8757,-2.8757,-2.8757,-2.8757,-2.8757,-2.8757,-2.8757,-2.8757,-2.8757,-2.8757,-2.8757,-2.8757,-2.8757,-2.8757,-2.8757,-2.8855,-2.9041,-2.9368,-2.9685,-3.0002,0.0,0.0,0.0,0.0,0.0,0.0,0.0,0.0,-0.0,-0.0,0.0,0.0,0.0,0.0,0.0,-0.7271,-0.7779,-0.7891,-0.7872,-0.8244,-0.8369,-0.8369,-0.8732,-0.9098,-0.9335,-0.9197,-0.9313,-0.9822,-0.9683,-0.9686,-0.9822,-0.9822,-0.9943,-1.0304,-1.0668,-1.0789,-1.0789,0.0,-1.0183,-0.7858,0.0,-0.6324,-0.4031,0.0,0.0,0.0,-0.4213,-0.4253,0.0,-0.4307,0.0,0.0,0.0,-0.6309,-0.8972,-1.0303,-1.1769,0.0,0.0,0.0,0.0,0.0,0.0,0.0,0.0,0.0,0.0,0.0,0.0,0.0,0.0,0.0,0.0,0.0,0.0,0.0,0.0,0.0,0.0,0.0,0.0,0.0,0.0,0.0,0.0,0.0,0.0,-2.8593,-2.9467,-2.9019,-2.8757,-2.8757,-2.8757,-2.8757,-2.8757,-2.8757,-2.8757,-2.8757,-2.8757,-2.8757,-2.8757,-2.8757,-2.8757,-2.8757,-2.8757,-2.8757,-2.8757,-2.8757,-2.8757,-2.8757,-2.8757,-2.9052,-2.9489,-2.95,-3.01,-3.0898,0.0,0.0,0.0,0.0,0.0,0.0,0.0,0.0,-0.0,0.0,0.0,0.0,-0.0,-0.0,-0.0611,-0.2093,-0.5673,-0.7531,-0.653,-0.7763,-0.8253,-0.7744,-0.8604,-0.9339,-0.97,-0.966,-0.9657,-0.9822,-0.9781,-0.9781,-0.9822,-0.9822,-0.9822,-0.9943,-1.0547,-1.0301,-0.9447,-1.0054,0.0,-0.6394,-0.6394,-0.6043,0.0,0.0,0.0,0.0,0.0,-0.4968,-0.4248,0.0,-0.4308,-0.4708,0.0,0.0,-1.0435,0.0,0.0,0.0,-1.2836,0.0,0.0,0.0,0.0,0.0,0.0,0.0,0.0,0.0,0.0,0.0,0.0,0.0,0.0,0.0,0.0,0.0,0.0,0.0,0.0,0.0,0.0,0.0,0.0,0.0,0.0,0.0,-2.8946,-2.9135,-2.8975,-2.8822,-2.8757,-2.8757,-2.8757,-2.8757,-2.8757,-2.8757,-2.8757,-2.8757,-2.8757,-2.8757,-2.8757,-2.8757,-2.8757,-2.8757,-2.8757,-2.8757,-2.8757,-2.8757,-2.8757,-2.8757,-2.8757,-2.9052,-2.9521,-2.9882,-3.0384,-3.0952,0.0,0.0,0.0,0.0,0.0,0.0,0.0,-0.0,-0.0,0.0,0.0,0.0,-0.0,-0.0,-0.0,-0.0,-0.3079,-0.4928,-0.4802,-0.628,-0.7016,-0.6639,-0.737,-0.8227,-0.8961,-0.8418,-0.8395,-0.9001,-0.8395,-0.8395,-0.9004,0.0,0.0,0.0,0.0,0.0,0.0,0.0,0.0,0.0,-0.6517,0.0,0.0,-0.658,-0.6765,0.0,0.0,0.0,-0.5137,-0.5708,-0.5615,0.0,0.0,0.0,0.0,0.0,0.0,0.0,0.0,0.0,0.0,0.0,0.0,0.0,0.0,-1.4893,0.0,0.0,0.0,0.0,0.0,0.0,0.0,0.0,0.0,0.0,0.0,0.0,0.0,0.0,0.0,0.0,0.0,0.0,0.0,0.0,-2.8996,-2.9052,-2.8768,-2.8757,-2.8757,-2.8757,-2.8757,-2.8757,-2.8757,-2.8757,-2.8757,-2.8757,-2.8757,-2.8757,-2.8757,-2.8757,-2.8757,-2.8757,-2.8757,-2.8757,-2.8757,-2.8757,-2.8757,-2.8757,-2.8757,-2.9183,-2.9827,-3.0111,-3.0635,-3.1236,0.0,0.0,0.0,0.0,0.0,0.0,0.0,-0.0,-0.0,0.0,-0.0,-0.0,-0.0246,-0.0247,-0.0247,-0.0123,-0.0616,-0.16,-0.3076,-0.4551,-0.5286,-0.5276,-0.5639,-0.649,-0.7696,-0.6395,-0.6352,0.0,0.0,0.0,-0.7812,-0.8046,0.0,0.0,0.0,0.0,0.0,0.0,0.0,-0.6029,-0.7248,-0.7062,0.0,0.0,-0.8207,-0.8179,-0.8193,-0.7365,-0.6536,-0.7844,-0.7656,0.0,0.0,0.0,0.0,0.0,-1.266,0.0,0.0,-1.3554,-1.4266,0.0,0.0,0.0,-1.5201,-1.6002,-1.6794,0.0,0.0,0.0,0.0,0.0,0.0,0.0,0.0,0.0,0.0,0.0,0.0,0.0,0.0,0.0,0.0,0.0,-2.8679,-2.9401,-2.8997,-2.8757,-2.8757,-2.8757,-2.8757,-2.8757,-2.8757,-2.8757,-2.8757,-2.8757,-2.8757,-2.8757,-2.8757,-2.8757,-2.8757,-2.8757,-2.8757,-2.8757,-2.8757,-2.8757,-2.8757,-2.8757,-2.8757,-2.8757,-2.8757,-2.9314,-3.0144,-3.0188,-3.0777,-3.1553,-0.0,0.0,0.0,0.0,0.0,0.0,0.0,0.0,-0.0,-0.0,-0.0,-0.0368,-0.1481,-0.1606,-0.1358,-0.0864,-0.0864,-0.1358,-0.2221,-0.3822,-0.4534,-0.4234,-0.5315,-0.6,-0.616,-0.5905,-0.5896,0.0,0.0,0.0,0.0,0.0,0.0,0.0,0.0,0.0,0.0,0.0,0.0,-0.5906,-0.6151,0.0,-0.7649,-0.8992,-0.9377,-0.9416,-0.9532,-0.8711,-0.7615,-0.7962,-0.8654,-0.9334,0.0,0.0,0.0,0.0,0.0,0.0,0.0,0.0,0.0,0.0,0.0,0.0,-1.6045,-1.6346,-1.6571,0.0,0.0,0.0,0.0,0.0,0.0,0.0,0.0,0.0,0.0,0.0,0.0,0.0,0.0,0.0,0.0,0.0,-2.9124,-2.8932,-2.8811,-2.8757,-2.8757,-2.8757,-2.8757,-2.8757,-2.8757,-2.8757,-2.8757,-2.8757,-2.8757,-2.8757,-2.8757,-2.8757,-2.8757,-2.8757,-2.8757,-2.8757,-2.8757,-2.8757,-2.8757,-2.8757,-2.8757,-2.8757,-2.8757,-2.9106,-2.9674,-3.0067,-3.0559,-3.1094,-0.0,0.0,0.0,0.0,0.0,0.0,0.0,0.0,-0.0,-0.0,-0.0611,-0.1235,-0.1977,-0.1977,-0.1847,-0.1466,-0.1465,-0.1582,-0.1932,-0.2774,-0.3124,-0.286,-0.4163,-0.5092,-0.5635,-0.5635,-0.5962,-0.6606,0.0,0.0,0.0,0.0,0.0,0.0,0.0,0.0,0.0,0.0,-0.5661,-0.5663,-0.6517,0.0,-0.8952,-1.0297,-1.0789,-1.08,-1.0882,-1.0345,-0.9433,-0.8055,-0.822,0.0,0.0,-0.9547,-1.0397,0.0,-1.1853,-1.2779,0.0,0.0,0.0,-1.6177,0.0,0.0,0.0,-1.7343,-1.7689,0.0,0.0,0.0,0.0,0.0,0.0,0.0,0.0,0.0,0.0,0.0,0.0,0.0,0.0,0.0,0.0,0.0,-2.9019,-2.8779,-2.8757,-2.8757,-2.8757,-2.8757,-2.8757,-2.8757,-2.8757,-2.8757,-2.8757,-2.8757,-2.8757,-2.8757,-2.8757,-2.8757,-2.8757,-2.8757,-2.8757,-2.8757,-2.8757,-2.8757,-2.8757,-2.8757,-2.8757,-2.8757,-2.8757,-2.9052,-2.951,-2.9762,-3.0155,-3.0581,-0.0816,0.0,0.0,0.0,0.0,0.0,0.0,0.0,-0.06,-0.0246,-0.1111,-0.1852,-0.1977,-0.1977,-0.1964,-0.1934,-0.1931,-0.1918,-0.1888,-0.1886,-0.1883,-0.1877,-0.2812,-0.3972,-0.5234,-0.5118,-0.5775,-0.7061,0.0,0.0,0.0,0.0,0.0,0.0,0.0,0.0,0.0,0.0,0.0,-0.6154,0.0,-0.8465,-0.9198,-1.0789,-1.1285,-1.1285,-1.153,-1.1496,-1.1009,-0.8752,0.0,-0.8402,-0.932,-0.9178,0.0,0.0,0.0,0.0,0.0,0.0,0.0,0.0,0.0,-1.7849,0.0,0.0,0.0,0.0,0.0,0.0,0.0,0.0,0.0,0.0,0.0,0.0,0.0,0.0,0.0,0.0,0.0,0.0,0.0,0.0,-2.8757,-2.8757,-2.8757,-2.8757,-2.8757,-2.8757,-2.8757,-2.8757,-2.8757,-2.8757,-2.8757,-2.8757,-2.8757,-2.8757,-2.8757,-2.8757,-2.8757,-2.8757,-2.8757,-2.8861,-2.8855,-2.8888,-2.8888,-2.8888,-2.8888,-2.8888,-2.879,-2.8997,-2.9358,-2.9456,-2.974,-3.0089,-0.3593,-0.1502,0.0,0.0,0.0,0.0,0.0,0.0,-0.2819,-0.1107,-0.0985,-0.1355,-0.1976,-0.1977,-0.1964,-0.1934,-0.1931,0.0,-0.1888,0.0,-0.1874,-0.1847,-0.196,-0.2631,-0.3826,-0.3826,-0.438,-0.5599,0.0,0.0,0.0,0.0,0.0,0.0,-0.823,0.0,0.0,0.0,-0.7375,0.0,-0.8593,-0.7736,0.0,-0.8711,-0.9566,-0.9687,-1.0543,-1.0921,-1.0819,0.0,-1.0719,-1.0375,0.0,-0.9968,-1.0379,0.0,0.0,0.0,0.0,0.0,0.0,0.0,-1.7485,0.0,0.0,0.0,0.0,0.0,0.0,0.0,0.0,0.0,0.0,0.0,0.0,0.0,0.0,0.0,0.0,0.0,0.0,0.0,0.0,0.0,0.0,-2.8757,-2.8757,-2.8757,-2.8757,-2.8757,-2.8757,-2.8757,-2.8757,-2.8757,-2.8757,-2.8757,-2.8757,-2.8757,-2.8757,-2.8757,-2.8757,-2.8757,-2.8757,-2.8779,-2.9216,-2.9401,-2.9401,-2.9401,-2.9401,-2.9358,-2.8921,-2.879,-2.8888,-2.9325,-2.9521,-2.9631,-0.6058,-0.5084,-0.4637,0.0,0.0,0.0,0.0,0.0,-0.6532,-0.5667,-0.4154,-0.3161,0.0,0.0,0.0,0.0,0.0,-0.291,0.0,0.0,-0.3305,-0.1814,0.0,0.0,-0.4695,-0.6033,-0.6924,-0.7482,-0.8057,0.0,0.0,0.0,0.0,0.0,-0.8352,0.0,-0.8349,0.0,-0.8105,0.0,0.0,0.0,0.0,-0.9201,-1.0176,-1.0176,-1.0422,-1.0547,-1.0547,0.0,-0.9937,0.0,0.0,0.0,0.0,0.0,0.0,0.0,0.0,0.0,0.0,0.0,0.0,0.0,-1.8544,0.0,-2.0139,0.0,0.0,0.0,0.0,0.0,0.0,0.0,0.0,0.0,0.0,0.0,0.0,0.0,0.0,0.0,0.0,0.0,0.0,0.0,0.0,-2.8757,-2.8757,-2.8757,-2.8757,-2.8757,-2.8757,-2.8757,-2.8757,-2.8757,-2.8757,-2.8757,-2.8757,-2.8757,-2.8757,-2.8757,-2.891,-2.9194,-2.939,-2.9642,-2.9904,-2.9904,-2.974,-2.9467,-2.9259,-2.9008,-2.8779,-2.8986,-2.9063,-2.9095,-0.7473,-0.7528,0.0,0.0,0.0,0.0,0.0,0.0,0.0,0.0,0.0,0.0,-0.4311,-0.3435,0.0,0.0,-0.3899,-0.4099,0.0,0.0,-0.4249,0.0,0.0,0.0,0.0,0.0,-0.8605,-0.894,0.0,0.0,0.0,0.0,0.0,0.0,0.0,-0.8927,-0.9697,0.0,0.0,-0.8842,-0.8961,-0.8474,-0.7864,-0.9572,-1.0304,-1.0547,-1.0304,-1.0425,-1.0668,-1.0547,-1.0176,0.0,-1.2105,0.0,0.0,0.0,0.0,0.0,-1.5451,0.0,0.0,0.0,0.0,0.0,0.0,0.0,0.0,0.0,0.0,0.0,0.0,0.0,0.0,0.0,0.0,0.0,0.0,0.0,0.0,0.0,0.0,0.0,0.0,0.0,0.0,0.0,-2.8664,0.0,-2.8757,-2.8757,-2.8757,-2.8757,-2.8757,-2.8757,-2.8757,-2.8757,-2.8757,-2.8757,-2.8757,-2.8757,-2.8757,-2.8888,-2.915,-2.95,-2.9762,-3.0067,-3.0395,-3.0395,-3.0188,-2.9849,-2.9587,-2.927,-2.8943,-2.8894,-2.8757,-2.8757,-0.7456,-0.7516,0.0,0.0,0.0,0.0,0.0,0.0,0.0,0.0,0.0,0.0,0.0,0.0,0.0,0.0,0.0,-0.5344,-0.5367,0.0,-0.4137,0.0,0.0,-0.4808,0.0,0.0,-0.7709,-0.894,-0.8944,0.0,0.0,0.0,0.0,0.0,0.0,-0.9693,-0.9822,-0.9819,-0.9697,-0.97,-0.9819,-0.97,-0.9579,0.0,-0.9089,-0.9819,-0.9822,0.0,0.0,-1.1993,-1.2711,0.0,0.0,0.0,0.0,0.0,0.0,0.0,0.0,0.0,0.0,-1.818,0.0,0.0,0.0,0.0,-2.0801,0.0,0.0,0.0,0.0,0.0,-2.3006,-2.4651,0.0,0.0,0.0,0.0,0.0,0.0,0.0,0.0,0.0,0.0,0.0,-2.8395,-2.8395,0.0,-2.8757,-2.8757,-2.8757,-2.8757,-2.8757,-2.8757,-2.8757,-2.8757,-2.8757,-2.8757,-2.8757,-2.8757,-2.8861,-2.9248,-2.9467,-2.9532,-3.045,-3.0854,-3.0876,-3.0876,-3.0865,-3.0756,-2.9838,-2.9478,-2.9401,-2.8932,-2.8757,-2.8757,-0.747,0.0,0.0,0.0,0.0,0.0,0.0,-0.8294,0.0,0.0,0.0,0.0,0.0,-0.5718,-0.5554,0.0,0.0,-0.6519,-0.6482,-0.6146,0.0,0.0,0.0,-0.6258,0.0,0.0,-0.8494,-0.894,-0.894,0.0,0.0,0.0,0.0,0.0,0.0,-0.9581,0.0,0.0,0.0,0.0,0.0,-1.1868,-1.0906,0.0,0.0,-1.1027,-1.1027,-1.1868,0.0,-1.3186,-1.343,-1.3904,-1.4857,-1.45,-1.4138,-1.6503,-1.6617,0.0,0.0,0.0,-1.8724,-1.884,0.0,0.0,0.0,0.0,0.0,0.0,0.0,0.0,0.0,0.0,-2.4758,-2.5402,-2.6184,-2.6819,0.0,0.0,0.0,0.0,0.0,0.0,0.0,0.0,0.0,-2.8395,-2.8581,-2.8664,0.0,-2.8757,-2.8757,-2.8757,-2.8757,-2.8757,-2.8757,-2.8757,-2.8757,-2.8757,-2.8757,-2.8921,-2.9248,-2.9412,-2.9827,-3.0439,-3.0756,-3.1083,-3.1378,-3.1378,-3.1007,-3.0417,-3.0089,-2.9565,-2.8986,-2.8811,-2.8757,-2.8757,-0.7358,0.0,0.0,0.0,0.0,0.0,0.0,0.0,0.0,0.0,-0.8347,0.0,-0.7381,0.0,-0.6813,0.0,-0.7487,-0.7709,-0.7709,-0.7376,0.0,-0.67,-0.6927,0.0,0.0,0.0,0.0,-0.894,-0.894,-0.8988,0.0,0.0,0.0,0.0,0.0,-0.9884,-1.0647,0.0,-1.0805,0.0,0.0,-1.2854,0.0,0.0,-1.128,-1.1752,0.0,-1.3306,-1.4381,-1.4381,-1.4569,-1.5092,-1.592,-1.5737,-1.5654,-1.7874,-1.7963,-1.7685,-1.9172,-1.9368,0.0,-1.9519,-1.9932,0.0,-2.0385,0.0,0.0,0.0,0.0,0.0,0.0,0.0,0.0,-2.6177,-2.687,-2.7262,0.0,-2.7262,0.0,0.0,0.0,0.0,0.0,0.0,-2.8113,-2.8395,-2.8477,-2.8571,0.0,0.0,-2.8757,-2.8757,-2.8757,-2.8757,-2.8757,-2.8757,-2.8844,-2.9019,-2.9019,-2.927,-2.9751,-2.9915,-3.0319,-3.0898,-3.1083,-3.1334,-3.1618,-3.1618,-3.116,-3.0439,-3.0275,-2.9718,-2.8997,-2.8822,-2.8757,-2.8757,0.0,0.0,0.0,0.0,-0.7587,0.0,0.0,0.0,-0.8618,0.0,-0.9147,-0.8636,-0.7388,-0.8159,-0.8491,-0.7265,-0.8266,0.0,-0.894,-0.7823,0.0,0.0,-0.7712,-0.7709,-0.8826,0.0,0.0,-0.8937,-0.8937,-0.9047,-0.9047,0.0,0.0,0.0,-0.9822,0.0,-1.2776,-1.1651,-1.1884,-1.3017,-1.3027,-1.3032,-1.3032,-1.3032,0.0,-1.1964,-1.3278,-1.4584,-1.5655,-1.5655,-1.6332,-1.7189,-1.7189,-1.7566,-1.8007,-1.8014,-1.8658,-1.9304,-1.9304,-1.9297,-1.9431,-2.0005,0.0,0.0,0.0,0.0,-2.1318,0.0,0.0,0.0,0.0,0.0,0.0,-2.6965,-2.7262,-2.7262,-2.7262,0.0,0.0,0.0,0.0,0.0,0.0,-2.7441,-2.7641,-2.8301,-2.8186,-2.8279,0.0,0.0,0.0,-2.8757,-2.8757,-2.8768,-2.879,-2.879,-2.903,-2.9521,-2.9521,-2.9773,-3.0264,-3.0701,-3.0908,-3.0952,-3.1422,-3.1618,-3.1618,-3.1597,-3.1302,-3.081,-3.0351,-2.9871,-2.939,-2.8921,-2.8757,-2.8757,-0.701,-0.7122,-0.722,0.0,-0.7418,-0.7633,0.0,0.0,0.0,0.0,-0.8947,-0.8866,-0.8494,-0.8716,-0.8826,-0.8491,-0.8716,0.0,0.0,0.0,0.0,-0.883,-0.7712,-0.7709,-0.8826,-0.894,0.0,-1.0241,-1.0241,-1.0676,-1.1546,0.0,0.0,0.0,0.0,0.0,-1.2473,-1.2297,-1.2922,-1.4282,-1.5249,-1.5208,0.0,0.0,-1.5064,-1.4014,-1.4349,-1.539,-1.6439,-1.6439,-1.6952,-1.7677,-1.7677,-1.8177,-1.9002,-1.9661,-1.9932,-1.9964,-2.0613,-2.0642,-2.0531,-2.0662,-2.1242,-2.1935,0.0,0.0,0.0,0.0,0.0,0.0,0.0,0.0,0.0,-2.7262,-2.7262,-2.7262,0.0,0.0,0.0,-2.7262,0.0,0.0,-2.7357,-2.7631,-2.7904,-2.8092,-2.8373,0.0,0.0,0.0,0.0,-2.8757,-2.8757,-2.8932,-2.9292,-2.9292,-2.9543,-3.0024,-3.0024,-3.0275,-3.0723,-3.0843,-3.1094,-3.1444,-3.1575,-3.1618,-3.1597,-3.1236,-3.081,-3.0341,-2.986,-2.9368,-2.8932,-2.8801,-2.8757,-2.8757,-0.6823,0.0,0.0,-0.6991,0.0,0.0,-0.8501,0.0,0.0,-0.9293,-0.9054,0.0,-0.894,-0.894,-0.894,-0.894,-0.894,0.0,-0.894,0.0,0.0,-0.9588,-0.9027,-0.9244,-1.0351,-1.0464,0.0,-1.1437,0.0,0.0,-1.2417,0.0,0.0,0.0,0.0,-1.3073,0.0,-1.3967,-1.4467,-1.5247,-1.6065,0.0,0.0,-1.6124,-1.6113,-1.5881,-1.5869,-1.6465,-1.7247,-1.7247,-1.7708,-1.8263,-1.8263,-1.8822,-1.947,-2.0012,-2.031,-2.0585,-2.101,-2.1068,-2.1019,-2.1522,-2.2021,-2.2627,-2.3111,-2.3701,-2.4187,0.0,0.0,0.0,0.0,0.0,0.0,0.0,0.0,0.0,0.0,0.0,0.0,0.0,0.0,0.0,-2.7262,-2.7631,-2.7904,-2.7998,0.0,0.0,0.0,0.0,0.0,-2.8757,-2.8549,-2.8571,-2.8855,-2.8855,-2.9205,-2.9893,-3.0111,-3.0559,-3.1214,-3.1214,-3.1367,-3.1618,-3.1618,-3.1498,-3.128,-3.1007,-3.0493,-2.9849,-2.9358,-2.8997,-2.8757,-2.8757,-2.8757,-2.8757,0.0,0.0,0.0,0.0,0.0,0.0,0.0,-0.9103,0.0,-1.0218,0.0,-0.9375,-0.9375,-0.9375,-0.9375,-0.9375,0.0,-0.9375,-0.9375,-0.9375,-0.9809,-1.0891,-1.087,-1.1302,-1.2413,-1.2389,0.0,0.0,0.0,0.0,0.0,0.0,0.0,0.0,0.0,0.0,0.0,-1.5891,-1.5891,0.0,-1.5992,-1.6099,-1.6099,-1.6205,-1.673,-1.7358,-1.7358,-1.758,-1.8007,-1.8007,-1.8381,-1.8921,-1.8921,-1.9379,-1.9887,-1.9887,-2.03,-2.0925,-2.0925,-2.1019,-2.1318,-2.2224,-2.2728,-2.312,-2.4097,-2.4384,-2.4786,-2.5693,-2.5187,0.0,0.0,0.0,0.0,0.0,0.0,0.0,0.0,0.0,0.0,0.0,0.0,0.0,0.0,-2.7452,0.0,0.0,0.0,0.0,0.0,0.0,0.0,0.0,-2.8167,0.0,-2.8036,0.0,-2.8582,-2.9489,-2.998,-3.0646,-3.1433,-3.1433,-3.1433,-3.1433,-3.1433,-3.1203,-3.0799,-3.0734,-3.0188,-2.9347,-2.8921,-2.8757,-2.8757,-2.8757,-2.8757,-2.8757,0.0,0.0,0.0,0.0,0.0,-0.9983,-1.0374,-1.0023,-0.9904,-1.042,-1.1216,-1.1764,-1.1764,-1.1764,-1.1764,-1.1764,-1.1764,0.0,0.0,0.0,0.0,-1.2087,-1.193,-1.1921,-1.2413,-1.2145,-1.268,0.0,0.0,0.0,0.0,0.0,0.0,0.0,0.0,0.0,-1.5891,-1.5891,0.0,-1.5998,-1.673,-1.6935,-1.7041,-1.7681,-1.8108,-1.8213,-1.8213,-1.8282,-1.8266,-1.8266,-1.8864,-1.9554,-1.9554,-2.0036,-2.0712,-2.0712,-2.0822,-2.0925,-2.0925,-2.1522,-2.2224,-2.2426,-2.3809,-2.5197,-2.5392,-2.6081,-2.6764,-2.6965,-2.686,-2.686,-2.7262,0.0,0.0,0.0,0.0,0.0,0.0,0.0,0.0,0.0,0.0,0.0,0.0,0.0,0.0,0.0,0.0,0.0,0.0,0.0,0.0,0.0,0.0,0.0,0.0,0.0,0.0,-2.9489,-2.998,-3.0297,-3.0461,-3.0461,-3.0461,-3.0461,-3.0461,-3.0406,-3.0297,-2.9893,-2.939,-2.8877,-2.879,-2.8757,-2.8757,-2.8757,-2.8757,-2.8757,0.0,0.0,0.0,0.0,0.0,0.0,0.0,-1.136,0.0,-1.195,-1.2219,-1.2417,-1.2417,-1.2417,-1.2417,-1.2417,-1.2417,-1.2417,-1.2417,-1.2417,-1.2582,-1.3113,-1.3007,0.0,-1.3787,-1.368,-1.3997,-1.4647,0.0,0.0,-1.5692,0.0,0.0,0.0,0.0,-1.6099,0.0,0.0,0.0,-1.7259,-1.7681,-1.7786,-1.7891,-1.8213,-1.8632,-1.9049,-1.9049,-1.9361,-1.9672,-1.9257,-1.9672,-2.03,-2.03,-2.0609,-2.0925,-2.0925,-2.1318,-2.1725,-2.1725,-2.2518,-2.3511,-2.4007,-2.4903,-2.5887,-2.638,-2.6965,-2.7262,-2.7262,-2.7262,-2.7262,-2.7262,-2.7262,0.0,0.0,0.0,0.0,0.0,0.0,0.0,0.0,0.0,0.0,0.0,0.0,0.0,0.0,0.0,0.0,0.0,0.0,0.0,0.0,0.0,0.0,0.0,0.0,0.0,-2.9106,-2.9598,-2.9969,-3.0209,-3.0209,-3.0209,-3.0209,-3.0209,-3.0067,-2.9794,-2.9303,-2.8964,-2.8757,-2.8757,-2.8757,-2.8757,-2.8757,-2.8757,-2.8757,0.0,-0.8619,0.0,0.0,-0.9792,0.0,-1.0974,-1.2635,-1.376,-1.3448,-1.3218,-1.3176,-1.3176,-1.3176,-1.3176,-1.3176,-1.3176,-1.3176,-1.3176,-1.3131,-1.3347,-1.4118,-1.4014,-1.4316,-1.5107,-1.5052,-1.5052,0.0,0.0,0.0,0.0,0.0,0.0,0.0,0.0,0.0,0.0,0.0,-1.7786,-1.8422,-1.8632,-1.8632,-1.8736,-1.884,-1.9361,-1.999,-1.999,-2.0403,-2.0814,-2.0197,-2.0403,-2.0925,-2.0925,-2.1019,-2.1224,-2.1224,-2.2021,-2.282,-2.282,-2.3601,-2.459,-2.5499,-2.5887,-2.6274,-2.7061,-2.7262,-2.7262,-2.7262,-2.7179,-2.7117,-2.7117,-2.7034,0.0,0.0,0.0,0.0,0.0,0.0,0.0,0.0,0.0,0.0,0.0,0.0,0.0,0.0,0.0,0.0,0.0,0.0,0.0,0.0,0.0,-2.6693,-2.7162,0.0,-2.7752,0.0,-2.9095,-2.9532,-2.9904,-2.9904,-2.9904,-2.9904,-2.9904,-2.9685,-2.9292,-2.891,-2.8757,-2.8757,-2.8757,-2.8757,-2.8757,-2.8757,-2.8757,-2.8757,0.0,0.0,0.0,0.0,0.0,0.0,0.0,-1.3746,-1.4587,-1.3658,-1.471,-1.5559,-1.5559,-1.5559,-1.5559,-1.5559,-1.5559,-1.5559,-1.5559,-1.5346,-1.5204,-1.5389,-1.4838,-1.479,-1.5107,-1.4877,-1.4871,0.0,0.0,0.0,0.0,0.0,0.0,0.0,0.0,0.0,0.0,-1.8318,-1.8318,-1.8422,-1.9257,-1.9576,-1.968,-2.0403,-2.0712,-2.0822,-2.0822,-2.0822,-2.0917,-2.0822,-2.0822,-2.0925,-2.0925,-2.1522,-2.2325,-2.2325,-2.3111,-2.3989,-2.3989,-2.4698,-2.5586,-2.5693,-2.6476,-2.7167,-2.7262,-2.7262,-2.7262,-2.7262,-2.6931,-2.663,-2.663,-2.6289,-2.6009,0.0,0.0,0.0,0.0,0.0,0.0,0.0,0.0,0.0,0.0,0.0,0.0,0.0,0.0,0.0,0.0,0.0,0.0,-2.6048,0.0,-2.6201,-2.6693,-2.7108,0.0,-2.8112,-2.8593,-2.8844,-2.8888,-2.8888,-2.8888,-2.8888,-2.8888,-2.8866,-2.8822,-2.8779,-2.8757,-2.8757,-2.8757,-2.8757,-2.8757,-2.8757,-2.8757,-2.8757,0.0,0.0,0.0,0.0,0.0,0.0,0.0,-1.4453,-1.4904,-1.4491,-1.535,-1.5891,-1.5891,-1.5891,-1.5891,-1.5891,-1.5747,-1.5656,-1.5656,-1.5409,-1.5191,-1.5034,-1.4829,-1.469,-1.4624,-1.4515,-1.4515,0.0,0.0,0.0,0.0,0.0,0.0,0.0,0.0,-1.7642,-1.8564,-1.8564,-1.8866,-1.9375,-1.9683,-1.9783,-1.9883,-2.019,-2.0289,-2.0289,-2.0289,-2.0289,-2.0321,-2.0535,-2.0742,-2.1019,-2.1623,-2.2123,-2.2627,-2.3311,-2.4196,-2.5089,-2.5089,-2.5877,-2.6668,-2.6668,-2.6965,-2.7262,-2.7262,-2.7262,-2.7262,-2.7262,-2.6889,-2.6486,-2.6206,-2.6009,-2.5875,0.0,0.0,0.0,0.0,0.0,0.0,0.0,0.0,0.0,0.0,0.0,0.0,0.0,0.0,0.0,0.0,0.0,0.0,-2.5738,0.0,-2.6267,-2.7031,-2.7228,-2.7697,-2.8473,-2.8659,-2.8757,-2.8757,-2.8757,-2.8757,-2.8757,-2.8757,-2.8757,-2.8757,-2.8757,-2.8757,-2.8757,-2.8757,-2.8757,-2.8757,-2.8757,-2.8757,-2.8757,-1.2856,0.0,-1.2446,0.0,-1.3227,-1.3216,-1.4202,-1.469,-1.4992,-1.4992,-1.5384,-1.5686,-1.5765,-1.5777,-1.5741,-1.5662,-1.5487,-1.5384,-1.5384,-1.5137,-1.4908,-1.4727,-1.4636,0.0,-1.4298,-1.4484,-1.458,-1.458,-1.4783,0.0,0.0,0.0,0.0,0.0,-1.7647,-1.8098,-1.8965,-1.8965,-1.9365,-1.9868,-1.9868,-1.9868,-1.9868,-1.9868,-1.9868,-1.9868,-1.9868,-1.9868,-1.9997,-2.0442,-2.0791,-2.1143,-2.2156,-2.292,-2.3619,-2.4393,-2.5285,-2.6187,-2.6187,-2.6764,-2.7262,-2.7262,-2.7262,-2.7262,-2.7262,-2.7262,-2.722,-2.7086,-2.6589,-2.6072,-2.5751,-2.5575,-2.5482,-2.5482,0.0,0.0,0.0,0.0,0.0,0.0,-2.454,-2.454,-2.454,0.0,0.0,0.0,0.0,0.0,0.0,0.0,0.0,0.0,0.0,0.0,0.0,-2.7315,-2.7796,-2.8757,-2.8757,-2.8757,-2.8757,-2.8757,-2.8757,-2.8757,-2.8757,-2.8757,-2.8757,-2.8757,-2.8757,-2.8757,-2.8757,-2.8757,-2.8757,-2.8757,-2.8757,-2.8757,-1.3443,-1.3443,-1.363,-1.4202,-1.4292,-1.4292,-1.4298,-1.4539,-1.4721,-1.4721,-1.495,-1.5215,-1.5475,-1.5499,-1.5396,-1.5143,-1.5113,-1.5113,-1.5113,-1.4865,-1.4721,0.0,0.0,-1.4298,-1.4298,-1.5057,-1.5432,-1.5432,0.0,0.0,-1.6595,0.0,-1.713,-1.8192,-1.8192,-1.8862,-1.9868,-1.9868,-1.986,-1.9868,-1.9868,-1.9868,-1.9868,-1.9868,-1.9868,-1.9868,-1.9868,-1.9868,-2.0055,-2.1013,-2.13,-2.1437,-2.2287,-2.3908,-2.5693,-2.5693,-2.6476,-2.7262,-2.7262,-2.7262,-2.7262,-2.7262,-2.7262,-2.7262,-2.7262,-2.7262,-2.7127,-2.6672,-2.5865,-2.5244,-2.5244,-2.4871,-2.456,-2.456,0.0,0.0,0.0,0.0,0.0,0.0,-2.454,-2.454,-2.454,0.0,0.0,0.0,0.0,0.0,0.0,0.0,0.0,-2.52,-2.5464,0.0,-2.7039,-2.7227,-2.7796,-2.8757,-2.8757,-2.8757,-2.8757,-2.8757,-2.8757,-2.8757,-2.8757,-2.8757,-2.8757,-2.8757,-2.8757,-2.8757,-2.8757,-2.8757,-2.8757,-2.8757,-2.8757,-2.8757,-1.401,-1.4016,-1.4112,-1.4298,-1.401,-1.3727,-1.3727,-1.3947,-1.4115,-1.4115,-1.5126,-1.5852,-1.5751,-1.5417,-1.5197,0.0,-1.4944,-1.5028,0.0,-1.535,-1.539,-1.5972,-1.5872,-1.5913,-1.5913,-1.6109,-1.6204,-1.6204,0.0,0.0,0.0,-1.7318,-1.7845,-1.8613,-1.8613,-1.8769,-1.9153,-1.9153,-1.9153,-1.9153,-1.9153,-1.9153,-1.9153,-1.9153,-1.9153,-1.9153,-1.9153,-1.9613,-2.0289,-2.0823,-2.1835,-2.3129,-2.3579,-2.4231,-2.4898,-2.5653,-2.6259,-2.6724,-2.6403,-2.6548,-2.6713,-2.6403,-2.632,-2.632,-2.632,-2.632,-2.6185,-2.5751,-2.543,-2.514,-2.4819,-2.4643,-2.454,-2.454,0.0,0.0,0.0,0.0,0.0,0.0,-2.454,-2.454,0.0,-2.454,0.0,0.0,0.0,0.0,0.0,0.0,0.0,0.0,-2.5701,0.0,-2.695,-2.7553,-2.8123,-2.8757,-2.8757,-2.8757,-2.8757,-2.8757,-2.8757,-2.8757,-2.8757,-2.8757,-2.8757,-2.8757,-2.8757,-2.8757,-2.8757,-2.8757,-2.8757,-2.8757,-2.8757,-2.8757,-1.4298,-1.4106,-1.401,-1.4298,-1.3823,-1.3636,-1.4022,-1.4255,-1.4454,-1.4545,-1.5471,-1.5999,-1.5822,-1.5582,0.0,-1.569,-1.553,-1.5622,-1.6086,-1.5919,-1.6109,-1.6588,-1.6588,-1.6588,-1.6588,0.0,0.0,-1.7044,-1.7333,-1.7512,-1.7692,-1.7971,-1.835,-1.8827,-1.8827,-1.8827,-1.8827,-1.8827,-1.8827,-1.8827,-1.8827,-1.8827,-1.8827,-1.8827,-1.8827,-1.8827,-1.8827,-1.9455,-2.0382,-2.0989,-2.2242,-2.3644,-2.4197,-2.4376,-2.4616,-2.5591,-2.6082,-2.6248,-2.5958,-2.6092,-2.6248,-2.5947,-2.5875,-2.5875,-2.5875,-2.5751,-2.5564,-2.5285,-2.5099,-2.4892,-2.4592,-2.454,-2.454,-2.454,-2.454,-2.454,-2.454,0.0,0.0,0.0,0.0,0.0,0.0,-2.454,0.0,0.0,0.0,0.0,0.0,0.0,0.0,-2.4786,-2.5592,0.0,-2.6694,-2.7525,-2.8093,-2.8664,-2.8757,-2.8757,-2.8757,-2.8757,-2.8757,-2.8757,-2.8757,-2.8757,-2.8757,-2.8757,-2.8757,-2.8757,-2.8757,-2.8757,-2.8757,-2.8757,-2.8757,-2.8757,-1.4298,-1.3823,0.0,0.0,-1.3823,0.0,-1.4885,-1.5077,-1.5267,-1.573,-1.5825,-1.592,-1.592,-1.592,-1.6204,-1.6676,0.0,0.0,0.0,-1.6676,-1.6676,-1.677,-1.677,0.0,-1.677,-1.7419,-1.7785,-1.7785,-1.845,-1.845,-1.7785,-1.845,-1.8827,-1.8827,-1.8827,-1.8827,-1.8827,-1.8827,-1.8827,-1.8827,-1.8827,-1.8827,-1.8827,-1.8827,-1.8827,-1.8827,-1.8827,-1.9446,-2.052,-2.1427,-2.2394,-2.3367,-2.4186,-2.454,-2.4705,-2.5544,-2.5813,-2.5823,-2.5792,-2.5813,-2.5823,-2.5792,-2.5782,-2.5782,-2.5782,-2.5471,-2.5181,-2.5181,-2.484,-2.454,-2.454,-2.454,-2.454,-2.454,-2.454,-2.454,-2.454,0.0,0.0,0.0,0.0,0.0,0.0,-2.454,-2.454,0.0,0.0,0.0,0.0,0.0,-2.4464,-2.4592,-2.5288,-2.5925,-2.6388,-2.7308,-2.8045,-2.8395,-2.8664,-2.8757,-2.8757,-2.8757,-2.8757,-2.8757,-2.8757,-2.8757,-2.8757,-2.8757,-2.8757,-2.8757,-2.8757,-2.8757,-2.8757,-2.8757,-2.8757,-2.8757,0.0,0.0,-1.3443,-1.3244,-1.3329,-1.3613,-1.4082,-1.4848,-1.5419,-1.5514,-1.6372,-1.6857,-1.6763,-1.7239,-1.7613,-1.7714,-1.6857,-1.6574,-1.7138,-1.7326,-1.7699,-1.8265,-1.8265,-1.8265,-1.8265,-1.845,-1.8542,-1.8542,-1.8735,-1.8735,-1.8542,-1.8735,-1.8827,-1.8827,-1.8827,-1.8827,-1.8827,-1.8827,-1.8827,-1.8827,-1.8827,-1.8827,-1.8827,-1.8827,-1.8827,-1.8827,-1.8827,-1.9903,-2.1427,-2.1606,-2.2765,-2.4186,-2.4454,-2.454,-2.4495,-2.4799,-2.5109,-2.5306,-2.4954,-2.5119,-2.5295,-2.4943,-2.4861,-2.4861,-2.4861,-2.4778,-2.4705,-2.4705,-2.4623,-2.454,-2.454,-2.454,-2.454,-2.454,-2.454,-2.454,-2.454,-2.454,0.0,0.0,-2.454,-2.454,-2.454,-2.454,-2.454,0.0,0.0,0.0,0.0,0.0,-2.4705,-2.5057,-2.5956,-2.6689,-2.7024,-2.8066,-2.8648,-2.8664,-2.8757,-2.8757,-2.8757,-2.8757,-2.8757,-2.8757,-2.8757,-2.8757,-2.8757,-2.8757,-2.8757,-2.8757,-2.8757,-2.8757,-2.8757,-2.8757,-2.8757,-2.8757,-1.3636,-1.3823,-1.401,-1.4004,-1.4184,-1.4555,-1.5216,-1.5704,-1.5988,-1.6271,-1.685,-1.7232,-1.7138,-1.7512,-1.7707,-1.7707,-1.7326,-1.7232,-1.7613,-1.7792,-1.8079,-1.8458,-1.8458,-1.8458,-1.8458,-1.8458,-1.8458,-1.8458,-1.8558,-1.8651,-1.8651,-1.8743,-1.8827,-1.8827,-1.8827,-1.8827,-1.8827,-1.8827,-1.8827,-1.8827,-1.8827,-1.8827,-1.8827,-1.8827,-1.9096,-1.9446,-1.9446,-2.0701,-2.2306,-2.2306,-2.329,-2.454,-2.454,-2.454,-2.454,-2.454,-2.4716,-2.4861,-2.4612,-2.4726,-2.4861,-2.4516,-2.454,-2.454,-2.454,-2.454,-2.454,-2.454,-2.454,-2.454,-2.454,-2.454,-2.454,-2.454,-2.454,-2.454,-2.454,-2.454,0.0,-2.454,-2.454,-2.454,-2.454,-2.454,-2.454,-2.454,0.0,0.0,-2.454,-2.454,-2.4757,-2.5223,-2.5936,-2.6567,-2.701,-2.7857,-2.8384,-2.8581,-2.8581,-2.8664,-2.8757,-2.8757,-2.8757,-2.8757,-2.8757,-2.8757,-2.8757,-2.8757,-2.8757,-2.8757,-2.8757,-2.8757,-2.8757,-2.8757,-2.8757,-2.8757,-1.363,-1.419,-1.4854,-1.5146,-1.5324,-1.5792,-1.6756,-1.677,-1.6871,-1.7333,-1.7333,-1.7333,-1.7326,-1.7326,-1.7326,-1.7326,-1.7707,-1.7994,-1.7994,-1.8087,-1.8087,-1.8087,-1.8179,-1.8179,-1.8179,-1.8179,-1.8179,-1.8179,-1.8473,-1.8574,-1.8574,-1.8743,-1.8827,-1.8827,-1.8827,-1.8827,-1.8827,-1.8827,-1.8827,-1.8827,-1.8827,-1.8827,-1.8827,-1.8827,-1.9455,-2.0339,-2.0339,-2.1498,-2.3096,-2.3096,-2.3724,-2.454,-2.454,-2.454,-2.454,-2.454,-2.454,-2.454,-2.454,-2.454,-2.454,-2.454,-2.454,-2.454,-2.454,-2.454,-2.454,-2.454,-2.454,-2.454,-2.454,-2.454,-2.454,-2.454,-2.454,-2.454,-2.454,0.0,-2.454,-2.454,-2.454,-2.454,-2.454,-2.454,-2.454,-2.454,-2.454,-2.454,0.0,-2.454,-2.4778,-2.5316,-2.5689,-2.6225,-2.6847,-2.7338,-2.7914,-2.8395,-2.8395,-2.8571,-2.8757,-2.8757,-2.8757,-2.8757,-2.8757,-2.8757,-2.8757,-2.8757,-2.8757,-2.8757,-2.8757,-2.8757,-2.8757,-2.8757,-2.8757,-2.8757,-1.3806,-1.428,-1.4848,-1.4561,-1.5127,-1.5893,-1.6285,-1.7052,-1.7535,-1.7628,-1.7628,-1.7527,-1.7326,-1.7326,-1.7326,-1.7326,-1.7419,-1.752,-1.7721,-1.7994,-1.8087,-1.8087,-1.8288,-1.8481,-1.8481,-1.8558,-1.8735,-1.8735,-1.8735,-1.8735,-1.8735,-1.8827,-1.8827,-1.8827,-1.8827,-1.8827,-1.8827,-1.8827,-1.8827,-1.8827,-1.8827,-1.8827,-1.8827,-1.8827,-1.9455,-2.0339,-2.0339,-2.1498,-2.3096,-2.3096,-2.3724,-2.454,-2.454,-2.454,-2.454,-2.454,-2.454,-2.454,-2.454,-2.454,-2.454,-2.454,-2.454,-2.454,-2.454,-2.454,-2.454,-2.454,-2.454,-2.454,-2.454,-2.454,-2.454,-2.454,-2.454,-2.454,-2.454,0.0,-2.454,-2.454,-2.454,-2.454,-2.454,-2.454,-2.454,-2.454,-2.454,-2.454,-2.454,-2.454,-2.4923,-2.5751,-2.6034,-2.6757,-2.7787,-2.7861,-2.8092,-2.8395,-2.8395,-2.8571,-2.8757,-2.8757,-2.8757,-2.8757,-2.8757,-2.8757,-2.8757,-2.8757,-2.8757,-2.8757,-2.8757,-2.8757,-2.8757,-2.8757,-2.8664,-2.8395,-1.4472,-1.5229,-1.5994,-1.5798,-1.6372,-1.6857,-1.6958,-1.7239,-1.752,-1.752,-1.752,-1.7434,-1.7333,-1.7326,-1.7326,-1.7326,-1.7326,-1.7333,-1.7527,-1.7613,-1.7707,-1.7707,-1.7807,-1.7815,-1.7815,-1.7986,-1.7986,-1.7986,-1.8179,-1.8187,-1.8187,-1.8465,-1.8658,-1.8651,-1.8735,-1.8827,-1.8827,-1.8827,-1.8827,-1.8827,-1.8827,-1.8827,-1.8827,-1.8827,-1.9455,-2.0348,-2.0881,-2.1952,-2.3183,-2.3637,-2.4176,-2.454,-2.454,-2.454,-2.454,-2.454,-2.454,-2.454,-2.454,-2.454,-2.454,-2.454,-2.454,-2.454,-2.454,-2.454,-2.454,-2.454,-2.454,-2.454,-2.454,-2.454,-2.454,-2.454,-2.454,0.0,0.0,-2.454,-2.454,-2.454,-2.454,-2.454,-2.454,-2.454,-2.454,-2.454,-2.454,-2.454,-2.454,-2.454,-2.4954,-2.5854,-2.6556,-2.7108,-2.7809,-2.7809,-2.7914,-2.8196,-2.8196,-2.829,-2.8373,-2.8373,-2.8373,-2.8373,-2.8477,-2.8571,-2.8571,-2.8757,-2.8757,-2.8757,-2.8664,-2.8571,-2.8571,-2.8373,-2.8279,-2.8196,-1.5425,-1.6285,-1.7044,-1.7044,-1.7333,-1.7628,-1.7628,-1.7426,-1.7326,-1.7326,-1.7326,-1.7326,-1.7326,-1.7326,-1.7326,-1.7326,-1.7326,-1.7326,-1.7326,-1.7326,-1.7326,-1.7326,-1.7333,-1.7426,-1.7512,-1.752,-1.752,-1.7613,-1.7815,-1.7908,-1.8001,-1.8381,-1.8566,-1.8574,-1.8743,-1.8827,-1.8827,-1.8827,-1.8827,-1.8827,-1.8827,-1.892,-1.9188,-1.9188,-1.972,-2.0701,-2.1427,-2.2306,-2.3183,-2.3907,-2.4358,-2.454,-2.454,-2.454,-2.454,-2.454,-2.454,-2.454,-2.454,-2.454,-2.454,-2.454,-2.454,-2.454,-2.454,-2.454,-2.454,-2.454,-2.454,-2.454,-2.454,-2.454,-2.454,-2.454,0.0,0.0,0.0,-2.454,-2.454,-2.454,-2.454,-2.454,-2.454,-2.454,-2.454,-2.454,-2.454,-2.454,-2.454,-2.454,-2.4954,-2.5854,-2.6775,-2.7357,-2.7547,-2.7547,-2.7631,-2.7904,-2.7904,-2.7998,-2.8092,-2.8092,-2.8092,-2.8186,-2.829,-2.8395,-2.8488,-2.8571,-2.8664,-2.8664,-2.8384,-2.8301,-2.829,-2.8092,-2.7998,-2.7904,-1.6285,-1.6756,-1.7232,-1.7232,-1.7333,-1.7326,-1.7326,-1.7333,-1.7326,-1.7326,-1.7326,-1.7326,-1.7326,-1.7326,-1.7326,-1.7326,-1.7326,-1.7326,-1.7326,-1.7326,-1.7326,-1.7326,-1.7527,-1.7815,-1.8087,-1.8087,-1.8187,-1.8388,-1.8388,-1.8566,-1.8735,-1.8735,-1.8735,-1.8735,-1.8827,-1.8827,-1.8827,-1.8827,-1.8827,-1.8827,-1.8827,-1.9363,-2.0167,-2.0167,-2.0791,-2.1606,-2.1695,-2.2306,-2.3096,-2.3183,-2.382,-2.454,-2.454,-2.454,-2.454,-2.454,-2.454,-2.454,-2.454,-2.454,-2.454,-2.454,-2.454,-2.454,-2.454,-2.454,-2.454,-2.454,-2.454,-2.454,-2.454,-2.454,-2.454,-2.454,0.0,0.0,-2.454,-2.454,-2.454,-2.454,-2.454,-2.454,-2.454,-2.454,-2.454,-2.454,-2.454,-2.454,-2.454,-2.454,-2.4954,-2.5854,-2.6775,-2.7262,-2.7357,-2.7357,-2.7452,-2.7631,-2.7631,-2.7925,-2.8395,-2.8395,-2.8477,-2.8757,-2.8488,-2.8571,-2.8757,-2.8279,-2.8196,-2.8395,-2.8092,-2.7998,-2.7998,-2.7998,-2.7809,-2.7631,-1.6951,-1.7138,-1.7326,-1.7326,-1.7326,-1.7326,-1.7326,-1.7326,-1.7326,-1.7326,-1.7326,-1.7326,-1.7326,-1.7326,-1.7326,-1.7326,-1.7326,-1.7326,-1.7326,-1.7326,-1.7326,-1.7326,-1.7535,-1.7628,-1.7613,-1.7807,-1.7908,-1.8009,-1.8009,-1.8094,-1.8365,-1.8558,-1.8566,-1.8658,-1.8743,-1.8827,-1.8827,-1.8827,-1.8827,-1.8827,-1.8827,-1.9004,-1.9363,-1.9363,-1.9994,-2.0889,-2.1516,-2.2306,-2.3193,-2.3724,-2.4186,-2.454,-2.454,-2.454,-2.454,-2.454,-2.454,-2.454,-2.454,-2.454,-2.454,-2.454,-2.454,-2.454,-2.454,-2.454,-2.454,-2.454,-2.454,-2.454,-2.454,-2.454,-2.454,-2.454,0.0,-2.454,-2.454,-2.454,-2.454,-2.454,-2.454,-2.454,-2.454,-2.454,-2.454,-2.454,-2.454,-2.454,-2.454,-2.5068,-2.5523,-2.5865,-2.6775,-2.7441,-2.7715,-2.7715,-2.7809,-2.7809,-2.7809,-2.782,-2.7736,-2.7736,-2.7726,-2.7914,-2.7914,-2.7914,-2.8008,-2.7998,-2.8196,-2.8395,-2.7914,-2.7809,-2.7998,-2.762,-2.7536,-2.7441,-1.7426,-1.7333,-1.7326,-1.7326,-1.7326,-1.7326,-1.7326,-1.7326,-1.7326,-1.7326,-1.7326,-1.7326,-1.7326,-1.7326,-1.7326,-1.7326,-1.7326,-1.7326,-1.7326,-1.7326,-1.7326,-1.7326,-1.7527,-1.7527,-1.7326,-1.752,-1.7628,-1.7721,-1.7815,-1.8001,-1.8187,-1.8473,-1.8566,-1.8566,-1.8743,-1.8827,-1.8827,-1.8827,-1.8827,-1.8827,-1.8827,-1.9004,-1.9271,-1.9271,-1.972,-2.0339,-2.1069,-2.1863,-2.2746,-2.3377,-2.4003,-2.454,-2.454,-2.454,-2.454,-2.454,-2.454,-2.454,-2.454,-2.454,-2.454,-2.454,-2.454,-2.454,-2.454,-2.454,-2.454,-2.454,-2.454,-2.454,-2.454,-2.454,-2.454,-2.454,-2.454,-2.454,-2.454,-2.454,-2.454,-2.454,-2.454,-2.454,-2.454,-2.454,-2.454,-2.454,-2.454,-2.454,-2.454,-2.5388,-2.5875,-2.5875,-2.6775,-2.7441,-2.7904,-2.7809,-2.7809,-2.7809,-2.7809,-2.7631,-2.7357,-2.7357,-2.7441,-2.7536,-2.7536,-2.7631,-2.7726,-2.7809,-2.7914,-2.8113,-2.7641,-2.7631,-2.7715,-2.7452,-2.7262,-2.7262,-1.7721,-1.752,-1.7326,-1.7326,-1.7326,-1.7326,-1.7326,-1.7326,-1.7326,-1.7326,-1.7326,-1.7326,-1.7326,-1.7326,-1.7326,-1.7326,-1.7326,-1.7326,-1.7326,-1.7326,-1.7326,-1.7326,-1.7326,-1.7333,-1.7326,-1.7333,-1.7426,-1.7729,-1.7994,-1.828,-1.8481,-1.8743,-1.8827,-1.8827,-1.8827,-1.8827,-1.8827,-1.8827,-1.8827,-1.8827,-1.8827,-1.9363,-2.0257,-2.0257,-2.0249,-2.0339,-2.0339,-2.0881,-2.1695,-2.1695,-2.294,-2.4454,-2.454,-2.454,-2.454,-2.454,-2.454,-2.454,-2.454,-2.454,-2.454,-2.454,-2.454,-2.454,-2.454,-2.454,-2.454,-2.454,-2.454,-2.454,-2.454,-2.454,-2.454,-2.454,-2.454,-2.454,-2.454,-2.454,-2.454,-2.454,-2.454,-2.454,-2.454,-2.454,-2.454,-2.454,-2.454,-2.454,-2.454,-2.5388,-2.5875,-2.5875,-2.6775,-2.7347,-2.7631,-2.7452,-2.7262,-2.7262,-2.7262,-2.7452,-2.7631,-2.7631,-2.7715,-2.7998,-2.7715,-2.7726,-2.7998,-2.7536,-2.7452,-2.7536,-2.7357,-2.7262,-2.7262,-2.7262,-2.7262,-2.7262,-1.7426,-1.7333,-1.7326,-1.7326,-1.7326,-1.7326,-1.7326,-1.7326,-1.7326,-1.7326,-1.7326,-1.7326,-1.7326,-1.7326,-1.7326,-1.7326,-1.7326,-1.7326,-1.7326,-1.7326,-1.7326,-1.7326,-1.7707,-1.78,-1.7621,-1.7908,-1.8195,-1.8295,-1.8381,-1.8473,-1.8743,-1.8735,-1.8827,-1.8827,-1.8827,-1.8827,-1.8827,-1.8827,-1.8827,-1.8827,-1.8827,-1.9004,-1.9271,-1.9271,-1.972,-2.0339,-2.0339,-2.0881,-2.1784,-2.2482,-2.3008,-2.3637,-2.4272,-2.454,-2.454,-2.454,-2.454,-2.454,-2.454,-2.454,-2.454,-2.454,-2.454,-2.454,-2.454,-2.454,-2.454,-2.454,-2.454,-2.454,-2.454,-2.454,-2.454,-2.454,-2.454,-2.454,-2.454,-2.454,-2.454,-2.454,-2.454,-2.454,-2.454,-2.454,-2.454,-2.454,-2.454,-2.454,-2.454,-2.5109,-2.5564,-2.5875,-2.6465,-2.7025,-2.7357,-2.7452,-2.7536,-2.7536,-2.7536,-2.7452,-2.7357,-2.7357,-2.7441,-2.7536,-2.7441,-2.7441,-2.7536,-2.7357,-2.7452,-2.7536,-2.7357,-2.7357,-2.7441,-2.7357,-2.7262,-2.7262,-1.7326,-1.7326,-1.7326,-1.7326,-1.7326,-1.7326,-1.7326,-1.7326,-1.7326,-1.7326,-1.7326,-1.7326,-1.7326,-1.7326,-1.7326,-1.7326,-1.7326,-1.7326,-1.7326,-1.7326,-1.7326,-1.7326,-1.7714,-1.7807,-1.7527,-1.7908,-1.8001,-1.8001,-1.8102,-1.8288,-1.855,-1.8651,-1.8743,-1.8827,-1.8827,-1.8827,-1.8827,-1.8827,-1.8827,-1.8827,-1.8827,-1.8827,-1.8827,-1.9271,-1.9812,-2.0339,-2.0339,-2.0881,-2.1695,-2.1943,-2.2473,-2.328,-2.4186,-2.454,-2.454,-2.454,-2.454,-2.454,-2.454,-2.454,-2.454,-2.454,-2.454,-2.454,-2.454,-2.454,-2.454,-2.454,-2.454,-2.454,-2.454,-2.454,-2.454,-2.454,-2.454,-2.454,-2.454,-2.454,-2.454,-2.454,-2.454,-2.454,-2.454,-2.454,-2.454,-2.454,-2.454,-2.454,-2.454,-2.4985,-2.543,-2.5865,-2.633,-2.6786,-2.7251,-2.7452,-2.7452,-2.7452,-2.7452,-2.7452,-2.7262,-2.7262,-2.7262,-2.7262,-2.7262,-2.7262,-2.7262,-2.7262,-2.7357,-2.7452,-2.7357,-2.7357,-2.7452,-2.7357,-2.7262,-2.7262,-1.7326,-1.7326,-1.7326,-1.7326,-1.7326,-1.7326,-1.7326,-1.7326,-1.7326,-1.7326,-1.7326,-1.7326,-1.7326,-1.7326,-1.7326,-1.7326,-1.7326,-1.7326,-1.7326,-1.7326,-1.7326,-1.7326,-1.7527,-1.7527,-1.7333,-1.7326,-1.7326,-1.7326,-1.7621,-1.7908,-1.8087,-1.8381,-1.8566,-1.8735,-1.8735,-1.8735,-1.8827,-1.8827,-1.8827,-1.8827,-1.8827,-1.8827,-1.892,-1.9812,-2.0249,-2.0339,-2.0339,-2.0881,-2.1606,-2.0791,-2.1765,-2.3367,-2.4272,-2.454,-2.454,-2.454,-2.454,-2.454,-2.454,-2.454,-2.454,-2.454,-2.454,-2.454,-2.454,-2.454,-2.454,-2.454,-2.454,-2.454,-2.454,-2.454,-2.454,-2.454,-2.454,-2.454,-2.454,-2.454,-2.454,-2.454,-2.454,-2.454,-2.454,-2.454,-2.454,-2.454,-2.454,-2.454,-2.454,-2.4943,-2.5368,-2.5802,-2.6227,-2.6693,-2.7189,-2.72,-2.722,-2.7262,-2.7262,-2.7262,-2.7262,-2.7262,-2.7262,-2.7262,-2.7262,-2.7262,-2.7262,-2.7262,-2.7262,-2.7262,-2.7262,-2.7262,-2.7262,-2.7262,-2.7262,-2.7262,-1.7326,-1.7326,-1.7326,-1.7326,-1.7326,-1.7326,-1.7326,-1.7326,-1.7326,-1.7326,-1.7326,-1.7326,-1.7326,-1.7326,-1.7326,-1.7326,-1.7326,-1.7326,-1.7326,-1.7326,-1.7326,-1.7326,-1.7333,-1.7333,-1.7326,-1.7707,-1.79,-1.79,-1.7994,-1.7994,-1.8087,-1.8187,-1.828,-1.8574,-1.8574,-1.8658,-1.8827,-1.8827,-1.8827,-1.8827,-1.8827,-1.8827,-1.8827,-1.9004,-1.9629,-2.0339,-2.0339,-2.0881,-2.1784,-2.2296,-2.328,-2.4272,-2.4454,-2.454,-2.454,-2.454,-2.454,-2.454,-2.454,-2.454,-2.454,-2.454,-2.454,-2.454,-2.454,-2.454,-2.454,-2.454,-2.454,-2.454,-2.454,-2.454,-2.454,-2.454,-2.454,-2.454,-2.454,-2.454,-2.454,-2.454,-2.454,-2.454,-2.454,-2.454,-2.454,-2.454,-2.454,-2.454,-2.454,-2.4633,-2.4902,-2.5357,-2.5471,-2.5906,-2.6713,-2.6724,-2.69,-2.7262,-2.7262,-2.7262,-2.7262,-2.7262,-2.7262,-2.7262,-2.7262,-2.7262,-2.7262,-2.7262,-2.7262,-2.7262,-2.7262,-2.7262,-2.7262,-2.7262,-2.7262,-2.7262,-1.7326,-1.7326,-1.7326,-1.7326,-1.7326,-1.7326,-1.7326,-1.7326,-1.7326,-1.7326,-1.7326,-1.7326,-1.7326,-1.7326,-1.7326,-1.7326,-1.7326,-1.7326,-1.7326,-1.7326,-1.7326,-1.7326,-1.7326,-1.7326,-1.7326,-1.7613,-1.7707,-1.7707,-1.7707,-1.7893,-1.8087,-1.8087,-1.8272,-1.8651,-1.8651,-1.9012,-1.9546,-1.9546,-1.9546,-1.9546,-1.9546,-1.9271,-1.8827,-1.9363,-1.9803,-2.0339,-2.0799,-2.1248,-2.1872,-2.2746,-2.3454,-2.3907,-2.4358,-2.454,-2.454,-2.454,-2.454,-2.454,-2.454,-2.454,-2.454,-2.454,-2.454,-2.454,-2.454,-2.454,-2.454,-2.454,-2.454,-2.454,-2.454,-2.454,-2.454,-2.454,-2.454,-2.454,-2.454,-2.454,-2.454,-2.454,-2.454,-2.454,-2.454,-2.454,-2.454,-2.454,-2.454,-2.454,-2.454,-2.454,-2.4757,-2.5223,-2.5233,-2.5554,-2.6227,-2.6248,-2.6361,-2.661,-2.7044,-2.7262,-2.7262,-2.7262,-2.7262,-2.7262,-2.7262,-2.7262,-2.7262,-2.7262,-2.7262,-2.7262,-2.7262,-2.7262,-2.7262,-2.7262,-2.7262,-2.7262,-1.7326,-1.7326,-1.7326,-1.7326,-1.7326,-1.7326,-1.7326,-1.7326,-1.7326,-1.7326,-1.7326,-1.7326,-1.7326,-1.7326,-1.7326,-1.7326,-1.7326,-1.7326,-1.7326,-1.7326,-1.7326,-1.7326,-1.7326,-1.7326,-1.7326,-1.7326,-1.7326,-1.7326,-1.7326,-1.752,-1.7986,-1.7994,-1.8272,-1.8643,-1.8735,-1.9363,-2.0339,-2.0339,-2.043,-2.052,-2.052,-2.0076,-1.9363,-2.0076,-2.043,-2.061,-2.1427,-2.1872,-2.2315,-2.3105,-2.3367,-2.3454,-2.4272,-2.454,-2.454,-2.454,-2.454,-2.454,-2.454,-2.454,-2.454,-2.454,-2.454,-2.454,-2.454,-2.454,-2.454,-2.454,-2.454,-2.454,-2.454,-2.454,-2.454,-2.454,-2.454,-2.454,-2.454,-2.454,-2.454,-2.454,-2.454,-2.454,-2.454,-2.454,-2.454,-2.454,-2.454,-2.454,-2.454,-2.454,-2.4716,-2.5099,-2.5109,-2.5326,-2.5761,-2.5771,-2.5802,-2.5885,-2.6662,-2.7065,-2.7148,-2.722,-2.7262,-2.7262,-2.7262,-2.7262,-2.7262,-2.7262,-2.7262,-2.7262,-2.7262,-2.7262,-2.7251,-2.7169,-2.7086,-2.7024,-1.7326,-1.7326,-1.7326,-1.7326,-1.7326,-1.7326,-1.7326,-1.7326,-1.7326,-1.7326,-1.7326,-1.7326,-1.7326,-1.7326,-1.7326,-1.7326,-1.7326,-1.7326,-1.7326,-1.7326,-1.7326,-1.7326,-1.7326,-1.7326,-1.7326,-1.7326,-1.7326,-1.7326,-1.7326,-1.7333,-1.7426,-1.7621,-1.7908,-1.8179,-1.8473,-1.9196,-2.0339,-2.0339,-2.0799,-2.1516,-2.1516,-2.1427,-2.1248,-2.052,-2.0791,-2.1516,-2.1695,-2.2765,-2.41,-2.4272,-2.4272,-2.4358,-2.4454,-2.454,-2.454,-2.454,-2.454,-2.454,-2.454,-2.454,-2.454,-2.454,-2.454,-2.454,-2.454,-2.454,-2.454,-2.454,-2.454,-2.454,-2.454,-2.454,-2.454,-2.454,-2.454,-2.454,-2.454,-2.454,-2.454,-2.454,-2.454,-2.454,-2.454,-2.454,-2.454,-2.454,-2.454,-2.454,-2.454,-2.454,-2.4571,-2.4547,-2.4547,-2.4861,-2.5316,-2.5316,-2.5513,-2.5875,-2.6009,-2.6279,-2.6672,-2.7076,-2.7262,-2.7262,-2.7262,-2.7262,-2.7262,-2.7262,-2.7262,-2.7262,-2.7262,-2.7262,-2.721,-2.6806,-2.6413,-2.6061,-1.7326,-1.7326,-1.7326,-1.7326,-1.7326,-1.7326,-1.7326,-1.7326,-1.7326,-1.7326,-1.7326,-1.7326,-1.7326,-1.7326,-1.7326,-1.7326,-1.7326,-1.7326,-1.7326,-1.7326,-1.7333,-1.7527,-1.7426,-1.7426,-1.7707,-1.7621,-1.7621,-1.7707,-1.7419,-1.7419,-1.7707,-1.79,-1.8087,-1.8458,-1.8651,-1.9279,-2.0339,-2.0339,-2.052,-2.097,-2.1516,-2.1427,-2.0889,-2.106,-2.1338,-2.1784,-2.2306,-2.3377,-2.454,-2.454,-2.454,-2.454,-2.454,-2.454,-2.454,-2.454,-2.454,-2.454,-2.454,-2.454,-2.454,-2.454,-2.454,-2.454,-2.454,-2.454,-2.454,-2.454,-2.454,-2.454,-2.454,-2.454,-2.454,-2.454,-2.454,-2.454,-2.454,-2.454,-2.454,-2.454,-2.454,-2.454,-2.454,-2.454,-2.454,-2.454,-2.454,-2.454,-2.454,-2.454,-2.454,-2.454,-2.454,-2.4643,-2.484,-2.485,-2.4943,-2.513,-2.5388,-2.5751,-2.6196,-2.6392,-2.6486,-2.6486,-2.6486,-2.6486,-2.6486,-2.6486,-2.6486,-2.6486,-2.6486,-2.6486,-2.6465,-2.6258,-2.6051,-2.5875]},{"header":{"parameterUnit":"m.s-1","parameterCategory":1,"la1":30.6,"la2":28.766,"lo1":-90.7593,"lo2":-88.6598,"dy":0.0162,"dx":0.0183,"nx":116,"ny":114,"refTime":"2023-08-12T06:00:00:Z","depth":0,"parameterNumber":3,"parameterNumberName":"V-component_of_WINDS"},"data":[0.0,0.0,0.0,0.0,0.0,0.0,0.0,0.0,0.0,0.0,0.0,0.0,0.0,0.0,0.0,0.0,0.0,0.0,0.0,0.0,0.0,0.0,0.0,0.0,0.0,0.0,0.0,0.0,0.0,0.0,0.0,0.0,0.0,0.0,0.0,0.0,0.0,0.0,0.0,0.0,0.0,0.0,0.0,0.0,0.0,0.0,0.0,0.0,0.0,0.0,0.0,0.0,0.0,0.0,0.0,0.0,0.0,0.0,0.0,0.0,0.0,0.0,0.0,0.0,0.0,0.0,0.0,0.0,0.0,0.0,0.0,0.0,0.0,0.0,0.0,0.0,0.0,0.0,0.0,0.0,0.0,0.0,0.0,0.0,0.0,0.0,0.0,0.0,0.0,0.0,0.0,0.0,0.0,0.0,0.0,0.0,0.0,0.0,0.0,0.0,0.0,0.0,0.0,0.0,0.0,0.0,0.0,0.0,0.0,0.0,0.0,0.0,0.0,0.0,0.0,0.0,0.0,0.0,0.0,0.0,0.0,0.0,0.0,0.0,0.0,0.0,0.0,0.0,0.0,0.0,0.0,0.0,0.0,0.0,0.0,0.0,0.0,0.0,0.0,0.0,0.0,0.0,0.0,0.0,0.0,0.0,0.0,0.0,0.0,0.0,0.0,0.0,0.0,0.0,0.0,0.0,0.0,0.0,0.0,0.0,0.0,0.0,0.0,0.0,0.0,0.0,0.0,0.0,0.0,0.0,0.0,0.0,0.0,0.0,0.0,0.0,0.0,0.0,0.0,0.0,0.0,0.0,0.0,0.0,0.0,0.0,0.0,0.0,0.0,0.0,0.0,0.0,0.0,0.0,0.0,0.0,0.0,0.0,0.0,0.0,0.0,0.0,0.0,0.0,0.0,0.0,0.0,0.0,0.0,0.0,0.0,0.0,0.0,0.0,0.0,0.0,0.0,0.0,0.0,0.0,0.0,0.0,0.0,0.0,0.0,0.0,0.0,0.0,0.0,0.0,0.0,0.0,0.0,0.0,0.0,0.0,0.0,0.0,0.0,0.0,0.0,0.0,0.0,0.0,0.0,0.0,0.0,0.0,0.0,0.0,0.0,0.0,0.0,0.0,0.0,0.0,0.0,0.0,0.0,0.0,0.0,0.0,0.0,0.0,0.0,0.0,0.0,0.0,0.0,0.0,0.0,0.0,0.0,0.0,0.0,0.0,0.0,0.0,0.0,0.0,0.0,0.0,0.0,0.0,0.0,0.0,0.0,0.0,0.0,0.0,0.0,0.0,0.0,0.0,0.0,0.0,0.0,0.0,0.0,0.0,0.0,0.0,0.0,0.0,0.0,0.0,0.0,0.0,0.0,0.0,0.0,0.0,0.0,0.0,0.0,0.0,0.0,0.0,0.0,0.0,0.0,0.0,0.0,0.0,0.0,0.0,0.0,0.0,0.0,0.0,0.0,0.0,0.0,0.0,0.0,0.0,0.0,0.0,0.0,0.0,0.0,0.0,0.0,0.0,0.0,0.0,0.0,0.0,0.0,0.0,0.0,0.0,0.0,0.0,0.0,0.0,0.0,0.0,0.0,0.0,0.0,0.0,0.0,0.0,0.0,0.0,0.0,0.0,0.0,0.0,0.0,0.0,0.0,0.0,0.0,0.0,0.0,0.0,0.0,0.0,0.0,0.0,0.0,0.0,0.0,0.0,0.0,0.0,0.0,0.0,0.0,0.0,0.0,0.0,0.0,0.0,0.0,0.0,0.0,0.0,0.0,0.0,0.0,0.0,0.0,0.0,0.0,0.0,0.0,0.0,0.0,0.0,0.0,0.0,0.0,0.0,0.0,0.0,0.0,0.0,0.0,0.0,0.0,0.0,0.0,0.0,0.0,0.0,0.0,0.0,0.0,0.0,0.0,0.0,0.0,0.0,0.0,0.0,0.0,0.0,0.0,0.0,0.0,0.0,0.0,0.0,0.0,0.0,0.0,0.0,0.0,0.0,0.0,0.0,0.0,0.0,0.0,0.0,0.0,0.0,0.0,0.0,0.0,0.0,0.0,0.0,0.0,0.0,0.0,0.0,0.0,0.0,0.0,0.0,0.0,0.0,0.0,0.0,0.0,0.0,0.0,0.0,0.0,0.0,0.0,0.0,0.0,0.0,0.0,0.0,0.0,0.0,0.0,0.0,0.0,0.0,0.0,0.0,0.0,0.0,0.0,0.0,0.0,0.0,0.0,0.0,0.0,0.0,0.0,0.0,0.0,0.0,0.0,0.0,0.0,0.0,0.0,0.0,0.0,0.0,0.0,0.0,0.0,0.0,0.0,0.0,0.0,0.0,0.0,0.0,0.0,0.0,0.0,0.0,0.0,0.0,0.0,0.0,0.0,0.0,0.0,0.0,0.0,0.0,0.0,0.0,0.0,0.0,0.0,0.0,0.0,0.0,0.0,0.0,0.0,0.0,0.0,0.0,0.0,0.0,0.0,0.0,0.0,0.0,0.0,0.0,0.0,0.0,0.0,0.0,0.0,0.0,0.0,0.0,0.0,0.0,0.0,0.0,0.0,0.0,0.0,0.0,0.0,0.0,0.0,0.0,0.0,0.0,0.0,0.0,0.0,0.0,0.0,0.0,0.0,0.0,0.0,0.0,0.0,0.0,0.0,0.0,0.0,0.0,0.0,0.0,0.0,0.0,0.0,0.0,0.0,0.0,0.0,0.0,0.0,0.0,0.0,0.0,0.0,0.0,0.0,0.0,0.0,0.0,0.0,0.0,0.0,0.0,0.0,0.0,0.0,0.0,0.0,0.0,0.0,0.0,0.0,0.0,0.0,0.0,0.0,0.0,0.0,0.0,0.0,0.0,0.0,0.0,0.0,0.0,0.0,0.0,0.0,0.0,0.0,0.0,0.0,0.0,0.0,0.0,0.0,0.0,0.0,0.0,0.0,0.0,0.0,0.0,0.0,0.0,0.0,0.0,0.0,0.0,0.0,0.0,0.0,0.0,0.0,0.0,0.0,0.0,0.0,0.0,0.0,0.0,0.0,0.0,0.0,0.0,0.0,0.0,0.0,0.0,0.0,0.0,0.0,0.0,0.0,0.0,0.0,0.0,0.0,0.0,0.0,0.0,0.0,0.0,0.0,0.0,0.0,0.0,0.0,0.0,0.0,0.0,0.0,0.0,0.0,0.0,0.0,0.0,0.0,0.0,0.0,0.0,0.0,0.0,0.0,0.0,0.0,0.0,0.0,0.0,0.0,0.0,0.0,0.0,0.0,0.0,0.0,0.0,0.0,0.0,0.0,0.0,0.0,0.0,0.0,0.0,0.0,0.0,0.0,0.0,0.0,0.0,0.0,0.0,0.0,0.0,0.0,0.0,0.0,0.0,0.0,0.0,0.0,0.0,0.0,0.0,0.0,0.0,0.0,0.0,0.0,0.0,0.0,0.0,0.0,0.0,0.0,0.0,0.0,0.0,0.0,0.0,0.0,0.0,0.0,0.0,0.0,0.0,0.0,0.0,0.0,0.0,0.0,0.0,0.0,0.0,0.0,0.0,0.0,0.0,0.0,0.0,0.0,0.0,0.0,0.0,0.0,0.0,0.0,0.0,0.0,0.0,0.0,0.0,0.0,0.0,0.0,0.0,0.0,0.0,0.0,0.0,0.0,0.0,0.0,0.0,0.0,0.0,0.0,0.0,0.0,0.0,0.0,0.0,0.0,0.0,0.0,0.0,0.0,0.0,0.0,0.0,0.0,0.0,0.0,0.0,0.0,0.0,0.0,0.0,0.0,0.0,0.0,0.0,0.0,0.0,0.0,0.0,0.0,0.0,0.0,0.0,0.0,0.0,0.0,0.0,0.0,0.0,0.0,0.0,0.0,0.0,0.0,0.0,0.0,0.0,0.0,0.0,0.0,0.0,0.0,0.0,0.0,0.0,0.0,0.0,0.0,0.0,0.0,0.0,0.0,0.0,0.0,0.0,0.0,0.0,0.0,0.0,0.0,0.0,0.0,0.0,0.0,0.0,0.0,0.0,0.0,0.0,0.0,0.0,0.0,0.0,0.0,0.0,0.0,0.0,0.0,0.0,0.0,0.0,0.0,0.0,0.0,0.0,0.0,0.0,0.0,0.0,0.0,0.0,0.0,0.0,0.0,0.0,0.0,0.0,0.0,0.0,0.0,0.0,0.0,0.0,0.0,0.0,0.0,0.0,0.0,0.0,0.0,0.0,0.0,0.0,0.0,0.0,0.0,0.0,0.0,0.0,0.0,0.0,0.0,0.0,0.0,0.0,0.0,0.0,0.0,0.0,0.0,0.0,0.0,0.0,0.0,0.0,0.0,0.0,0.0,0.0,0.0,0.0,0.0,0.0,0.0,0.0,0.0,0.0,0.0,0.0,0.0,0.0,0.0,0.0,0.0,0.0,0.0,0.0,0.0,0.0,0.0,0.0,0.0,0.0,0.0,0.0,0.0,0.0,0.0,0.0,0.0,0.0,0.0,0.0,0.0,0.0,0.0,0.0,0.0,0.0,0.0,0.0,0.0,0.0,0.0,0.0,0.0,0.0,0.0,0.0,0.0,0.0,0.0,0.0,0.0,0.0,0.0,0.0,0.0,0.0,0.0,0.0,0.0,0.0,0.0,0.0,0.0,0.0,0.0,0.0,0.0,0.0,0.0,0.0,0.0,0.0,0.0,0.0,0.0,0.0,0.0,0.0,0.0,0.0,0.0,0.0,0.0,0.0,0.0,0.0,0.0,0.0,0.0,0.0,0.0,0.0,0.0,0.0,0.0,0.0,0.0,0.0,0.0,0.0,0.0,0.0,0.0,0.0,0.0,0.0,0.0,0.0,0.0,0.0,0.0,0.0,0.0,0.0,0.0,0.0,0.0,0.0,0.0,0.0,0.0,0.0,0.0,0.0,0.0,0.0,0.0,0.0,0.0,0.0,0.0,0.0,0.0,0.0,0.0,0.0,0.0,0.0,0.0,0.0,0.0,0.0,0.0,0.0,0.0,0.0,0.0,0.0,0.0,0.0,0.0,0.0,0.0,0.0,0.0,0.0,0.0,0.0,0.0,0.0,0.0,0.0,0.0,0.0,0.0,0.0,0.0,0.0,0.0,0.0,0.0,0.0,0.0,0.0,0.0,0.0,0.0,0.0,0.0,0.0,0.0,0.0,0.0,0.0,0.0,0.0,0.0,0.0,0.0,0.0,0.0,0.0,0.0,0.0,0.0,0.0,0.0,0.0,0.0,0.0,0.0,0.0,0.0,0.0,0.0,0.0,0.0,0.0,0.0,0.0,0.0,0.0,0.0,0.0,0.0,0.0,0.0,0.0,0.0,0.0,0.0,0.0,0.0,0.0,0.0,0.0,0.0,0.0,0.0,0.0,0.0,0.0,0.0,0.0,0.0,0.0,0.0,0.0,0.0,0.0,0.0,0.0,0.0,0.0,0.0,0.0,0.0,0.0,0.0,0.0,0.0,0.0,0.0,0.0,0.0,0.0,0.0,0.0,0.0,0.0,0.0,0.0,0.0,0.0,0.0,0.0,0.0,0.0,0.0,0.0,0.0,0.0,0.0,0.0,0.0,0.0,0.0,0.0,0.0,0.0,0.0,0.0,0.0,0.0,0.0,0.0,0.0,0.0,0.0,0.0,0.0,0.0,0.0,0.0,0.0,0.0,0.0,0.0,0.0,0.0,0.0,0.0,0.0,0.0,0.0,0.0,0.0,0.0,0.0,0.0,0.0,0.0,0.0,0.0,0.0,0.0,0.0,0.0,0.0,0.0,0.0,0.0,0.0,0.0,0.0,0.0,0.0,0.0,0.0,0.0,0.0,0.0,0.0,0.0,0.0,0.0,0.0,0.0,0.0,0.0,0.0,0.0,0.0,0.0,0.0,0.0,0.0,0.0,0.0,0.0,0.0,0.0,0.0,0.0,0.0,0.0,0.0,0.0,0.0,0.0,0.0,0.0,0.0,0.0,0.0,0.0,0.0,0.0,0.0,0.0,0.0,0.0,0.0,0.0,0.0,0.0,0.0,0.0,0.0,0.0,0.0,0.0,0.0,0.0,0.0,0.0,0.0,0.0,0.0,0.0,0.0,0.0,0.0,0.0,-5.0072,0.0,0.0,0.0,0.0,0.0,0.0,0.0,0.0,0.0,0.0,0.0,0.0,0.0,0.0,0.0,0.0,0.0,0.0,0.0,0.0,0.0,0.0,0.0,0.0,0.0,0.0,0.0,0.0,0.0,0.0,0.0,0.0,0.0,0.0,0.0,0.0,0.0,0.0,0.0,0.0,0.0,0.0,0.0,0.0,0.0,0.0,0.0,0.0,0.0,0.0,0.0,0.0,0.0,0.0,0.0,0.0,0.0,0.0,0.0,0.0,0.0,0.0,0.0,0.0,0.0,0.0,0.0,0.0,0.0,0.0,0.0,0.0,0.0,0.0,0.0,0.0,0.0,0.0,0.0,0.0,0.0,0.0,0.0,0.0,0.0,0.0,0.0,0.0,0.0,0.0,0.0,0.0,0.0,0.0,0.0,0.0,0.0,0.0,0.0,0.0,0.0,0.0,0.0,0.0,0.0,0.0,0.0,0.0,0.0,0.0,0.0,0.0,0.0,0.0,0.0,0.0,-5.0466,0.0,0.0,0.0,0.0,0.0,0.0,0.0,0.0,0.0,0.0,0.0,0.0,0.0,0.0,0.0,0.0,0.0,0.0,0.0,0.0,0.0,0.0,0.0,0.0,0.0,0.0,0.0,0.0,0.0,0.0,0.0,0.0,0.0,0.0,0.0,0.0,0.0,0.0,0.0,0.0,0.0,0.0,0.0,0.0,0.0,0.0,0.0,0.0,0.0,0.0,0.0,0.0,0.0,0.0,0.0,0.0,0.0,0.0,0.0,0.0,0.0,0.0,0.0,0.0,0.0,0.0,0.0,0.0,0.0,0.0,0.0,0.0,0.0,0.0,0.0,0.0,0.0,0.0,0.0,0.0,0.0,0.0,0.0,0.0,0.0,0.0,0.0,0.0,0.0,0.0,0.0,0.0,0.0,0.0,0.0,0.0,0.0,0.0,0.0,0.0,0.0,0.0,0.0,0.0,0.0,0.0,0.0,0.0,0.0,-5.1178,-5.1275,-5.1197,-5.12,-5.1294,-5.134,-5.1386,-5.1408,0.0,0.0,0.0,0.0,0.0,0.0,0.0,0.0,0.0,0.0,0.0,0.0,0.0,0.0,0.0,0.0,0.0,0.0,0.0,0.0,0.0,0.0,0.0,0.0,0.0,0.0,0.0,0.0,0.0,0.0,0.0,0.0,0.0,0.0,0.0,0.0,0.0,0.0,0.0,-0.2316,-0.1508,0.0,0.2316,0.5899,0.0,0.0,0.0,0.0,0.0,0.0,0.0,0.0,0.0,0.0,0.0,0.0,0.0,0.0,0.0,0.0,0.0,0.0,0.0,0.0,0.0,0.0,0.0,0.0,0.0,0.0,0.0,0.0,0.0,0.0,0.0,0.0,0.0,0.0,0.0,0.0,0.0,0.0,0.0,0.0,0.0,0.0,0.0,-5.0772,-5.1199,0.0,0.0,0.0,0.0,0.0,0.0,0.0,0.0,0.0,0.0,0.0,0.0,0.0,0.0,-5.0813,-5.0812,-5.0902,-5.1099,-5.115,-5.1205,-5.1212,-5.1308,-5.1308,-5.1219,-5.1291,0.0,-5.1403,-5.1384,0.0,0.0,0.0,0.0,0.0,0.0,0.0,0.0,0.0,0.0,0.0,0.0,0.0,0.0,0.0,0.0,0.0,0.0,0.0,0.0,0.0,0.0,0.0,0.0,0.0,0.0,0.0,0.0,0.0,0.0,0.0,0.0,0.0,0.0,0.0,0.0,-0.9399,-0.6819,-0.3324,-0.2815,-0.1307,0.1108,0.4212,0.6606,0.8396,1.056,0.0,0.0,0.0,0.0,0.0,0.0,0.0,0.0,0.0,0.0,0.0,0.0,0.0,0.0,0.0,0.0,0.0,0.0,0.0,0.0,0.0,0.0,0.0,0.0,0.0,0.0,0.0,0.0,0.0,0.0,0.0,0.0,0.0,0.0,0.0,0.0,0.0,0.0,0.0,-4.9444,-5.0631,-5.0927,-5.1228,-5.1316,0.0,0.0,0.0,0.0,0.0,0.0,0.0,0.0,0.0,-5.0603,-5.0623,-5.0683,-5.0738,-5.0793,-5.0866,-5.099,-5.1058,-5.1121,-5.1159,-5.124,-5.1284,-5.1257,-5.1281,-5.1317,-5.1347,-5.1333,-5.1365,-5.1405,0.0,0.0,0.0,0.0,0.0,-5.1394,0.0,0.0,0.0,0.0,0.0,0.0,0.0,0.0,0.0,0.0,0.0,0.0,0.0,0.0,0.0,-1.9188,0.0,0.0,0.0,0.0,0.0,0.0,0.0,0.0,0.0,0.0,0.0,-1.0635,-0.9891,-0.772,-0.4234,-0.3823,-0.2111,0.0705,0.3316,0.5518,0.7208,0.9579,1.1551,0.0,0.0,0.0,0.0,0.0,0.0,0.0,0.0,0.0,0.0,0.0,0.0,0.0,0.0,0.0,0.0,0.0,0.0,0.0,0.0,0.0,0.0,0.0,0.0,0.0,0.0,0.0,0.0,0.0,0.0,0.0,0.0,0.0,0.0,0.0,0.0,0.0,0.0,-4.9738,-5.0329,-5.0629,-5.1073,-5.1301,0.0,0.0,0.0,0.0,0.0,0.0,-5.0736,-5.0682,-5.0645,-5.0625,-5.0702,-5.074,-5.0739,-5.0775,-5.0844,-5.0929,-5.0995,-5.1069,-5.1128,-5.1191,-5.1256,-5.13,-5.1308,-5.1323,-5.1323,-5.1312,-5.134,-5.1406,-5.1344,-5.1367,-5.1404,-5.1404,-5.1396,-5.1394,0.0,0.0,0.0,0.0,0.0,0.0,0.0,0.0,0.0,0.0,0.0,0.0,0.0,0.0,-1.9188,-1.9188,-1.9828,-2.0464,0.0,0.0,0.0,0.0,0.0,0.0,0.0,0.0,0.0,-1.219,-1.117,-0.8711,-0.4734,-0.3919,-0.1907,0.1308,0.3718,0.5522,0.7012,1.0467,1.215,1.2635,0.0,0.0,0.0,0.0,0.0,0.0,0.0,0.0,0.0,0.0,0.0,0.0,0.0,0.0,0.0,0.0,0.0,0.0,0.0,0.0,0.0,0.0,0.0,0.0,0.0,0.0,0.0,0.0,0.0,0.0,0.0,0.0,0.0,0.0,0.0,0.0,0.0,0.0,0.0,-5.0481,-5.0975,0.0,0.0,0.0,0.0,-5.0811,-5.0792,-5.079,-5.079,-5.0801,-5.0755,-5.0696,-5.075,-5.0789,-5.0793,-5.0793,-5.0858,-5.099,-5.1069,-5.1128,-5.1211,-5.1261,-5.1296,-5.13,-5.1375,-5.1394,-5.1394,-5.1323,-5.1341,-5.1406,-5.1406,-5.139,-5.1398,-5.1398,-5.1394,-5.1394,0.0,0.0,0.0,0.0,0.0,0.0,0.0,0.0,0.0,0.0,0.0,0.0,0.0,-1.9012,-1.9554,-1.992,-2.0555,-2.1186,-2.1642,0.0,0.0,0.0,0.0,0.0,0.0,0.0,-1.4626,-1.3064,-1.0858,-0.851,-0.6032,-0.4223,-0.211,0.0301,0.372,0.7759,1.2111,1.1184,1.117,1.1955,1.3318,1.5927,0.0,0.0,0.0,0.0,0.0,0.0,0.0,0.0,0.0,0.0,0.0,0.0,0.0,0.0,0.0,0.0,0.0,0.0,0.0,0.0,0.0,0.0,0.0,0.0,0.0,0.0,0.0,0.0,0.0,0.0,0.0,0.0,0.0,0.0,0.0,0.0,0.0,-5.0534,-5.0953,0.0,0.0,-5.1225,-5.1164,-5.1133,-5.1042,-5.0985,-5.0991,-5.092,-5.0879,-5.0884,-5.142,-5.173,-5.1765,-5.223,-5.2534,-5.2671,-5.2751,-5.2811,-5.2884,-5.2937,-5.2967,-5.298,-5.3007,-5.3039,-5.3069,-5.3044,-5.2391,-5.141,-5.141,-5.139,-5.1394,-5.1394,-5.1394,-5.1394,0.0,0.0,0.0,0.0,0.0,0.0,0.0,0.0,0.0,0.0,0.0,-2.0085,-1.902,-1.9471,-2.0011,-2.0464,-2.1186,-2.1731,-2.2097,0.0,0.0,0.0,0.0,0.0,0.0,-1.6749,-1.5019,-1.3454,-1.1249,-0.8901,-0.6528,-0.4826,-0.2512,0.0502,0.3721,0.7937,1.2489,1.2693,1.4476,1.7157,1.8176,2.094,2.4286,0.0,0.0,0.0,0.0,0.0,0.0,0.0,0.0,0.0,0.0,0.0,0.0,0.0,0.0,0.0,0.0,0.0,0.0,0.0,0.0,0.0,0.0,0.0,0.0,0.0,0.0,0.0,0.0,0.0,0.0,0.0,0.0,0.0,0.0,0.0,-5.0139,-5.0486,-5.0909,-5.1215,-5.1324,-5.1304,-5.1308,-5.1336,-5.1238,-5.1162,-5.1171,-5.1375,-5.1508,-5.1517,-5.2304,-5.2731,-5.2729,-5.324,-5.3546,-5.3624,-5.3689,-5.3777,-5.3847,-5.3888,-5.391,-5.3903,-5.3916,-5.3967,-5.3996,-5.3996,-5.3323,-5.2273,-5.2273,-5.2273,-5.2273,-5.2273,-5.2273,-5.2269,0.0,0.0,0.0,0.0,0.0,0.0,0.0,0.0,0.0,0.0,-2.106,-2.1248,-1.982,-2.0102,-2.0555,-2.0988,-2.1722,-2.2097,-2.2097,-2.2539,0.0,0.0,0.0,0.0,-1.9188,-1.7512,-1.5602,-1.355,-1.2441,-0.9891,-0.6029,-0.5927,-0.3107,0.2008,0.3924,0.5715,0.7664,1.5064,2.2001,2.8101,2.9025,2.9368,2.9179,0.0,0.0,0.0,0.0,0.0,0.0,0.0,0.0,0.0,0.0,0.0,0.0,0.0,0.0,0.0,0.0,0.0,0.0,0.0,0.0,0.0,0.0,0.0,0.0,0.0,0.0,0.0,0.0,0.0,0.0,0.0,0.0,0.0,-4.8581,-4.9447,-5.0106,-5.0394,-5.0821,-5.1132,-5.1199,-5.1268,-5.1346,-5.1437,-5.1379,-5.1347,-5.1336,-5.2207,-5.2623,-5.2464,-5.3321,-5.3699,-5.3571,-5.3664,-5.3693,-5.3701,-5.3777,-5.3847,-5.3892,-5.3897,-5.3904,-5.391,-5.3972,-5.4006,-5.3996,-5.4006,-5.401,-5.401,-5.401,-5.401,-5.401,-5.401,-5.401,-5.3982,0.0,0.0,0.0,0.0,0.0,0.0,0.0,0.0,0.0,0.0,-2.3153,-2.2639,-2.1747,-2.1587,-2.1596,-2.1686,-2.2069,-2.2441,-2.2627,0.0,0.0,0.0,0.0,0.0,-1.892,-1.7606,-1.5974,-1.4034,-1.2022,-0.9788,-0.7434,-0.5022,-0.2912,-0.0803,0.3927,0.619,0.7057,1.3776,2.2944,3.2804,3.0374,2.8836,2.7911,0.0,0.0,0.0,0.0,0.0,0.0,0.0,0.0,0.0,0.0,0.0,0.0,0.0,0.0,0.0,0.0,0.0,0.0,0.0,0.0,0.0,0.0,0.0,0.0,0.0,0.0,0.0,0.0,0.0,0.0,0.0,0.0,-4.7415,-4.8428,-4.9294,-5.0096,-5.0758,-5.0953,-5.1109,-5.1327,-5.1361,-5.164,-5.2285,-5.2331,-5.2331,-5.2312,-5.2552,-5.2386,-5.1718,-5.2504,-5.2914,-5.2874,-5.3425,-5.3727,-5.3758,-5.3799,-5.3827,-5.3891,-5.3891,-5.391,-5.3904,-5.3977,-5.401,-5.4006,-5.401,-5.401,-5.401,-5.401,-5.401,-5.401,-5.401,-5.401,-5.406,0.0,0.0,0.0,0.0,0.0,0.0,0.0,0.0,0.0,0.0,-2.5041,-2.4438,-2.367,-2.3507,-2.3191,-2.2824,-2.3357,-2.3464,-2.2969,0.0,0.0,0.0,0.0,-2.0357,-1.8743,-1.7606,-1.6264,-1.4899,-1.2501,-1.0369,-0.8319,-0.6022,-0.3815,-0.1506,0.2715,0.5263,0.7006,1.6095,2.4253,3.1069,3.1555,3.1269,3.0598,3.0696,3.0446,3.0577,3.4508,3.2674,3.0211,4.2095,0.0,0.0,0.0,0.0,0.0,0.0,0.0,0.0,0.0,0.0,0.0,0.0,0.0,0.0,0.0,0.0,0.0,0.0,0.0,0.0,0.0,0.0,0.0,0.0,-4.6952,-4.8024,-4.895,-4.9488,-5.0111,-5.0908,-5.1319,-5.1648,-5.1913,-5.1935,-5.214,-5.2629,-5.2342,-5.2136,-5.2119,-5.2487,-5.2474,-5.196,-5.2743,-5.3162,-5.3136,-5.3591,-5.3808,-5.3797,-5.3837,-5.3864,-5.3904,-5.391,-5.3891,0.0,-5.3962,-5.401,-5.401,-5.401,-5.401,0.0,0.0,0.0,0.0,0.0,-5.5083,-5.5133,0.0,0.0,0.0,0.0,0.0,0.0,0.0,0.0,0.0,0.0,0.0,-2.6678,-2.5788,-2.5705,-2.5249,-2.4276,-2.5199,-2.5199,0.0,0.0,0.0,-2.115,-2.1248,-2.0628,-1.8843,-1.7792,-1.6828,-1.5859,-1.3669,-1.1341,-0.8886,-0.7925,-0.542,-0.1607,0.0803,0.3521,0.7107,1.8495,2.4172,2.5947,3.0864,3.3729,3.4998,3.4506,3.4485,3.4721,3.4756,3.4011,3.4188,4.2091,0.0,0.0,0.0,0.0,0.0,0.0,0.0,0.0,0.0,0.0,0.0,0.0,0.0,0.0,0.0,0.0,0.0,0.0,0.0,0.0,0.0,0.0,0.0,0.0,-4.7622,-4.9177,-4.997,-4.9995,-5.0259,-5.1106,-5.187,-5.2397,-5.2645,-5.2605,-5.2569,-5.2593,-5.1952,-5.1522,-5.1444,0.0,0.0,0.0,0.0,-5.3683,-5.3625,-5.3676,-5.3649,-5.3536,-5.3689,-5.3752,-5.3752,-5.3858,-5.3891,-5.3891,-5.3977,-5.4006,-5.3986,-5.3986,-5.4045,-5.4201,-5.4888,-5.5142,-5.524,-5.602,-5.6367,0.0,0.0,0.0,0.0,0.0,0.0,0.0,0.0,0.0,0.0,-3.0338,-2.9643,-2.895,-2.8385,-2.8009,-2.7519,-2.6814,-2.7415,-2.7631,0.0,0.0,-2.4669,-2.4008,-2.2648,-2.1606,-2.0799,-1.9613,-1.8118,-1.6317,-1.4886,-1.2576,-0.9387,-0.8117,-0.6739,-0.5249,-0.1307,0.2616,0.6542,0.9013,1.6093,2.5158,2.1255,2.5954,3.4759,2.9665,2.7866,2.7927,2.687,2.6379,2.7251,3.4099,3.5366,3.5434,4.3197,0.0,0.0,0.0,0.0,0.0,0.0,0.0,0.0,0.0,0.0,0.0,0.0,0.0,0.0,0.0,0.0,0.0,0.0,0.0,0.0,-4.792,-4.8969,-4.9919,-5.1111,-5.099,-5.1218,-5.2396,-5.238,-5.2355,-5.2516,-5.1996,-5.1917,-5.2542,-5.2511,-5.2422,-5.2341,-5.2568,0.0,-5.1668,-5.1801,-5.1909,-5.1874,-5.1894,-5.1893,-5.1867,0.0,0.0,-5.2885,-5.3576,-5.3904,-5.3891,-5.3961,-5.3967,-5.3916,-5.3916,-5.4326,-5.4917,-5.4431,-5.4244,-5.4264,-5.4439,-5.4878,-5.5361,0.0,0.0,0.0,0.0,0.0,0.0,0.0,0.0,0.0,0.0,-3.382,-3.3419,-3.2925,-3.2617,-3.1972,-3.0824,-2.9982,0.0,0.0,-2.785,-2.6464,-2.581,-2.4279,-2.3114,-2.2475,-2.0836,-1.9405,-1.7995,-1.5738,-1.3454,-1.1146,-0.8905,-0.7441,-0.6253,-0.2613,0.1106,0.4912,0.5911,1.1977,2.0771,2.0901,2.6849,3.5249,3.2065,3.098,3.1506,3.4214,3.2609,3.0434,3.8154,3.8021,3.6029,4.4266,4.659,4.4089,0.0,0.0,0.0,0.0,0.0,0.0,0.0,0.0,0.0,0.0,0.0,0.0,0.0,0.0,-4.0338,0.0,0.0,-4.6176,-4.8276,-4.9543,-5.0595,-5.1484,-5.1907,-5.217,-5.2254,-5.223,-5.2279,-5.2417,-5.2119,-5.2076,-5.2516,-5.2221,-5.1974,-5.1955,-5.2011,-5.1843,-5.1414,-5.1821,-5.2048,-5.2051,-5.2476,-5.2709,-5.2713,-5.3068,-5.324,-5.3276,-5.3707,-5.3891,-5.3903,-5.3949,-5.3936,-5.3904,-5.3904,-5.4158,-5.4515,-5.4103,-5.4479,-5.526,-5.526,-5.5411,-5.5628,0.0,0.0,0.0,0.0,0.0,0.0,0.0,0.0,0.0,0.0,-3.7677,-3.7633,-3.7161,-3.691,-3.6295,0.0,0.0,0.0,0.0,-3.0232,-2.8631,-2.7818,-2.6248,-2.5082,-2.4302,-2.2543,-2.1087,-2.0017,-1.7022,-1.4677,-1.2978,-1.0079,-0.7925,-0.6234,-0.3516,-0.0502,0.2788,0.5281,1.0417,1.7112,2.2052,2.9616,3.763,3.468,3.4453,3.6457,4.2213,4.0034,3.555,4.2858,4.1915,3.8891,4.5876,4.7776,4.4693,3.0622,2.7542,0.0,0.0,0.0,0.0,0.0,0.0,0.0,0.0,0.0,-3.552,-3.733,-3.914,-4.1059,-4.3537,-4.4867,-4.6352,-4.8574,-5.0093,-5.1192,-5.1828,-5.2733,-5.2958,-5.2039,-5.2011,-5.2152,-5.2344,-5.2219,-5.2182,-5.2242,-5.1666,-5.1361,-5.1518,-5.1594,-5.1717,-5.1882,-5.258,-5.2945,-5.2949,-5.3649,-5.3991,-5.399,-5.412,-5.4174,-5.4157,-5.4326,-5.4417,-5.4403,-5.4417,-5.4404,-5.4404,-5.4404,-5.4404,-5.4404,-5.4351,-5.5202,-5.6391,-5.6086,-5.593,-5.5845,0.0,0.0,0.0,0.0,0.0,0.0,0.0,0.0,0.0,0.0,0.0,0.0,0.0,0.0,0.0,0.0,0.0,0.0,-3.5691,-3.3064,-3.1379,-3.1229,-2.9224,-2.7667,-2.6744,-2.5876,-2.4248,-2.2026,-2.0078,-1.7405,-1.3987,-1.1419,-0.8799,-0.6337,-0.4024,-0.1813,0.0604,0.4722,1.1365,1.9104,1.7864,2.8718,4.4184,3.063,2.9161,3.4603,3.6939,3.6671,3.5522,3.7298,4.186,4.6959,4.7757,4.7853,4.3483,2.2078,0.0,2.3787,0.401,-0.4597,-0.8603,-1.1374,-2.0509,-2.971,0.0,0.0,-3.6565,-3.8626,-4.0716,-4.2929,-4.5263,-4.6778,-4.8377,-5.0822,-5.1468,-5.1921,-5.2986,-5.3232,-5.3239,-5.3123,-5.2407,-5.2,-5.2201,-5.1637,-5.1258,-5.1347,-5.1316,-5.1616,-5.2329,-5.2436,-5.2812,-5.3604,-5.376,-5.3854,-5.3848,-5.3945,-5.3999,-5.4006,-5.4783,-5.5115,-5.5084,-5.5868,-5.6199,-5.6219,-5.6219,-5.6199,-5.6199,-5.6215,-5.6215,-5.6191,-5.6007,-5.6061,-5.6057,-5.4547,-5.4297,-5.4688,0.0,0.0,0.0,0.0,0.0,0.0,0.0,0.0,0.0,0.0,0.0,0.0,0.0,0.0,0.0,0.0,0.0,0.0,-3.821,-3.5876,-3.4347,-3.3999,-3.1864,-3.0384,-2.9642,-2.7681,-2.5616,-2.3629,-2.0944,-1.8148,-1.5044,-1.2297,-0.9686,-0.7226,-0.4414,-0.2009,0.0201,0.3225,1.0388,1.9759,2.1391,2.672,3.3474,3.1474,2.635,2.0757,2.5316,2.6683,0.0,0.0,3.2411,3.8761,3.2394,3.4329,3.4227,1.0435,0.5952,0.0,-1.3483,-1.4218,-1.2004,0.0,-2.7899,-3.2803,-3.5125,-3.6862,-3.8416,-4.0204,-4.2359,-4.4601,-4.6827,-4.8292,-4.9974,0.0,-5.2973,-5.3356,-5.4503,-5.4578,-5.457,-5.457,-5.4207,-5.362,-5.28,-5.2514,-5.2429,-5.2518,-5.2638,-5.2855,-5.3241,-5.3331,-5.3525,-5.3893,-5.4467,-5.4752,-5.4765,-5.5253,-5.5501,-5.5528,-5.5836,-5.5976,-5.5966,-5.6333,-5.6496,-5.6503,-5.6503,-5.6503,-5.6503,-5.6492,-5.6492,-5.6474,-5.6286,-5.6135,-5.5951,-5.5244,-5.5064,-5.515,0.0,0.0,0.0,0.0,0.0,0.0,0.0,0.0,0.0,0.0,0.0,0.0,0.0,0.0,0.0,0.0,0.0,0.0,0.0,-3.8463,-3.7006,-3.623,-3.4354,-3.2877,-3.1938,-2.9694,-2.7566,-2.5655,-2.2496,-1.9577,-1.6979,-1.3724,-1.0951,-0.8499,-0.5497,-0.2703,0.01,0.4482,1.2675,2.2683,2.4805,2.6322,2.7387,2.8156,2.0735,1.0869,1.8044,1.9043,0.0,0.0,2.6148,2.8544,2.355,2.4395,2.3085,0.1909,-0.7517,-1.3648,-2.5127,0.0,0.0,-2.9268,-3.2889,-3.4166,-3.6219,-3.799,-3.9678,-4.1551,-4.3692,-4.5972,-4.801,-4.9591,-5.1315,-5.3531,-5.4059,-5.4481,-5.5485,-5.573,-5.5819,-5.5819,-5.5996,-5.5574,-5.4207,-5.3781,-5.355,-5.3507,-5.3577,-5.3778,-5.4081,-5.4168,-5.432,-5.4589,-5.5267,-5.5638,-5.5664,-5.6288,-5.658,-5.656,-5.6521,-5.6493,-5.6504,-5.6498,-5.6503,-5.6503,-5.6503,-5.6503,-5.6503,-5.6437,-5.6427,-5.6398,-5.6135,-5.5949,-5.5807,-5.5789,-5.5668,-5.5558,0.0,0.0,0.0,0.0,0.0,0.0,0.0,0.0,0.0,0.0,0.0,0.0,0.0,0.0,0.0,0.0,0.0,0.0,0.0,-4.0537,-3.9261,-3.7915,-3.6628,-3.5091,-3.3182,-3.2524,-3.0878,-2.8287,-2.5435,-2.2832,-2.0464,-1.6133,-1.2667,-0.9943,-0.7875,-0.4598,-0.0099,1.0126,2.0421,2.9543,2.5803,2.8575,3.3303,1.7149,1.0226,1.0372,1.9243,0.0,0.0,0.0,2.7525,1.992,2.9437,2.3798,0.0,-0.1088,-1.4923,-2.6691,-2.8946,0.0,-3.0939,-3.2744,-3.3993,-3.5259,-3.7335,-3.8496,-3.9876,-4.2067,-4.4463,-4.6697,-4.868,-5.0719,-5.2427,-5.3727,-5.4381,-5.4971,-5.553,-5.6195,-5.6681,-5.6681,-5.7362,-5.7466,0.0,-5.5135,-5.4071,-5.353,-5.3503,-5.3901,-5.4821,-5.4937,-5.538,-5.6309,-5.6417,-5.6484,-5.6562,-5.6598,-5.6573,-5.6495,-5.6495,-5.6504,-5.6509,-5.6496,-5.6503,-5.6503,-5.6503,-5.6503,-5.6483,-5.6294,-5.6207,-5.6168,-5.5769,-5.5609,-5.5585,-5.547,-5.5428,-5.5403,0.0,0.0,0.0,0.0,0.0,0.0,0.0,0.0,0.0,0.0,0.0,0.0,0.0,0.0,0.0,0.0,0.0,0.0,0.0,-4.1967,-4.0717,-3.9662,-3.8357,-3.7014,-3.551,-3.4479,-3.2626,-2.9847,-2.7885,-2.4794,-2.0642,-1.8573,-1.5551,-1.1711,-0.9429,-0.7267,-0.4779,0.1588,0.9606,1.807,1.6797,1.7236,1.7956,1.1254,0.4835,-0.0597,0.0,0.0,0.0,0.0,0.0,0.0,0.033,0.0,-0.1145,-1.5096,-2.3539,-2.8465,-2.9122,-3.0359,-3.1677,-3.2678,-3.3871,-3.5522,-3.8121,-3.9357,-4.065,-4.3581,-4.5889,-4.8035,-5.0091,-5.2114,-5.3965,-5.5274,-5.5947,-5.6594,-5.7451,-5.803,-5.8443,-5.874,-5.9212,0.0,0.0,0.0,0.0,-5.5073,-5.4975,-5.5197,-5.5719,-5.5787,-5.5991,-5.6387,-5.6469,-5.6523,-5.6601,-5.6606,-5.6543,-5.6426,-5.6439,-5.6472,-5.6496,-5.65,-5.6503,-5.6503,-5.6503,-5.6407,-5.6294,-5.6239,-5.6121,-5.5982,-5.5711,-5.5607,-5.5585,-5.5446,-5.5403,-5.5403,0.0,0.0,0.0,0.0,0.0,0.0,0.0,0.0,0.0,0.0,0.0,0.0,0.0,0.0,0.0,0.0,0.0,0.0,0.0,0.0,-4.2335,-4.1399,-4.0216,-3.9024,-3.7975,-3.6704,-3.4846,-3.2417,-3.0134,-2.7018,-2.3133,-2.0784,-1.7674,-1.3915,-1.1763,-0.9633,-0.7263,-0.1666,0.4365,1.0217,1.0379,0.9482,0.7756,0.3939,-0.1839,0.0,0.0,0.0,0.0,0.0,0.0,0.0,0.0,-1.2869,-1.4291,-2.4221,-2.8249,-2.9428,-2.9533,-3.066,-3.1971,-3.2967,-3.4362,-3.6106,-3.8289,-3.9519,-4.1071,-4.4378,-4.6713,-4.8898,-5.1076,-5.34,-5.5227,-5.6111,-5.6912,-5.7624,-5.8176,-5.8732,-5.9159,-5.9359,-5.9893,0.0,0.0,0.0,0.0,-5.6209,-5.5844,-5.5788,-5.6141,-5.6149,-5.623,-5.6346,-5.6418,-5.6476,-5.6601,-5.6601,-5.6534,-5.6391,-5.6369,-5.6396,-5.6426,-5.6483,-5.6503,-5.6503,-5.6427,-5.6317,-5.6181,-5.6044,-5.5896,-5.5789,-5.5583,-5.5531,-5.5508,-5.5415,-5.5403,-5.5403,0.0,0.0,0.0,0.0,0.0,0.0,0.0,0.0,0.0,0.0,0.0,0.0,0.0,0.0,0.0,0.0,0.0,0.0,0.0,0.0,0.0,-4.3005,-4.2102,-4.1225,-4.0403,-3.911,-3.7623,-3.5888,-3.241,-2.9722,-2.7765,-2.3057,-1.9397,-1.6679,-1.4968,-1.2002,-0.7892,-0.016,0.4309,0.6073,0.6247,0.5319,0.289,-0.4638,0.0,0.0,0.0,0.0,0.0,0.0,0.0,0.0,0.0,-1.4969,-2.7202,-2.8133,-2.9112,-3.0026,-3.0349,-3.1257,-3.2376,-3.3685,-3.5355,-3.6977,-3.7939,-3.9275,-4.1162,-4.4328,-4.6865,-4.9206,0.0,0.0,-5.6221,-5.6108,-5.7152,-5.7886,-5.7679,-5.8375,-5.8852,0.0,0.0,0.0,0.0,0.0,0.0,-5.6951,0.0,-5.567,-5.6082,-5.6098,-5.6159,-5.6302,-5.6294,-5.6405,-5.6601,-5.6581,-5.652,-5.6399,-5.633,-5.6289,-5.6308,-5.6417,-5.6483,-5.6474,-5.6283,-5.6181,-5.6135,-5.575,-5.5607,-5.5583,-5.5446,-5.5403,-5.5403,-5.5403,-5.5403,-5.5403,0.0,0.0,0.0,0.0,0.0,0.0,0.0,0.0,0.0,0.0,0.0,0.0,0.0,0.0,0.0,0.0,0.0,0.0,0.0,0.0,0.0,0.0,0.0,0.0,0.0,0.0,0.0,-3.8168,-3.6274,-3.3908,-3.1102,-2.8154,-2.5098,-2.1759,-1.8913,-1.6071,-1.3143,-0.8854,-0.6338,-0.5286,0.0,-0.4633,-0.5806,0.0,0.0,0.0,0.0,0.0,0.0,0.0,0.0,0.0,0.0,-2.3331,-2.7776,-2.9151,-2.9828,-3.0442,-3.1062,-3.2376,-3.3674,-3.4338,-3.5618,-3.7083,-3.8639,-3.9974,-4.1647,-4.4402,-4.7169,-4.9564,0.0,0.0,0.0,-5.5869,-5.6912,0.0,-5.8338,-5.8632,0.0,-5.954,0.0,-5.9758,-5.9383,-5.8824,0.0,0.0,-5.6663,-5.573,-5.6082,-5.6046,-5.6126,-5.6283,-5.6294,-5.6405,-5.6601,-5.6444,-5.6372,-5.6399,-5.6218,-5.6168,-5.6219,-5.6308,-5.6306,-5.6187,-5.6214,-5.6029,-5.575,-5.563,-5.5535,-5.5465,-5.5409,-5.5403,-5.5403,-5.5403,-5.5403,-5.5403,0.0,0.0,0.0,0.0,0.0,0.0,0.0,0.0,0.0,0.0,0.0,0.0,0.0,0.0,0.0,0.0,0.0,0.0,0.0,0.0,0.0,0.0,0.0,0.0,0.0,0.0,0.0,0.0,0.0,0.0,-3.4334,-3.1488,-2.8498,-2.5264,-2.233,-1.9312,-1.6258,-1.4105,0.0,0.0,0.0,0.0,0.0,0.0,0.0,0.0,0.0,0.0,0.0,0.0,0.0,-2.5456,-2.6502,-2.8167,-2.9965,-3.0512,0.0,-3.1779,-3.2185,-3.3178,-3.4338,-3.5126,-3.6295,-3.7782,-3.9473,-4.0803,-4.2589,-4.5499,-4.7926,0.0,-5.2075,0.0,0.0,0.0,0.0,0.0,-5.8245,-5.8628,-5.8968,0.0,-5.9543,0.0,-5.9491,-5.9115,-5.893,0.0,-5.7604,-5.6887,-5.7188,-5.6803,-5.665,-5.6861,-5.6489,-5.6405,-5.6601,-5.6405,-5.6314,-5.6341,-5.6172,-5.6132,-5.6174,-5.6219,-5.6194,-5.6102,0.0,-5.5863,-5.5544,-5.5512,-5.5432,-5.5313,-5.5377,-5.5403,-5.5403,-5.5403,-5.5403,-5.5403,0.0,0.0,0.0,0.0,0.0,0.0,0.0,0.0,0.0,0.0,0.0,0.0,0.0,0.0,0.0,0.0,0.0,0.0,0.0,0.0,0.0,0.0,0.0,0.0,0.0,0.0,0.0,0.0,0.0,0.0,0.0,0.0,0.0,0.0,0.0,0.0,0.0,0.0,0.0,0.0,0.0,0.0,0.0,0.0,0.0,0.0,0.0,0.0,0.0,0.0,-2.7079,-2.6983,-2.8411,-3.0592,-3.254,-3.2241,-3.2767,-3.3476,-3.3685,-3.4142,-3.4897,-3.6036,-3.7413,-3.8943,-4.044,-4.192,-4.3893,-4.7138,0.0,-5.0837,-5.3145,-5.4809,-5.6037,-5.6546,0.0,-5.8088,-5.796,-5.8516,-5.8945,-5.8868,-5.9121,-5.9327,-5.9364,-5.9235,-5.9166,-5.9221,-5.8822,-5.8604,-5.8604,-5.7888,-5.7579,-5.7787,-5.695,-5.6586,-5.6749,-5.6446,-5.6294,-5.6283,-5.6153,-5.6087,-5.6087,-5.6126,-5.6112,-5.602,0.0,0.0,-5.5451,-5.5396,-5.5294,-5.5229,-5.5358,-5.5403,-5.5403,-5.5403,-5.5403,-5.5403,0.0,0.0,0.0,0.0,0.0,0.0,0.0,0.0,0.0,0.0,-4.4447,-4.4762,0.0,0.0,0.0,0.0,0.0,0.0,0.0,0.0,0.0,0.0,0.0,0.0,0.0,0.0,0.0,0.0,0.0,0.0,0.0,0.0,0.0,0.0,0.0,0.0,0.0,0.0,0.0,0.0,0.0,0.0,0.0,0.0,0.0,0.0,0.0,0.0,0.0,0.0,-2.9245,-2.8708,-2.984,-3.1348,-3.2982,-3.4352,-3.4872,-3.5269,-3.6175,-3.6471,-3.6858,-3.7638,-3.8946,-4.0501,-4.2052,-4.4027,0.0,0.0,-5.0497,-5.2021,-5.3717,-5.5227,-5.633,-5.6685,0.0,0.0,0.0,0.0,-5.8926,0.0,0.0,0.0,0.0,0.0,0.0,0.0,0.0,0.0,-5.8662,-5.8525,-5.8544,-5.8753,-5.8019,-5.7594,-5.7513,-5.6708,-5.6275,-5.6225,-5.6087,-5.601,-5.601,-5.5973,-5.5846,-5.5686,0.0,0.0,-5.5183,-5.5229,-5.5229,-5.5229,-5.5358,-5.5403,-5.5403,-5.5403,-5.5403,-5.5403,0.0,0.0,0.0,0.0,0.0,0.0,0.0,-4.5142,-4.5156,-4.5026,-4.5152,-4.5046,-4.4411,-4.4644,0.0,0.0,0.0,0.0,0.0,0.0,0.0,0.0,0.0,0.0,0.0,0.0,0.0,0.0,0.0,0.0,0.0,0.0,0.0,0.0,0.0,0.0,0.0,0.0,0.0,0.0,0.0,0.0,0.0,0.0,0.0,0.0,0.0,0.0,0.0,0.0,-3.2708,-3.2394,-3.2535,-3.3564,-3.4993,-3.5961,-3.6163,-3.6351,-3.7468,-3.8107,-3.8612,-3.9803,-4.09,-4.2396,-4.4721,0.0,0.0,0.0,-5.232,-5.3437,-5.4997,0.0,0.0,0.0,0.0,0.0,0.0,0.0,0.0,0.0,0.0,0.0,0.0,0.0,0.0,0.0,0.0,0.0,-6.0035,-5.9706,-5.9376,-5.9005,-5.8652,-5.8227,-5.771,-5.7155,-5.6655,-5.6205,-5.607,-5.5958,-5.5904,-5.5866,-5.5686,-5.5456,-5.5369,0.0,-5.5094,-5.5176,-5.5183,-5.5229,-5.5358,-5.5403,-5.5403,-5.5403,-5.526,-5.5085,0.0,0.0,0.0,0.0,0.0,0.0,0.0,-4.5865,-4.5883,-4.5865,-4.5902,-4.5549,-4.4573,-4.4744,-4.4992,0.0,0.0,0.0,0.0,0.0,0.0,0.0,0.0,0.0,0.0,0.0,0.0,0.0,0.0,0.0,0.0,0.0,0.0,0.0,0.0,0.0,0.0,0.0,0.0,0.0,0.0,0.0,0.0,0.0,0.0,0.0,0.0,0.0,0.0,0.0,-3.6561,-3.6676,-3.6504,-3.6715,-3.723,-3.7848,-3.7952,-3.7939,-3.8863,-3.9678,-4.0583,-4.1938,-4.319,-4.4676,-4.7542,-4.8895,0.0,0.0,-5.4275,-5.5115,-5.6635,0.0,-5.765,0.0,0.0,0.0,0.0,0.0,0.0,0.0,0.0,0.0,0.0,0.0,0.0,0.0,0.0,0.0,-6.132,-6.0845,-6.0267,-5.9582,-5.9181,-5.8662,-5.7923,-5.7385,-5.6805,-5.6167,-5.6016,-5.5904,-5.5787,-5.5724,-5.5527,-5.5281,-5.5229,0.0,0.0,-5.5149,-5.5203,-5.5229,-5.5358,-5.5332,-5.526,-5.526,-5.5038,-5.4685,0.0,0.0,0.0,0.0,0.0,0.0,0.0,-4.4916,-4.5236,-4.512,-4.5548,-4.5883,-4.5754,-4.603,-4.6229,0.0,0.0,0.0,0.0,0.0,0.0,0.0,0.0,0.0,0.0,0.0,0.0,0.0,0.0,0.0,0.0,0.0,0.0,0.0,0.0,0.0,0.0,0.0,0.0,0.0,0.0,0.0,0.0,0.0,0.0,0.0,0.0,0.0,0.0,0.0,0.0,-4.1009,-4.2496,-4.0896,-3.8992,-4.0675,0.0,0.0,-4.1547,-4.2132,-4.2902,-4.3738,-4.5546,-4.7715,-5.0069,0.0,0.0,-5.557,-5.6295,-5.7003,-5.8495,-5.9053,-5.9638,0.0,0.0,-6.1008,0.0,0.0,0.0,0.0,0.0,0.0,0.0,0.0,0.0,0.0,0.0,0.0,0.0,-6.1462,-6.1448,-6.1371,-5.983,-5.8871,-5.8602,-5.7076,-5.6205,-5.6031,-5.5885,-5.5807,-5.5787,-5.5413,-5.5236,-5.5203,0.0,0.0,0.0,-5.5066,-5.5149,-5.5229,-5.5358,-5.5187,-5.4855,-5.4855,-5.4623,-5.4349,0.0,0.0,0.0,0.0,0.0,0.0,-4.5747,-4.5989,-4.627,-4.632,-4.6672,-4.7007,-4.7256,-4.7426,-4.7326,0.0,0.0,0.0,0.0,0.0,0.0,0.0,0.0,0.0,0.0,0.0,0.0,0.0,0.0,0.0,0.0,0.0,0.0,0.0,0.0,0.0,0.0,0.0,0.0,0.0,0.0,0.0,0.0,0.0,0.0,0.0,0.0,0.0,0.0,0.0,0.0,0.0,-4.5733,-4.497,0.0,0.0,-4.2663,-4.2936,-4.3165,-4.4104,-4.5309,-4.6453,-4.806,-4.9872,-5.1708,0.0,-5.5016,-5.6313,-5.7556,-5.8611,-5.9182,-6.0184,-6.1048,-6.1522,0.0,0.0,-6.209,0.0,0.0,0.0,0.0,0.0,0.0,0.0,0.0,0.0,0.0,0.0,0.0,-6.1521,-6.1595,-6.1582,-6.0305,-5.9299,-5.8699,-5.7482,-5.652,-5.5885,-5.5827,-5.5662,-5.5437,-5.5262,-5.5149,-5.5028,0.0,0.0,0.0,-5.5094,-5.5047,-5.4971,-5.5019,-5.4825,-5.4495,-5.4495,-5.4243,-5.3944,0.0,0.0,0.0,0.0,0.0,-4.6566,-4.6376,-4.6472,-4.6689,-4.7142,-4.7342,-4.7692,-4.8148,-4.8247,-4.8034,-4.7523,0.0,0.0,0.0,0.0,0.0,0.0,0.0,0.0,0.0,0.0,0.0,-5.1141,0.0,0.0,0.0,0.0,0.0,0.0,0.0,0.0,0.0,0.0,0.0,0.0,0.0,0.0,0.0,0.0,0.0,0.0,0.0,0.0,0.0,0.0,0.0,0.0,0.0,0.0,0.0,0.0,-4.4705,-4.4841,-4.5274,-4.6255,-4.7499,-4.899,-5.0467,-5.2,0.0,0.0,-5.6277,-5.7379,-5.8768,-5.9948,-6.0431,-6.16,-6.253,-6.2776,-6.322,-6.3485,-6.3321,-6.3283,0.0,0.0,0.0,0.0,0.0,0.0,0.0,0.0,0.0,0.0,0.0,-6.1492,-6.1389,-6.1118,-6.0132,-5.9202,-5.8293,-5.7349,-5.6502,-5.5787,-5.5662,-5.5461,-5.5203,-5.5149,-5.5009,-5.4901,0.0,0.0,0.0,-5.4933,-5.4825,-5.4654,-5.4654,-5.443,-5.4123,-5.4123,-5.387,-5.3545,0.0,0.0,0.0,0.0,0.0,0.0,-4.5615,-4.57,-4.6067,-4.6954,-4.7186,-4.7446,-4.8148,-4.8187,-4.8382,-4.8763,0.0,0.0,0.0,0.0,0.0,0.0,0.0,0.0,0.0,0.0,-5.1008,-5.1008,-5.0989,-5.1064,0.0,0.0,0.0,0.0,0.0,0.0,0.0,0.0,0.0,0.0,0.0,0.0,0.0,0.0,0.0,0.0,0.0,0.0,0.0,0.0,0.0,0.0,0.0,0.0,0.0,0.0,-4.765,-4.7273,-4.8214,-4.8813,-4.9545,-5.1087,-5.2555,-5.4121,0.0,0.0,-5.7325,-5.9081,-6.003,-6.0998,-6.2674,-6.3527,-6.4248,-6.5127,-6.528,-6.5111,-6.4558,-6.4493,0.0,0.0,0.0,0.0,0.0,0.0,0.0,0.0,0.0,0.0,0.0,-6.1408,-6.0905,-6.0035,-5.9183,-5.8273,-5.7327,-5.631,-5.5806,-5.5806,-5.5389,-5.5183,-5.5183,-5.5,-5.4901,0.0,0.0,0.0,0.0,-5.4597,-5.4482,-5.4315,-5.4315,-5.4052,-5.372,-5.372,-5.3484,-5.3206,0.0,0.0,0.0,0.0,0.0,0.0,0.0,-4.5177,-4.5407,-4.5817,-4.6389,-4.6945,-4.7446,-4.7933,-4.8247,-4.8421,0.0,0.0,0.0,0.0,0.0,0.0,0.0,0.0,0.0,0.0,-5.0835,-5.0923,-5.0923,-5.0979,-5.1054,-5.1014,-5.0912,0.0,0.0,0.0,0.0,0.0,0.0,0.0,0.0,0.0,0.0,0.0,0.0,0.0,0.0,0.0,0.0,0.0,0.0,0.0,0.0,0.0,0.0,-5.1896,-5.082,0.0,-5.0214,-5.1141,-5.2208,-5.3107,-5.4719,-5.6205,-5.6976,0.0,-5.8908,-6.0246,-6.1307,-6.2363,-6.3486,-6.4508,-6.5248,-6.5536,-6.5846,-6.5951,-6.5691,0.0,0.0,0.0,0.0,0.0,0.0,0.0,0.0,0.0,0.0,0.0,0.0,0.0,-6.0286,-5.9996,-5.8974,-5.7988,-5.7101,-5.6107,-5.5527,-5.5389,-5.5262,-5.5121,-5.5,-5.4931,0.0,0.0,0.0,0.0,0.0,-5.4174,-5.4069,-5.3907,-5.3907,-5.3662,-5.3378,-5.3378,-5.3314,-5.3206,0.0,0.0,0.0,0.0,0.0,0.0,0.0,-4.4923,-4.5123,-4.5817,-4.6147,-4.6624,-4.7403,-4.7875,-4.8169,-4.8306,0.0,0.0,0.0,0.0,0.0,0.0,0.0,0.0,0.0,-5.0483,-5.0606,-5.0808,-5.0808,-5.0867,-5.0953,-5.0953,-5.1023,-5.1115,0.0,0.0,0.0,0.0,0.0,0.0,0.0,0.0,-4.9135,0.0,0.0,0.0,0.0,0.0,0.0,0.0,0.0,0.0,0.0,0.0,0.0,0.0,-5.365,-5.2941,0.0,-5.3264,-5.4312,-5.5079,-5.6454,0.0,0.0,0.0,-6.0274,-6.14,-6.2548,-6.3644,-6.4507,-6.5372,-6.5967,-6.5967,-6.6256,-6.6438,-6.6325,0.0,0.0,0.0,0.0,0.0,0.0,0.0,0.0,0.0,0.0,0.0,0.0,0.0,-5.9649,-5.926,-5.8293,-5.7364,-5.6453,-5.5753,-5.5314,-5.5183,-5.5121,-5.4952,-5.468,-5.468,0.0,0.0,0.0,0.0,0.0,-5.3777,-5.3643,-5.3425,-5.3484,-5.34,-5.3206,-5.3206,-5.3206,-5.3206,0.0,0.0,0.0,0.0,0.0,0.0,0.0,-4.4889,-4.5159,-4.6613,-4.6454,-4.6624,-4.7793,-4.7992,-4.8072,-4.8267,0.0,0.0,0.0,0.0,0.0,0.0,0.0,0.0,-5.0159,-5.0126,-5.0278,-5.0643,-5.0643,-5.072,-5.0855,-5.0855,-5.0908,-5.0996,-5.1115,0.0,0.0,0.0,0.0,0.0,0.0,0.0,0.0,0.0,0.0,0.0,0.0,0.0,0.0,0.0,0.0,0.0,0.0,0.0,0.0,0.0,0.0,0.0,0.0,-5.532,-5.5982,0.0,0.0,0.0,0.0,0.0,0.0,-6.2538,-6.3732,-6.4792,-6.5601,-6.6116,-6.6398,-6.6399,-6.6515,-6.6588,-6.6517,0.0,0.0,0.0,0.0,0.0,0.0,0.0,0.0,0.0,0.0,0.0,0.0,0.0,-5.9011,-5.7914,-5.7197,-5.639,-5.548,-5.5262,-5.513,-5.513,-5.4922,-5.4597,-5.4262,-5.4262,0.0,0.0,0.0,0.0,0.0,-5.3345,-5.324,-5.3042,-5.3164,-5.3206,-5.3206,-5.3206,-5.3206,-5.3206,0.0,0.0,0.0,0.0,0.0,0.0,0.0,0.0,0.0,0.0,-4.6489,-4.6981,-4.7342,-4.7852,-4.8169,0.0,0.0,0.0,0.0,0.0,0.0,0.0,0.0,0.0,-4.9891,-4.9283,-4.9334,-5.0012,-5.0012,-5.0135,-5.0344,-5.0344,-5.0567,-5.0908,-5.0959,-5.1,0.0,0.0,0.0,0.0,0.0,0.0,0.0,0.0,0.0,0.0,-5.3698,-5.4027,0.0,0.0,0.0,0.0,0.0,0.0,0.0,0.0,-5.6635,-5.732,-5.7756,0.0,-5.7984,-5.8883,-5.9422,-5.9851,0.0,0.0,0.0,0.0,0.0,0.0,0.0,-6.6438,-6.6535,-6.6486,-6.6592,-6.6646,-6.6517,0.0,0.0,0.0,0.0,0.0,0.0,0.0,0.0,0.0,0.0,0.0,0.0,0.0,-5.7895,-5.6893,-5.575,-5.5216,-5.5262,-5.4776,-5.4495,-5.4495,-5.4139,-5.3906,-5.3833,-5.3833,0.0,0.0,0.0,0.0,-5.2937,-5.2919,-5.3023,-5.3164,-5.3206,-5.3206,-5.3206,-5.3206,-5.3206,-5.3206,0.0,0.0,0.0,0.0,0.0,0.0,0.0,0.0,0.0,0.0,0.0,0.0,0.0,0.0,0.0,0.0,0.0,0.0,0.0,0.0,0.0,0.0,0.0,-4.8222,-4.9023,-4.8589,-4.8672,-4.9261,-4.9614,-4.9865,-5.0038,-5.0038,-5.0233,-5.0587,-5.0786,-5.0889,0.0,0.0,0.0,0.0,0.0,0.0,0.0,0.0,0.0,0.0,-5.4975,-5.5266,0.0,-5.5336,-5.5346,-5.5346,0.0,0.0,0.0,0.0,-5.7857,-5.8798,-5.9632,-5.9584,-5.9436,-6.0007,-6.0288,-6.0616,-6.1417,0.0,0.0,0.0,0.0,0.0,0.0,0.0,-6.6613,-6.6601,-6.6704,0.0,0.0,0.0,0.0,0.0,0.0,0.0,0.0,0.0,0.0,0.0,0.0,0.0,0.0,0.0,-5.7363,-5.6175,-5.5038,-5.4554,-5.4776,-5.4277,-5.4033,-5.4033,-5.3796,-5.3606,-5.3428,-5.3428,0.0,0.0,0.0,0.0,-5.2698,-5.2761,-5.2912,-5.3103,-5.3164,-5.3206,-5.3206,-5.3206,-5.306,-5.2806,0.0,0.0,0.0,0.0,0.0,0.0,0.0,0.0,0.0,0.0,0.0,0.0,0.0,0.0,0.0,0.0,0.0,0.0,0.0,0.0,0.0,0.0,0.0,-4.7667,-4.8028,-4.7927,-4.8047,-4.8464,-4.9249,-4.9693,-4.9749,-4.9749,-4.9891,-5.0206,-5.0587,-5.08,0.0,0.0,0.0,0.0,-5.2118,0.0,0.0,0.0,0.0,0.0,0.0,0.0,0.0,-5.5975,-5.593,-5.5932,-5.5943,0.0,0.0,0.0,0.0,0.0,-6.0766,-6.0676,-6.0399,-6.0681,-6.0843,-6.1219,-6.2336,-6.3339,0.0,0.0,0.0,0.0,0.0,-6.6649,0.0,0.0,0.0,0.0,0.0,0.0,0.0,0.0,0.0,0.0,0.0,0.0,0.0,0.0,0.0,0.0,0.0,0.0,0.0,-5.5454,-5.4603,-5.4123,-5.4123,-5.3777,-5.3606,-5.3606,-5.3547,-5.3348,-5.303,-5.303,-5.2831,0.0,0.0,0.0,-5.259,-5.2743,-5.285,-5.2893,-5.3017,-5.3017,-5.2974,-5.2974,-5.2672,-5.2268,0.0,0.0,0.0,0.0,0.0,0.0,0.0,0.0,0.0,0.0,0.0,0.0,0.0,0.0,0.0,0.0,0.0,0.0,0.0,0.0,0.0,-4.8874,-4.7478,-4.7029,-4.7731,-4.708,-4.7094,-4.783,-4.865,-4.9174,-4.9457,-4.9457,-4.974,-5.0206,-5.0442,-5.0545,-5.0566,-5.0625,-5.1134,-5.2036,-5.3059,0.0,0.0,0.0,0.0,0.0,0.0,0.0,0.0,-5.611,-5.6057,-5.6193,-5.6897,0.0,0.0,0.0,0.0,0.0,-6.0682,-6.0891,-6.0894,-6.0935,-6.1477,-6.206,-6.2428,-6.38,-6.5056,0.0,0.0,0.0,0.0,-6.6817,0.0,0.0,0.0,0.0,0.0,0.0,0.0,0.0,0.0,0.0,0.0,0.0,0.0,0.0,0.0,0.0,0.0,0.0,0.0,-5.4241,-5.3697,-5.3404,-5.3285,-5.3203,-5.3203,-5.3203,-5.2831,-5.2645,-5.2618,-5.2618,-5.2572,0.0,0.0,-5.2554,-5.259,-5.2743,-5.2608,-5.2343,-5.2454,-5.2268,-5.1866,-5.1866,-5.1799,-5.1669,0.0,0.0,0.0,0.0,0.0,0.0,0.0,0.0,0.0,0.0,0.0,0.0,0.0,0.0,0.0,0.0,0.0,0.0,0.0,0.0,0.0,-4.8277,-4.7125,-4.6884,-4.7683,-4.6903,-4.6884,-4.7701,-4.8519,-4.8959,-4.9127,-4.9321,-4.9598,-4.9993,-5.0193,-5.0371,-5.05,-5.0462,-5.1028,-5.2026,0.0,0.0,0.0,0.0,0.0,0.0,0.0,0.0,0.0,0.0,-5.6513,-5.697,-5.7301,0.0,0.0,0.0,0.0,0.0,-6.1014,-6.1097,-6.106,-6.1094,-6.1405,-6.1948,-6.31,-6.4001,-6.4907,0.0,0.0,0.0,0.0,0.0,0.0,0.0,0.0,0.0,0.0,0.0,0.0,0.0,0.0,0.0,0.0,0.0,0.0,0.0,0.0,0.0,0.0,0.0,0.0,0.0,-5.313,-5.2678,-5.2399,-5.2,-5.2131,-5.2743,-5.2572,-5.2498,-5.2498,-5.2162,-5.2,-5.2,0.0,-5.1651,-5.1848,-5.1915,-5.1897,-5.1897,-5.1946,-5.1817,-5.1551,-5.1262,-5.1158,-5.1105,0.0,0.0,0.0,0.0,0.0,0.0,0.0,0.0,0.0,0.0,0.0,0.0,0.0,0.0,0.0,0.0,0.0,0.0,0.0,0.0,-4.8537,-4.7738,-4.6921,-4.6791,-4.7404,-4.6828,-4.6884,-4.7701,-4.8519,-4.8909,-4.8909,-4.9239,-4.9499,-4.9721,-4.9974,-5.0212,-5.0412,-5.0558,-5.1207,-5.2203,0.0,0.0,0.0,0.0,0.0,0.0,0.0,0.0,0.0,0.0,0.0,0.0,0.0,0.0,0.0,-6.0344,-6.0825,-6.1285,-6.1285,-6.1337,-6.1449,-6.1544,-6.1636,-6.2118,-6.372,-6.4358,-6.5017,0.0,0.0,0.0,0.0,0.0,0.0,0.0,0.0,0.0,0.0,0.0,0.0,0.0,0.0,0.0,0.0,0.0,0.0,0.0,0.0,0.0,0.0,0.0,0.0,0.0,-5.2667,-5.2123,-5.1651,-5.1034,-5.1209,-5.2096,-5.2096,-5.2096,-5.2048,-5.1422,-5.1114,-5.1096,-5.0505,-5.04,-5.0609,-5.0695,-5.0764,-5.0848,-5.0865,-5.0921,-5.0892,-5.0678,-5.0602,-5.0547,0.0,0.0,0.0,0.0,0.0,0.0,0.0,0.0,0.0,0.0,0.0,0.0,0.0,0.0,0.0,0.0,0.0,0.0,0.0,0.0,-4.8537,-4.7738,-4.6921,-4.6531,-4.6587,-4.6531,-4.6884,-4.7701,-4.8519,-4.8909,-4.8909,-4.9239,-4.9396,-4.9457,-4.991,-5.0125,-5.019,-5.1185,-5.2152,-5.3088,-5.4106,0.0,0.0,0.0,0.0,0.0,0.0,0.0,0.0,0.0,0.0,0.0,0.0,0.0,-6.0341,-6.1169,-6.1309,-6.122,-6.122,-6.1788,-6.2438,-6.2649,-6.2926,-6.3295,-6.3877,-6.5122,-6.6277,-6.6714,0.0,0.0,0.0,0.0,0.0,0.0,0.0,0.0,0.0,0.0,0.0,0.0,0.0,0.0,0.0,0.0,0.0,0.0,0.0,0.0,0.0,0.0,0.0,0.0,0.0,-5.1831,-5.1087,-5.0982,-5.0911,-5.0805,-5.0805,-5.0805,-5.077,-5.0084,-4.9749,-4.9714,-4.9113,-4.8864,-4.8915,-4.9163,-4.8965,-4.854,-4.8695,-4.8836,-4.9089,-4.9775,-5.0051,-5.0051,0.0,0.0,0.0,0.0,0.0,0.0,0.0,0.0,0.0,0.0,0.0,0.0,0.0,0.0,0.0,0.0,0.0,0.0,0.0,-4.8877,-4.8178,-4.7299,-4.6981,-4.6732,-4.6637,-4.6541,-4.7144,-4.8444,-4.876,-4.8909,-4.8909,-4.9027,-4.9283,-4.9674,-5.0317,-5.076,-5.1151,-5.2031,-5.2896,-5.3778,-5.4341,-5.5172,0.0,0.0,0.0,0.0,0.0,0.0,0.0,0.0,-5.789,-5.8758,-5.9637,-6.0475,-6.1199,-6.153,-6.1568,-6.1623,-6.2169,-6.2104,-6.2181,-6.3428,-6.367,0.0,0.0,-6.5449,-6.6009,-6.6572,-6.6746,0.0,0.0,0.0,0.0,0.0,0.0,0.0,0.0,0.0,0.0,0.0,0.0,0.0,0.0,0.0,0.0,0.0,0.0,0.0,0.0,0.0,0.0,0.0,0.0,-5.0947,-5.0587,-4.9673,-4.9126,-4.8953,-4.9672,-4.9995,-4.996,-4.887,-4.836,-4.8342,-4.7827,-4.7669,-4.7778,-4.8012,-4.8029,-4.7939,-4.7993,-4.802,-4.8234,-4.8993,-4.9269,-4.9338,0.0,0.0,0.0,0.0,0.0,0.0,0.0,0.0,0.0,0.0,0.0,0.0,0.0,0.0,0.0,0.0,0.0,0.0,-4.9683,-4.9172,-4.8483,-4.7579,-4.7787,-4.7891,-4.7738,-4.7901,-4.8263,-4.8909,-4.8909,-4.8909,-4.8909,-4.8909,-4.9319,-5.0081,-5.0685,-5.1334,-5.2035,-5.2915,-5.3599,-5.4153,-5.4708,-5.5266,0.0,0.0,0.0,0.0,0.0,0.0,0.0,0.0,-5.8567,-5.9609,0.0,-6.1006,-6.1694,-6.1701,-6.1701,-6.1837,-6.2423,-6.2493,-6.2621,-6.3642,0.0,0.0,-6.5471,-6.5764,-6.6057,-6.6553,-6.6746,-6.68,-6.6789,0.0,0.0,0.0,0.0,0.0,0.0,0.0,0.0,0.0,0.0,0.0,0.0,0.0,0.0,0.0,0.0,0.0,0.0,0.0,0.0,0.0,0.0,0.0,-5.0085,-4.886,-4.8184,-4.7962,-4.8252,-4.8516,-4.867,-4.7524,-4.7013,-4.7013,-4.6544,-4.6459,-4.6554,-4.6773,-4.6883,-4.701,-4.7269,-4.7372,-4.7458,-4.82,-4.8476,-4.8579,0.0,0.0,0.0,0.0,0.0,0.0,0.0,0.0,0.0,0.0,0.0,0.0,0.0,0.0,0.0,0.0,0.0,0.0,-4.9898,-4.9898,-4.9542,-4.8743,-4.9548,-5.0005,-5.0005,-5.0812,-5.0449,-4.8927,-4.8927,-4.8927,-4.8927,-4.8927,-4.9523,-5.0642,-5.096,-5.1676,-5.2691,-5.3838,-5.4245,-5.4205,-5.5212,-5.5607,-5.563,0.0,0.0,0.0,0.0,0.0,0.0,0.0,-5.8953,-6.0403,0.0,0.0,-6.1695,-6.169,-6.172,-6.172,-6.172,-6.2989,-6.4082,0.0,0.0,0.0,-6.578,-6.612,-6.6644,-6.6765,-6.6795,-6.6809,-6.6791,0.0,0.0,0.0,0.0,0.0,0.0,0.0,0.0,0.0,0.0,0.0,0.0,0.0,0.0,0.0,0.0,0.0,0.0,0.0,0.0,0.0,0.0,0.0,-4.9691,-4.897,-4.8401,-4.8056,-4.6595,-4.6174,-4.6752,-4.6024,-4.5744,-4.5864,-4.5265,-4.5086,-4.523,-4.5353,-4.5423,-4.551,-4.6286,-4.6596,-4.6682,-4.7441,-4.77,-4.7803,0.0,0.0,0.0,0.0,0.0,0.0,0.0,0.0,0.0,0.0,0.0,0.0,0.0,0.0,0.0,0.0,0.0,0.0,-5.0387,-4.985,-4.9676,-4.9956,-5.0224,-5.0562,-5.1047,-5.1694,-5.1802,-5.1296,-5.1296,-5.1296,-5.1296,-5.1296,-5.1594,-5.2182,-5.2745,-5.3289,-5.3833,-5.4689,-5.5046,-5.5046,-5.5442,-5.5607,-5.5649,0.0,0.0,0.0,0.0,0.0,0.0,0.0,0.0,0.0,-6.1046,0.0,-6.1639,-6.1695,-6.2119,-6.2742,-6.3369,-6.3457,0.0,-6.4589,0.0,0.0,0.0,-6.6199,0.0,0.0,-6.6731,-6.6502,-6.599,0.0,0.0,0.0,0.0,0.0,0.0,0.0,0.0,0.0,0.0,0.0,0.0,0.0,0.0,0.0,0.0,0.0,0.0,0.0,0.0,0.0,0.0,0.0,-4.8936,-4.8198,-4.7432,-4.6641,-4.5125,-4.4959,-4.6007,-4.536,-4.506,-4.5099,-4.5135,-4.5177,-4.523,-4.5353,-4.5423,-4.5441,-4.5682,-4.5786,-4.5872,-4.6648,-4.6941,-4.7044,0.0,0.0,0.0,0.0,0.0,0.0,0.0,0.0,0.0,0.0,0.0,0.0,0.0,0.0,0.0,0.0,0.0,0.0,0.0,-5.0582,-5.0718,-5.1164,-5.1857,-5.2549,-5.3275,-5.3644,-5.3776,-5.3702,-5.2756,-5.2295,-5.2295,-5.2295,-5.265,-5.3288,-5.3684,-5.4199,-5.479,-5.5211,-5.5409,-5.5403,-5.5499,-5.5531,-5.5554,0.0,0.0,0.0,0.0,0.0,0.0,0.0,0.0,0.0,-6.1439,0.0,-6.1603,-6.1659,-6.2031,-6.2558,-6.3113,-6.3113,0.0,-6.3872,-6.415,-6.4395,-6.4923,0.0,0.0,0.0,0.0,0.0,0.0,0.0,0.0,0.0,0.0,0.0,0.0,0.0,0.0,0.0,0.0,0.0,0.0,0.0,0.0,0.0,0.0,0.0,0.0,0.0,0.0,0.0,0.0,0.0,-4.8401,-4.7476,-4.6554,-4.5652,-4.4265,-4.3988,-4.4675,-4.4363,-4.4333,-4.4502,-4.5015,-4.53,-4.53,-4.5371,-4.5423,-4.5423,-4.5423,-4.5423,-4.5492,-4.5958,-4.613,-4.6251,0.0,0.0,0.0,0.0,0.0,0.0,0.0,0.0,0.0,0.0,-5.0977,0.0,0.0,0.0,0.0,0.0,0.0,0.0,0.0,0.0,-5.2276,-5.2434,-5.402,-5.526,-5.598,-5.5999,-5.5924,-5.5826,-5.3658,-5.2607,-5.2607,-5.2607,-5.3141,-5.4159,-5.4085,-5.4593,-5.5504,-5.5432,-5.5396,-5.5403,-5.5403,-5.5403,-5.5409,-5.5554,0.0,0.0,0.0,0.0,0.0,0.0,0.0,0.0,-6.1602,-6.1595,-6.1601,-6.16,-6.1668,-6.1731,-6.1797,0.0,0.0,-6.1994,-6.2956,0.0,-6.4178,-6.5436,-6.6344,0.0,0.0,0.0,0.0,0.0,0.0,0.0,0.0,0.0,0.0,0.0,0.0,0.0,0.0,0.0,0.0,0.0,0.0,0.0,0.0,0.0,0.0,0.0,0.0,0.0,0.0,0.0,-4.7954,-4.6733,-4.5728,0.0,-4.3756,-4.3202,-4.3096,-4.335,-4.363,-4.4095,-4.4998,-4.5423,-4.5423,-4.5423,-4.5423,-4.5423,-4.5423,-4.5423,-4.5423,-4.5423,-4.5423,-4.5527,0.0,0.0,0.0,0.0,0.0,0.0,0.0,0.0,0.0,0.0,0.0,0.0,0.0,0.0,0.0,0.0,0.0,0.0,0.0,0.0,-5.2879,-5.4175,-5.52,-5.5818,-5.5995,-5.5961,-5.5905,-5.5885,-5.5318,-5.502,-5.4975,-5.4975,-5.5094,-5.533,-5.5216,-5.5289,-5.5504,-5.544,-5.5384,-5.5403,-5.5403,-5.5403,-5.5403,-5.5415,-5.5527,0.0,0.0,0.0,0.0,0.0,0.0,0.0,-6.1606,-6.1595,-6.1603,-6.1601,-6.2086,-6.2623,-6.2649,-6.2768,0.0,0.0,-6.2908,-6.3355,-6.4039,-6.4491,0.0,0.0,0.0,0.0,0.0,0.0,0.0,0.0,0.0,0.0,0.0,0.0,0.0,0.0,0.0,0.0,0.0,0.0,0.0,0.0,0.0,0.0,0.0,0.0,0.0,0.0,0.0,-4.7759,-4.6639,-4.5798,-4.5018,0.0,-4.3312,-4.2925,-4.2863,-4.2909,-4.3376,-4.4192,-4.5052,-4.5423,-4.5423,-4.5423,-4.5423,-4.5423,-4.5423,-4.5423,-4.5423,-4.5423,-4.5423,-4.5441,0.0,0.0,0.0,0.0,0.0,0.0,0.0,0.0,0.0,0.0,0.0,0.0,0.0,0.0,0.0,0.0,0.0,0.0,0.0,0.0,-5.4068,-5.5316,-5.578,-5.6012,-5.6012,-5.598,-5.5924,-5.5905,-5.5826,-5.5766,-5.5703,-5.5703,-5.5703,-5.5684,-5.5551,-5.5504,-5.5504,-5.5434,-5.5403,-5.5403,-5.5403,-5.5403,-5.5403,-5.5403,-5.567,-5.6222,-5.7291,0.0,0.0,0.0,0.0,0.0,0.0,0.0,-6.1597,-6.1592,-6.2231,-6.2811,-6.2384,0.0,0.0,-6.2373,0.0,0.0,-6.2849,0.0,0.0,0.0,0.0,0.0,0.0,0.0,0.0,0.0,0.0,0.0,0.0,0.0,0.0,0.0,0.0,0.0,0.0,0.0,0.0,0.0,0.0,0.0,0.0,0.0,0.0,0.0,-4.7715,-4.6748,-4.5419,-4.4792,-4.4064,-4.3323,-4.2756,-4.238,-4.2253,-4.2599,-4.3213,-4.4071,-4.4541,-4.4725,-4.4725,-4.4961,-4.5069,-4.5069,-4.53,-4.5423,-4.5423,-4.5423,-4.5247,-4.5069,0.0,0.0,0.0,0.0,0.0,0.0,0.0,0.0,0.0,0.0,0.0,0.0,0.0,0.0,0.0,0.0,0.0,0.0,0.0,0.0,0.0,-5.5973,-5.6012,-5.6012,-5.5995,-5.598,-5.5962,-5.5885,-5.5826,-5.5745,-5.5703,-5.5703,-5.5703,-5.5684,-5.5551,-5.5504,-5.5504,-5.5434,-5.5403,-5.5403,-5.5403,-5.5409,-5.5415,-5.5428,-5.5925,-5.6786,-5.7854,-5.8876,-5.9876,-6.0978,0.0,0.0,0.0,0.0,-6.1607,-6.1607,-6.2114,-6.2513,-6.179,0.0,-6.2502,-6.1771,-6.1598,0.0,0.0,0.0,0.0,0.0,0.0,0.0,0.0,0.0,0.0,0.0,0.0,0.0,0.0,0.0,0.0,0.0,0.0,0.0,0.0,0.0,0.0,0.0,0.0,0.0,0.0,0.0,-4.8348,-4.7116,-4.6543,-4.5645,-4.4381,-4.3764,-4.3217,-4.2634,-4.2302,-4.2045,-4.1785,-4.2443,-4.3064,-4.3638,-4.3914,-4.403,-4.403,-4.4429,-4.4597,-4.4597,-4.5015,-4.514,-4.514,-4.514,-4.4889,-4.4597,0.0,0.0,0.0,0.0,0.0,0.0,0.0,0.0,0.0,0.0,0.0,0.0,0.0,0.0,0.0,0.0,0.0,0.0,-5.3227,0.0,0.0,-5.6012,-5.6012,-5.6014,-5.5999,-5.5943,-5.5885,-5.5807,-5.5745,-5.5724,-5.5703,-5.5703,-5.5703,-5.5684,-5.5551,-5.5504,-5.5504,-5.5434,-5.5403,-5.5403,-5.5403,-5.5451,-5.5561,-5.544,-5.6012,-5.6989,-5.8066,-5.899,-5.9893,-6.1141,-6.1578,0.0,0.0,0.0,-6.1607,-6.1607,-6.1685,-6.1744,0.0,0.0,-6.1744,0.0,-6.1586,0.0,0.0,0.0,0.0,0.0,0.0,0.0,0.0,0.0,0.0,0.0,0.0,0.0,0.0,0.0,0.0,0.0,0.0,0.0,0.0,0.0,0.0,0.0,0.0,0.0,0.0,-4.7865,-4.7082,-4.5818,-4.5098,-4.4453,-4.3831,-4.3087,-4.2731,-4.2634,-4.2555,-4.2508,-4.2492,-4.2555,-4.271,-4.297,-4.3722,-4.403,-4.403,-4.4088,-4.4088,-4.4088,-4.4145,-4.4202,-4.4202,-4.4202,-4.4145,-4.4088,0.0,0.0,0.0,0.0,0.0,0.0,0.0,0.0,0.0,0.0,0.0,0.0,0.0,0.0,0.0,-4.9834,-5.1499,-5.3227,-5.4793,-5.5586,-5.6012,-5.6012,-5.5996,-5.5998,-5.5999,-5.5905,-5.5826,-5.5787,-5.5745,-5.5703,-5.5703,-5.5703,-5.5703,-5.5684,-5.5551,-5.5504,-5.5504,-5.5434,-5.5403,-5.5403,-5.5476,-5.5558,-5.5665,-5.6207,-5.6963,-5.7873,-5.8818,-5.9794,-6.0686,-6.124,-6.1518,-6.1607,-6.1607,0.0,0.0,0.0,-6.1958,-6.2328,-6.2328,-6.1977,-6.1607,0.0,0.0,0.0,0.0,0.0,0.0,0.0,0.0,0.0,0.0,0.0,0.0,0.0,0.0,0.0,0.0,0.0,0.0,0.0,0.0,0.0,0.0,0.0,0.0,0.0,0.0,0.0,-4.7316,-4.7032,-4.6201,-4.4558,-4.4232,-4.3763,-4.3103,-4.278,-4.2634,-4.2634,-4.2634,-4.2634,-4.2634,-4.2634,-4.2618,-4.271,-4.308,-4.3218,-4.3218,-4.3486,-4.3604,-4.3604,-4.3914,-4.403,-4.403,-4.403,-4.3839,-4.3604,0.0,0.0,0.0,0.0,0.0,0.0,0.0,0.0,0.0,0.0,0.0,0.0,0.0,0.0,0.0,0.0,-5.244,-5.4291,-5.5896,-5.6012,-5.6012,-5.6012,-5.5996,-5.598,-5.5981,-5.5885,-5.5826,-5.5766,-5.5724,-5.5703,-5.5703,-5.5703,-5.5703,-5.5662,-5.5551,-5.5504,-5.5504,-5.5434,-5.5409,-5.547,-5.5561,-5.5651,-5.5827,-5.6594,-5.7536,-5.8557,-5.9196,-6.0243,-6.1317,-6.1363,-6.1487,-6.1607,-6.1607,-6.1607,0.0,0.0,0.0,0.0,0.0,0.0,-6.1445,0.0,0.0,0.0,0.0,0.0,0.0,0.0,0.0,0.0,0.0,0.0,0.0,0.0,0.0,0.0,0.0,0.0,0.0,0.0,0.0,0.0,0.0,0.0,0.0,0.0,0.0,0.0,-4.6418,-4.6027,-4.5097,-4.3476,-4.3427,-4.3184,-4.2634,-4.2634,-4.2634,-4.2634,-4.2634,-4.2634,-4.2634,-4.2634,-4.2634,-4.2634,-4.2634,-4.2634,-4.2634,-4.2974,-4.3141,-4.3141,-4.3502,-4.3621,-4.3621,-4.3621,-4.3558,-4.342,0.0,0.0,0.0,0.0,0.0,0.0,0.0,0.0,0.0,0.0,0.0,0.0,-4.7598,-4.8401,-4.9885,-5.218,-5.3183,-5.4353,-5.5915,-5.6012,-5.6012,-5.6012,-5.6012,0.0,-5.5905,-5.5905,-5.5826,-5.5703,-5.5703,-5.5703,-5.5703,-5.5703,-5.5682,-5.5596,-5.5527,-5.5504,-5.5504,-5.5434,-5.5476,-5.5585,-5.5607,-5.5825,-5.6154,-5.6004,-5.7098,-5.8692,-5.8745,-5.9846,-6.133,-6.1528,-6.1588,-6.1607,-6.1607,-6.1607,-6.1568,0.0,0.0,0.0,0.0,-6.1077,0.0,0.0,0.0,0.0,0.0,0.0,0.0,0.0,0.0,0.0,0.0,0.0,0.0,0.0,0.0,0.0,0.0,0.0,0.0,0.0,0.0,0.0,0.0,0.0,0.0,0.0,0.0,0.0,-4.5626,-4.4478,-4.346,-4.2715,-4.2682,-4.2666,-4.2634,-4.2634,-4.2634,-4.2634,-4.2634,-4.2634,-4.2634,-4.2634,-4.2634,-4.2634,-4.2634,-4.2634,-4.2634,-4.2634,-4.2634,-4.2618,-4.268,-4.268,-4.268,-4.268,-4.3118,-4.3654,0.0,0.0,0.0,0.0,0.0,0.0,0.0,0.0,0.0,0.0,0.0,0.0,0.0,-5.0162,-5.1869,-5.3154,-5.4439,-5.5415,-5.5973,-5.6012,-5.5995,-5.5998,-5.5942,-5.5904,-5.5846,-5.5787,-5.5745,-5.5703,-5.5703,-5.5703,-5.5703,-5.5703,-5.5703,-5.5662,-5.5551,-5.5554,-5.5624,-5.5446,-5.5551,0.0,-5.5788,-5.5965,-5.6253,-5.6846,-5.7815,0.0,0.0,0.0,-6.1498,-6.1578,-6.1607,-6.1607,-6.1607,-6.1498,-6.1376,-6.1178,-6.1057,0.0,0.0,0.0,0.0,0.0,0.0,0.0,0.0,0.0,0.0,0.0,0.0,0.0,0.0,0.0,0.0,0.0,0.0,0.0,0.0,0.0,0.0,0.0,0.0,0.0,0.0,0.0,0.0,0.0,0.0,0.0,-4.4445,-4.3961,-4.3379,-4.265,-4.2634,-4.2634,-4.2634,-4.2634,-4.2634,-4.2634,-4.2634,-4.2634,-4.2634,-4.2634,-4.2634,-4.2634,-4.2634,-4.2634,-4.2634,-4.2634,-4.2634,-4.2634,-4.2634,-4.2634,-4.2682,-4.3152,-4.3492,-4.3783,0.0,0.0,0.0,0.0,0.0,0.0,0.0,0.0,0.0,-4.6699,0.0,0.0,0.0,0.0,-5.3513,-5.4486,-5.5501,-5.6051,-5.6012,-5.5995,-5.6016,-5.5999,-5.5943,-5.5885,-5.5787,-5.5457,-5.5436,-5.5703,-5.5434,-5.5434,-5.5703,-5.5703,-5.5703,-5.5662,-5.5551,-5.5554,-5.5605,0.0,0.0,-5.5915,0.0,0.0,-5.6772,0.0,0.0,0.0,0.0,0.0,0.0,0.0,0.0,-6.1607,-6.1607,-6.1421,-6.1158,-6.0964,-6.0843,0.0,-6.0798,0.0,0.0,0.0,0.0,0.0,0.0,0.0,0.0,0.0,0.0,0.0,0.0,0.0,0.0,0.0,0.0,0.0,0.0,0.0,0.0,0.0,0.0,0.0,0.0,0.0,0.0,0.0,0.0,0.0,-4.3767,-4.3476,-4.3136,-4.265,-4.2634,-4.2634,-4.2634,-4.2634,-4.2634,-4.2634,-4.2634,-4.2634,-4.2634,-4.2634,-4.2634,-4.2634,-4.2634,-4.2634,-4.2634,-4.2634,-4.2634,-4.2634,-4.2634,-4.278,-4.3055,-4.3541,-4.401,-4.448,0.0,0.0,0.0,0.0,0.0,0.0,0.0,0.0,-4.668,-4.7539,0.0,0.0,0.0,0.0,0.0,-5.6172,-5.6242,-5.6147,-5.6012,-5.5998,-5.5999,-5.5999,-5.5924,-5.5865,-5.5787,-5.4958,-5.4919,-5.5703,-5.4914,-5.4934,-5.5703,-5.5703,-5.5682,-5.5596,-5.5527,-5.5504,-5.5504,0.0,-5.5618,-5.5915,0.0,-5.6601,-5.7652,0.0,0.0,0.0,-6.0243,-6.0828,0.0,-6.1588,0.0,0.0,0.0,-6.1317,-6.0945,-6.0754,-6.0546,0.0,0.0,0.0,0.0,0.0,0.0,0.0,0.0,0.0,0.0,0.0,0.0,0.0,0.0,0.0,0.0,0.0,0.0,0.0,0.0,0.0,0.0,0.0,0.0,0.0,0.0,0.0,0.0,0.0,0.0,-4.424,-4.3686,-4.3022,-4.2634,-4.2634,-4.2634,-4.2634,-4.2634,-4.2634,-4.2634,-4.2634,-4.2634,-4.2634,-4.2634,-4.2634,-4.2634,-4.2634,-4.2634,-4.2634,-4.2634,-4.2634,-4.2634,-4.2634,-4.2634,-4.3071,-4.3719,-4.3735,-4.4625,-4.5807,0.0,0.0,0.0,0.0,0.0,0.0,0.0,0.0,-4.8262,0.0,0.0,0.0,-5.3164,-5.4785,-5.5973,-5.6406,-5.6336,-5.6256,-5.6223,-5.6126,-5.6056,-5.599,-5.5904,-5.5806,-5.5724,-5.5493,-5.5474,-5.5703,-5.5472,-5.5472,-5.5703,-5.5703,-5.5703,-5.5682,-5.5551,-5.5577,-5.5708,-5.5602,0.0,-5.6121,-5.6121,-5.6317,0.0,0.0,0.0,0.0,0.0,-5.9794,-6.075,0.0,-6.1607,-6.1539,0.0,0.0,-6.0731,0.0,0.0,0.0,-6.0389,0.0,0.0,0.0,0.0,0.0,0.0,0.0,0.0,0.0,0.0,0.0,0.0,0.0,0.0,0.0,0.0,0.0,0.0,0.0,0.0,0.0,0.0,0.0,0.0,0.0,0.0,0.0,-4.436,-4.3603,-4.2958,-4.2731,-4.2634,-4.2634,-4.2634,-4.2634,-4.2634,-4.2634,-4.2634,-4.2634,-4.2634,-4.2634,-4.2634,-4.2634,-4.2634,-4.2634,-4.2634,-4.2634,-4.2634,-4.2634,-4.2634,-4.2634,-4.2634,-4.3071,-4.3767,-4.4302,-4.5046,-4.5888,0.0,0.0,0.0,0.0,0.0,0.0,0.0,-4.8242,-4.9277,0.0,0.0,0.0,-5.4941,-5.5957,-5.6523,-5.6504,-5.64,-5.6328,-5.6299,-5.6213,-5.6126,-5.6093,-5.5982,-5.5882,-5.5789,-5.5498,-5.5343,-5.5268,-5.5343,-5.5343,-5.5287,0.0,0.0,0.0,0.0,0.0,0.0,0.0,0.0,0.0,-5.6107,0.0,0.0,-5.665,-5.7159,0.0,0.0,0.0,-6.023,-6.0669,-6.111,0.0,0.0,0.0,0.0,0.0,0.0,0.0,0.0,0.0,0.0,0.0,0.0,0.0,0.0,-5.6568,0.0,0.0,0.0,0.0,0.0,0.0,0.0,0.0,0.0,0.0,0.0,0.0,0.0,0.0,0.0,0.0,0.0,0.0,0.0,0.0,-4.3602,-4.3071,-4.265,-4.2634,-4.2634,-4.2634,-4.2634,-4.2634,-4.2634,-4.2634,-4.2634,-4.2634,-4.2634,-4.2634,-4.2634,-4.2634,-4.2634,-4.2634,-4.2634,-4.2634,-4.2634,-4.2634,-4.2634,-4.2634,-4.2634,-4.3265,-4.4221,-4.4642,-4.5419,-4.6309,0.0,0.0,0.0,0.0,0.0,0.0,0.0,-4.9277,-5.0273,0.0,-5.3691,-5.4883,-5.6425,-5.6601,-5.6581,-5.6523,-5.6461,-5.6403,-5.6342,-5.6261,-5.6178,-5.608,-5.6006,-5.5874,-5.5642,-5.5059,-5.4691,0.0,0.0,0.0,-5.4718,-5.5494,0.0,0.0,0.0,0.0,0.0,0.0,0.0,-5.6181,-5.5998,-5.6494,0.0,0.0,-5.7483,-5.8197,-5.8294,-5.8916,-5.9682,-5.9583,-6.0179,0.0,0.0,0.0,0.0,0.0,-6.0207,0.0,0.0,-5.8709,-5.8299,0.0,0.0,0.0,-5.5758,-5.535,-5.4931,0.0,0.0,0.0,0.0,0.0,0.0,0.0,0.0,0.0,0.0,0.0,0.0,0.0,0.0,0.0,0.0,0.0,-4.4161,-4.3589,-4.299,-4.2634,-4.2634,-4.2634,-4.2634,-4.2634,-4.2634,-4.2634,-4.2634,-4.2634,-4.2634,-4.2634,-4.2634,-4.2634,-4.2634,-4.2634,-4.2634,-4.2634,-4.2634,-4.2634,-4.2634,-4.2634,-4.2634,-4.2634,-4.2634,-4.346,-4.469,-4.4755,-4.5629,-4.6779,-4.6308,0.0,0.0,0.0,0.0,0.0,0.0,0.0,-5.3183,-5.3672,-5.5117,-5.6229,-5.6563,-5.6598,-5.6585,-5.6575,-5.6575,-5.6566,-5.6538,-5.6433,-5.6047,-5.5346,-5.5194,-5.4789,-5.4064,-5.3916,-5.3838,0.0,0.0,0.0,0.0,0.0,0.0,0.0,0.0,0.0,0.0,0.0,0.0,-5.6194,-5.6168,0.0,-5.6201,-5.5982,-5.6037,-5.6268,-5.6962,-5.7429,-5.7841,-5.8504,-5.878,-5.8933,0.0,0.0,0.0,0.0,0.0,0.0,0.0,0.0,0.0,0.0,0.0,0.0,-5.4605,-5.4312,-5.4203,0.0,0.0,0.0,0.0,0.0,0.0,0.0,0.0,0.0,0.0,0.0,0.0,0.0,0.0,0.0,0.0,0.0,-4.3587,-4.2893,-4.2715,-4.2634,-4.2634,-4.2634,-4.2634,-4.2634,-4.2634,-4.2634,-4.2634,-4.2634,-4.2634,-4.2634,-4.2634,-4.2634,-4.2634,-4.2634,-4.2634,-4.2634,-4.2634,-4.2634,-4.2634,-4.2634,-4.2634,-4.2634,-4.2634,-4.3152,-4.3994,-4.4577,-4.5305,-4.6099,-4.6308,0.0,0.0,0.0,0.0,0.0,0.0,0.0,-5.4316,-5.5176,-5.6051,-5.6607,-5.6606,-5.6606,-5.6415,-5.5996,-5.5957,-5.5778,-5.5337,-5.5243,-5.5009,-5.4573,-5.4411,-5.4116,-5.3611,-5.3611,-5.3359,-5.285,0.0,0.0,0.0,0.0,0.0,0.0,0.0,0.0,0.0,0.0,-5.6219,-5.6239,-5.6107,0.0,-5.5731,-5.5558,-5.5504,-5.5562,-5.5983,-5.6502,-5.7137,-5.8235,-5.8488,0.0,0.0,-5.8622,-5.8219,0.0,-5.8259,-5.7643,0.0,0.0,0.0,-5.5055,0.0,0.0,0.0,-5.3776,-5.3643,0.0,0.0,0.0,0.0,0.0,0.0,0.0,0.0,0.0,0.0,0.0,0.0,0.0,0.0,0.0,0.0,0.0,-4.3022,-4.2666,-4.2634,-4.2634,-4.2634,-4.2634,-4.2634,-4.2634,-4.2634,-4.2634,-4.2634,-4.2634,-4.2634,-4.2634,-4.2634,-4.2634,-4.2634,-4.2634,-4.2634,-4.2634,-4.2634,-4.2634,-4.2634,-4.2634,-4.2634,-4.2634,-4.2634,-4.3071,-4.3751,-4.4123,-4.4706,-4.5338,-4.6731,0.0,0.0,0.0,0.0,0.0,0.0,0.0,-5.4958,-5.6386,-5.6551,-5.6571,-5.6606,-5.6606,-5.6255,-5.5376,-5.5298,-5.4927,-5.4068,-5.401,-5.3932,-5.3756,-5.3657,-5.3446,-5.3141,-5.3152,-5.2731,-5.1885,0.0,0.0,0.0,0.0,0.0,0.0,0.0,0.0,0.0,0.0,0.0,-5.6187,0.0,-5.5807,-5.5711,-5.5504,-5.5465,-5.5465,-5.5434,-5.588,-5.6635,-5.7699,0.0,-5.7949,-5.8026,-5.7949,0.0,0.0,0.0,0.0,0.0,0.0,0.0,0.0,0.0,-5.3734,0.0,0.0,0.0,0.0,0.0,0.0,0.0,0.0,0.0,0.0,0.0,0.0,0.0,0.0,0.0,0.0,0.0,0.0,0.0,0.0,-4.2634,-4.2634,-4.2634,-4.2634,-4.2634,-4.2634,-4.2634,-4.2634,-4.2634,-4.2634,-4.2634,-4.2634,-4.2634,-4.2634,-4.2634,-4.2634,-4.2634,-4.2634,-4.2634,-4.2587,-4.278,-4.2828,-4.2828,-4.2828,-4.2828,-4.2828,-4.2682,-4.299,-4.3524,-4.367,-4.4091,-4.4609,-4.8343,-4.9176,0.0,0.0,0.0,0.0,0.0,0.0,-5.614,-5.6395,-5.6417,-5.6468,-5.6586,-5.6606,-5.6255,-5.5376,-5.5298,0.0,-5.4068,0.0,-5.3659,-5.2878,-5.2835,-5.2395,-5.1479,-5.1479,-5.1356,-5.112,0.0,0.0,0.0,0.0,0.0,0.0,-5.5901,0.0,0.0,0.0,-5.602,0.0,-5.5827,-5.5932,0.0,-5.5789,-5.5668,-5.5647,-5.5531,-5.5538,-5.5657,0.0,-5.5796,-5.598,0.0,-5.653,-5.5999,0.0,0.0,0.0,0.0,0.0,0.0,0.0,-5.3813,0.0,0.0,0.0,0.0,0.0,0.0,0.0,0.0,0.0,0.0,0.0,0.0,0.0,0.0,0.0,0.0,0.0,0.0,0.0,0.0,0.0,0.0,-4.2634,-4.2634,-4.2634,-4.2634,-4.2634,-4.2634,-4.2634,-4.2634,-4.2634,-4.2634,-4.2634,-4.2634,-4.2634,-4.2634,-4.2634,-4.2634,-4.2634,-4.2634,-4.2666,-4.3314,-4.3589,-4.3589,-4.3589,-4.3589,-4.3524,-4.2877,-4.2682,-4.2828,-4.3476,-4.3767,-4.3929,-4.9336,-5.0487,-5.1706,0.0,0.0,0.0,0.0,0.0,-5.6243,-5.6278,-5.59,-5.5672,0.0,0.0,0.0,0.0,0.0,-5.3299,0.0,0.0,-5.2161,-5.196,0.0,0.0,-5.1093,-5.0972,-5.0879,-5.0819,-5.1601,0.0,0.0,0.0,0.0,0.0,-5.5883,0.0,-5.5864,0.0,-5.59,0.0,0.0,0.0,0.0,-5.573,-5.558,-5.558,-5.5554,-5.5551,-5.5551,0.0,-5.5643,0.0,0.0,0.0,0.0,0.0,0.0,0.0,0.0,0.0,0.0,0.0,0.0,0.0,-5.2733,0.0,-5.1788,0.0,0.0,0.0,0.0,0.0,0.0,0.0,0.0,0.0,0.0,0.0,0.0,0.0,0.0,0.0,0.0,0.0,0.0,0.0,0.0,-4.2634,-4.2634,-4.2634,-4.2634,-4.2634,-4.2634,-4.2634,-4.2634,-4.2634,-4.2634,-4.2634,-4.2634,-4.2634,-4.2634,-4.2634,-4.286,-4.3281,-4.3573,-4.3945,-4.4334,-4.4334,-4.4091,-4.3686,-4.3379,-4.3006,-4.2666,-4.2974,-4.3087,-4.3136,-5.0761,-5.1918,0.0,0.0,0.0,0.0,0.0,0.0,0.0,0.0,0.0,0.0,-5.4772,-5.4227,0.0,0.0,-5.2472,-5.2085,0.0,0.0,-5.1132,0.0,0.0,0.0,0.0,0.0,-5.074,-5.0702,0.0,0.0,0.0,0.0,0.0,0.0,0.0,-5.5577,-5.5705,0.0,0.0,-5.5827,-5.5789,-5.5865,-5.5954,-5.5707,-5.5596,-5.5551,-5.5596,-5.5573,-5.5527,-5.5551,-5.558,0.0,-5.5172,0.0,0.0,0.0,0.0,0.0,-5.433,0.0,0.0,0.0,0.0,0.0,0.0,0.0,0.0,0.0,0.0,0.0,0.0,0.0,0.0,0.0,0.0,0.0,0.0,0.0,0.0,0.0,0.0,0.0,0.0,0.0,0.0,0.0,-4.2696,0.0,-4.2634,-4.2634,-4.2634,-4.2634,-4.2634,-4.2634,-4.2634,-4.2634,-4.2634,-4.2634,-4.2634,-4.2634,-4.2634,-4.2828,-4.3217,-4.3735,-4.4123,-4.4577,-4.5063,-4.5063,-4.4755,-4.4253,-4.3864,-4.3395,-4.2909,-4.2636,-4.2634,-4.2634,-5.3053,-5.3478,0.0,0.0,0.0,0.0,0.0,0.0,0.0,0.0,0.0,0.0,0.0,0.0,0.0,0.0,0.0,-5.1933,-5.1066,0.0,-5.1141,0.0,0.0,-5.1102,0.0,0.0,-5.0825,-5.0702,-5.0721,0.0,0.0,0.0,0.0,0.0,0.0,-5.4972,-5.5703,-5.5684,-5.5705,-5.5724,-5.5684,-5.5724,-5.5745,0.0,-5.5808,-5.5684,-5.5703,0.0,0.0,-5.5236,-5.5056,0.0,0.0,0.0,0.0,0.0,0.0,0.0,0.0,0.0,0.0,-5.2426,0.0,0.0,0.0,0.0,-4.9604,0.0,0.0,0.0,0.0,0.0,-4.5643,-4.3793,0.0,0.0,0.0,0.0,0.0,0.0,0.0,0.0,0.0,0.0,0.0,-4.2899,-4.2899,0.0,-4.2634,-4.2634,-4.2634,-4.2634,-4.2634,-4.2634,-4.2634,-4.2634,-4.2634,-4.2634,-4.2634,-4.2634,-4.2587,-4.3362,-4.3686,-4.3783,-4.5144,-4.5743,-4.5775,-4.5775,-4.5759,-4.5597,-4.4237,-4.3702,-4.3589,-4.2893,-4.2634,-4.2634,-5.3149,0.0,0.0,0.0,0.0,0.0,0.0,-5.5497,0.0,0.0,0.0,0.0,0.0,-5.2207,-5.1754,0.0,0.0,-5.1247,-5.0956,-5.0978,0.0,0.0,0.0,-5.0965,0.0,0.0,-5.0759,-5.0702,-5.0702,0.0,0.0,0.0,0.0,0.0,0.0,-5.4337,0.0,0.0,0.0,0.0,0.0,-5.5243,-5.5461,0.0,0.0,-5.5437,-5.5437,-5.5243,0.0,-5.4924,-5.4884,-5.4746,-5.4495,-5.4591,-5.4666,-5.3979,-5.3515,0.0,0.0,0.0,-5.1444,-5.1069,0.0,0.0,0.0,0.0,0.0,0.0,0.0,0.0,0.0,0.0,-4.4895,-4.4219,-4.4011,-4.3764,0.0,0.0,0.0,0.0,0.0,0.0,0.0,0.0,0.0,-4.2899,-4.2775,-4.2696,0.0,-4.2634,-4.2634,-4.2634,-4.2634,-4.2634,-4.2634,-4.2634,-4.2634,-4.2634,-4.2634,-4.2877,-4.3362,-4.3605,-4.4221,-4.5127,-4.5597,-4.6083,-4.652,-4.652,-4.5969,-4.5095,-4.4609,-4.3832,-4.2974,-4.2715,-4.2634,-4.2634,-5.2356,0.0,0.0,0.0,0.0,0.0,0.0,0.0,0.0,0.0,-5.2702,0.0,-5.1702,0.0,-5.0894,0.0,-5.0858,-5.0825,-5.0825,-5.0874,0.0,-5.0889,-5.0898,0.0,0.0,0.0,0.0,-5.0702,-5.0702,-5.0971,0.0,0.0,0.0,0.0,0.0,-5.333,-5.2924,0.0,-5.3709,0.0,0.0,-5.4059,0.0,0.0,-5.4828,-5.5288,0.0,-5.4895,-5.4623,-5.4623,-5.4371,-5.3964,-5.3746,-5.3556,-5.3275,-5.2654,-5.217,-5.1728,-5.1279,-5.0787,0.0,-4.9871,-4.9644,0.0,-4.8317,0.0,0.0,0.0,0.0,0.0,0.0,0.0,0.0,-4.4219,-4.3848,-4.3628,0.0,-4.3628,0.0,0.0,0.0,0.0,0.0,0.0,-4.3084,-4.2899,-4.2821,-4.2759,0.0,0.0,-4.2634,-4.2634,-4.2634,-4.2634,-4.2634,-4.2634,-4.2763,-4.3022,-4.3022,-4.3395,-4.4107,-4.435,-4.4949,-4.5807,-4.6083,-4.6455,-4.6876,-4.6876,-4.6196,-4.5127,-4.4885,-4.4059,-4.299,-4.2731,-4.2634,-4.2634,0.0,0.0,0.0,0.0,-5.3981,0.0,0.0,0.0,-5.2916,0.0,-5.1875,-5.1607,-5.0951,-5.0794,-5.074,-5.089,-5.0757,0.0,-5.0702,-5.0827,0.0,0.0,-5.0844,-5.0825,-5.0702,0.0,0.0,-5.0683,-5.0683,-5.0663,-5.0663,0.0,0.0,0.0,-5.1732,0.0,-5.221,-5.2552,-5.252,-5.221,-5.2248,-5.2267,-5.2267,-5.2267,0.0,-5.5103,-5.4781,-5.4428,-5.4149,-5.4149,-5.3418,-5.2512,-5.2512,-5.1748,-5.0851,-5.0869,-5.0574,-5.0289,-5.0289,-5.0271,-4.9968,-4.8898,0.0,0.0,0.0,0.0,-4.6778,0.0,0.0,0.0,0.0,0.0,0.0,-4.3789,-4.3628,-4.3628,-4.3628,0.0,0.0,0.0,0.0,0.0,0.0,-4.3492,-4.3388,-4.2961,-4.299,-4.2929,0.0,0.0,0.0,-4.2634,-4.2634,-4.265,-4.2682,-4.2682,-4.3039,-4.3767,-4.3767,-4.414,-4.4868,-4.5516,-4.5824,-4.5888,-4.6585,-4.6876,-4.6876,-4.6844,-4.6407,-4.5678,-4.4998,-4.4285,-4.3573,-4.2877,-4.2634,-4.2634,-4.9881,-5.0674,-5.137,0.0,-5.2782,-5.3462,0.0,0.0,0.0,0.0,-5.1395,-5.0933,-5.0759,-5.0721,-5.0702,-5.074,-5.0721,0.0,0.0,0.0,0.0,-5.0721,-5.0844,-5.0825,-5.0702,-5.0702,0.0,-5.0336,-5.0336,-5.0225,-5.0012,0.0,0.0,0.0,0.0,0.0,-5.0494,-5.122,-5.1348,-5.1068,-5.148,-5.1757,0.0,0.0,-5.2104,-5.276,-5.263,-5.2375,-5.2138,-5.2138,-5.1788,-5.1339,-5.1339,-5.0977,-5.0488,-5.0235,-4.9644,-4.9104,-4.8857,-4.8335,-4.7788,-4.7519,-4.7155,-4.6772,0.0,0.0,0.0,0.0,0.0,0.0,0.0,0.0,0.0,-4.3628,-4.3628,-4.3628,0.0,0.0,0.0,-4.3628,0.0,0.0,-4.3568,-4.3372,-4.3174,-4.3052,-4.2867,0.0,0.0,0.0,0.0,-4.2634,-4.2634,-4.2893,-4.3427,-4.3427,-4.38,-4.4512,-4.4512,-4.4885,-4.5548,-4.5726,-4.6099,-4.6617,-4.6811,-4.6876,-4.6844,-4.6309,-4.5678,-4.4982,-4.4269,-4.3541,-4.2893,-4.2699,-4.2634,-4.2634,-4.8546,0.0,0.0,-4.9745,0.0,0.0,-5.149,0.0,0.0,-5.0758,-5.0702,0.0,-5.0702,-5.0702,-5.0702,-5.0702,-5.0702,0.0,-5.0702,0.0,0.0,-5.0504,-5.0548,-5.0489,-5.0313,-5.031,0.0,-5.0038,0.0,0.0,-4.9803,0.0,0.0,0.0,0.0,-5.01,0.0,-4.9939,-5.004,-4.987,-5.0187,0.0,0.0,-5.0373,-5.0335,-5.0368,-5.0331,-5.0673,-5.1176,-5.1176,-5.0708,-5.0178,-5.0178,-4.9679,-4.9113,-4.8916,-4.8433,-4.7913,-4.775,-4.7319,-4.6934,-4.6684,-4.6429,-4.6137,-4.5852,-4.5528,-4.525,0.0,0.0,0.0,0.0,0.0,0.0,0.0,0.0,0.0,0.0,0.0,0.0,0.0,0.0,0.0,-4.3628,-4.3372,-4.3174,-4.3113,0.0,0.0,0.0,0.0,0.0,-4.2634,-4.2326,-4.2359,-4.278,-4.278,-4.3298,-4.4318,-4.4642,-4.5305,-4.6277,-4.6277,-4.6504,-4.6876,-4.6876,-4.6698,-4.6374,-4.5969,-4.5208,-4.4253,-4.3524,-4.299,-4.2634,-4.2634,-4.2634,-4.2634,0.0,0.0,0.0,0.0,0.0,0.0,0.0,-4.972,0.0,-4.9124,0.0,-5.0584,-5.0584,-5.0584,-5.0584,-5.0584,0.0,-5.0584,-5.0584,-5.0584,-5.0462,-5.0159,-5.0064,-4.9948,-4.9784,-4.969,0.0,0.0,0.0,0.0,0.0,0.0,0.0,0.0,0.0,0.0,0.0,-4.8909,-4.8909,0.0,-4.8855,-4.882,-4.882,-4.8785,-4.8587,-4.8345,-4.8345,-4.9303,-5.0499,-5.0499,-4.9823,-4.8972,-4.8972,-4.8267,-4.7425,-4.7425,-4.7249,-4.6998,-4.6998,-4.6934,-4.6778,-4.6332,-4.6087,-4.587,-4.532,-4.5144,-4.4947,-4.4502,-4.4746,0.0,0.0,0.0,0.0,0.0,0.0,0.0,0.0,0.0,0.0,0.0,0.0,0.0,0.0,-4.3509,0.0,0.0,0.0,0.0,0.0,0.0,0.0,0.0,-4.1759,0.0,-4.1565,0.0,-4.2375,-4.3719,-4.4447,-4.5435,-4.6601,-4.6601,-4.6601,-4.6601,-4.6601,-4.6261,-4.5662,-4.5565,-4.4755,-4.3508,-4.2877,-4.2634,-4.2634,-4.2634,-4.2634,-4.2634,0.0,0.0,0.0,0.0,0.0,-4.7477,-4.6793,-4.8187,-4.9228,-4.9022,-4.9567,-4.9962,-4.9962,-4.9962,-4.9962,-4.9962,-4.9962,0.0,0.0,0.0,0.0,-4.9865,-4.9219,-4.9181,-4.9784,-4.9167,-4.9031,0.0,0.0,0.0,0.0,0.0,0.0,0.0,0.0,0.0,-4.8909,-4.8909,0.0,-4.8874,-4.8587,-4.8495,-4.8458,-4.8249,-4.8111,-4.8072,-4.8072,-4.8254,-4.8532,-4.8532,-4.8198,-4.7795,-4.7795,-4.7489,-4.707,-4.707,-4.7043,-4.6998,-4.6998,-4.6684,-4.6332,-4.6235,-4.5494,-4.4763,-4.4652,-4.4276,-4.3889,-4.3789,-4.3831,-4.3831,-4.3628,0.0,0.0,0.0,0.0,0.0,0.0,0.0,0.0,0.0,0.0,0.0,0.0,0.0,0.0,0.0,0.0,0.0,0.0,0.0,0.0,0.0,0.0,0.0,0.0,0.0,0.0,-4.3719,-4.4447,-4.4917,-4.516,-4.516,-4.516,-4.516,-4.516,-4.5079,-4.4917,-4.4318,-4.3573,-4.2812,-4.2682,-4.2634,-4.2634,-4.2634,-4.2634,-4.2634,0.0,0.0,0.0,0.0,0.0,0.0,0.0,-4.6865,0.0,-4.7927,-4.9007,-4.9803,-4.9803,-4.9803,-4.9803,-4.9803,-4.9803,-4.9803,-4.9803,-4.9803,-4.954,-4.8938,-4.8541,0.0,-4.8082,-4.7706,-4.7634,-4.7909,0.0,0.0,-4.8296,0.0,0.0,0.0,0.0,-4.882,0.0,0.0,0.0,-4.8402,-4.8249,-4.821,-4.8172,-4.8072,-4.7911,-4.7747,-4.7747,-4.7621,-4.7493,-4.7663,-4.7493,-4.7249,-4.7249,-4.7116,-4.6998,-4.6998,-4.6778,-4.659,-4.659,-4.6168,-4.5649,-4.539,-4.4927,-4.439,-4.4121,-4.3789,-4.3628,-4.3628,-4.3628,-4.3628,-4.3628,-4.3628,0.0,0.0,0.0,0.0,0.0,0.0,0.0,0.0,0.0,0.0,0.0,0.0,0.0,0.0,0.0,0.0,0.0,0.0,0.0,0.0,0.0,0.0,0.0,0.0,0.0,-4.3152,-4.3881,-4.4431,-4.4787,-4.4787,-4.4787,-4.4787,-4.4787,-4.4577,-4.4172,-4.3443,-4.2941,-4.2634,-4.2634,-4.2634,-4.2634,-4.2634,-4.2634,-4.2634,0.0,-4.54,0.0,0.0,-4.5101,0.0,-4.4849,-4.5951,-4.6829,-4.6899,-4.8484,-4.9608,-4.9608,-4.9608,-4.9608,-4.9608,-4.9608,-4.9608,-4.9608,-4.9438,-4.8955,-4.8047,-4.7691,-4.7193,-4.6494,-4.6327,-4.6327,0.0,0.0,0.0,0.0,0.0,0.0,0.0,0.0,0.0,0.0,0.0,-4.821,-4.7992,-4.7911,-4.7911,-4.787,-4.7829,-4.7621,-4.7381,-4.7381,-4.7205,-4.7025,-4.7294,-4.7205,-4.6998,-4.6998,-4.6934,-4.6842,-4.6842,-4.6429,-4.602,-4.602,-4.558,-4.5054,-4.4614,-4.439,-4.4162,-4.373,-4.3628,-4.3628,-4.3628,-4.3495,-4.3396,-4.3396,-4.3264,0.0,0.0,0.0,0.0,0.0,0.0,0.0,0.0,0.0,0.0,0.0,0.0,0.0,0.0,0.0,0.0,0.0,0.0,0.0,0.0,0.0,-3.9573,-4.027,0.0,-4.1144,0.0,-4.3136,-4.3783,-4.4334,-4.4334,-4.4334,-4.4334,-4.4334,-4.401,-4.3427,-4.286,-4.2634,-4.2634,-4.2634,-4.2634,-4.2634,-4.2634,-4.2634,-4.2634,0.0,0.0,0.0,0.0,0.0,0.0,0.0,-4.5672,-4.6619,-4.6859,-4.8114,-4.8974,-4.8974,-4.8974,-4.8974,-4.8974,-4.8974,-4.8974,-4.8974,-4.8304,-4.7858,-4.7716,-4.6355,-4.5858,-4.6494,-4.5788,-4.5769,0.0,0.0,0.0,0.0,0.0,0.0,0.0,0.0,0.0,0.0,-4.8032,-4.8032,-4.7992,-4.7663,-4.7554,-4.7511,-4.7205,-4.707,-4.7043,-4.7043,-4.7043,-4.698,-4.7043,-4.7043,-4.6998,-4.6998,-4.6684,-4.6284,-4.6284,-4.5852,-4.5355,-4.5355,-4.5018,-4.4541,-4.4502,-4.4064,-4.3687,-4.3628,-4.3628,-4.3628,-4.3628,-4.3098,-4.2618,-4.2618,-4.2071,-4.1624,0.0,0.0,0.0,0.0,0.0,0.0,0.0,0.0,0.0,0.0,0.0,0.0,0.0,0.0,0.0,0.0,0.0,0.0,-3.8618,0.0,-3.8845,-3.9573,-4.0189,0.0,-4.1678,-4.2391,-4.2763,-4.2828,-4.2828,-4.2828,-4.2828,-4.2828,-4.2796,-4.2731,-4.2666,-4.2634,-4.2634,-4.2634,-4.2634,-4.2634,-4.2634,-4.2634,-4.2634,0.0,0.0,0.0,0.0,0.0,0.0,0.0,-4.5494,-4.6559,-4.6669,-4.7955,-4.8909,-4.8909,-4.8909,-4.8909,-4.8909,-4.8463,-4.8184,-4.8184,-4.7423,-4.6754,-4.6271,-4.5639,-4.5212,-4.5008,-4.4674,-4.4674,0.0,0.0,0.0,0.0,0.0,0.0,0.0,0.0,-4.6262,-4.6237,-4.6237,-4.6114,-4.5924,-4.5814,-4.5771,-4.5728,-4.5614,-4.557,-4.557,-4.557,-4.557,-4.5641,-4.6123,-4.6587,-4.6934,-4.6637,-4.6381,-4.6137,-4.5751,-4.5267,-4.4801,-4.4801,-4.4373,-4.3948,-4.3948,-4.3789,-4.3628,-4.3628,-4.3628,-4.3628,-4.3628,-4.3032,-4.2386,-4.1939,-4.1624,-4.1409,0.0,0.0,0.0,0.0,0.0,0.0,0.0,0.0,0.0,0.0,0.0,0.0,0.0,0.0,0.0,0.0,0.0,0.0,-3.852,0.0,-3.8942,-4.0075,-4.0367,-4.1063,-4.2213,-4.2488,-4.2634,-4.2634,-4.2634,-4.2634,-4.2634,-4.2634,-4.2634,-4.2634,-4.2634,-4.2634,-4.2634,-4.2634,-4.2634,-4.2634,-4.2634,-4.2634,-4.2634,-4.4468,0.0,-4.4503,0.0,-4.4298,-4.426,-4.4036,-4.5212,-4.6141,-4.6141,-4.7348,-4.8277,-4.8519,-4.8556,-4.8444,-4.8203,-4.7664,-4.7348,-4.7348,-4.6587,-4.5881,-4.5324,-4.5045,0.0,-4.4005,-4.3923,-4.3892,-4.3892,-4.4503,0.0,0.0,0.0,0.0,0.0,-4.5087,-4.5077,-4.4952,-4.4952,-4.4803,-4.4624,-4.4624,-4.4624,-4.4624,-4.4624,-4.4624,-4.4624,-4.4624,-4.4624,-4.4652,-4.5116,-4.5622,-4.6127,-4.6192,-4.597,-4.5615,-4.5161,-4.4691,-4.4236,-4.4236,-4.3889,-4.3628,-4.3628,-4.3628,-4.3628,-4.3628,-4.3628,-4.3562,-4.3346,-4.2551,-4.1723,-4.121,-4.0928,-4.0779,-4.0779,0.0,0.0,0.0,0.0,0.0,0.0,-3.9272,-3.9272,-3.9272,0.0,0.0,0.0,0.0,0.0,0.0,0.0,0.0,0.0,0.0,0.0,0.0,-4.0496,-4.1209,-4.2634,-4.2634,-4.2634,-4.2634,-4.2634,-4.2634,-4.2634,-4.2634,-4.2634,-4.2634,-4.2634,-4.2634,-4.2634,-4.2634,-4.2634,-4.2634,-4.2634,-4.2634,-4.2634,-4.4314,-4.4314,-4.4237,-4.4036,-4.3986,-4.3986,-4.4005,-4.4748,-4.5305,-4.5305,-4.6011,-4.6828,-4.7627,-4.7701,-4.7386,-4.6605,-4.6513,-4.6513,-4.6513,-4.5751,-4.5305,0.0,0.0,-4.4005,-4.4005,-4.373,-4.3579,-4.3579,0.0,0.0,-4.3233,0.0,-4.3486,-4.392,-4.392,-4.4168,-4.4624,-4.4624,-4.4607,-4.4624,-4.4624,-4.4624,-4.4624,-4.4624,-4.4624,-4.4624,-4.4624,-4.4624,-4.452,-4.4054,-4.3915,-4.4197,-4.5694,-4.5442,-4.4502,-4.4502,-4.4064,-4.3628,-4.3628,-4.3628,-4.3628,-4.3628,-4.3628,-4.3628,-4.3628,-4.3628,-4.3413,-4.2684,-4.1392,-4.0398,-4.0398,-3.9802,-3.9305,-3.9305,0.0,0.0,0.0,0.0,0.0,0.0,-3.9272,-3.9272,-3.9272,0.0,0.0,0.0,0.0,0.0,0.0,0.0,0.0,-3.8805,-3.8655,0.0,-4.0658,-4.0556,-4.1209,-4.2634,-4.2634,-4.2634,-4.2634,-4.2634,-4.2634,-4.2634,-4.2634,-4.2634,-4.2634,-4.2634,-4.2634,-4.2634,-4.2634,-4.2634,-4.2634,-4.2634,-4.2634,-4.2634,-4.4097,-4.4116,-4.4085,-4.4005,-4.4097,-4.4207,-4.4207,-4.4916,-4.5457,-4.5457,-4.5871,-4.6039,-4.5743,-4.6413,-4.6773,0.0,-4.5992,-4.5574,0.0,-4.458,-4.407,-4.3883,-4.3608,-4.3426,-4.3426,-4.3375,-4.3339,-4.3339,0.0,0.0,0.0,-4.2864,-4.2817,-4.2808,-4.2808,-4.291,-4.3019,-4.3019,-4.3019,-4.3019,-4.3019,-4.3019,-4.3019,-4.3019,-4.3019,-4.3019,-4.3019,-4.2789,-4.2538,-4.2931,-4.2623,-4.2158,-4.3203,-4.3267,-4.2909,-4.2484,-4.2641,-4.2767,-4.2253,-4.2485,-4.275,-4.2253,-4.2121,-4.2121,-4.2121,-4.2121,-4.1905,-4.121,-4.0696,-4.0233,-3.9719,-3.9437,-3.9272,-3.9272,0.0,0.0,0.0,0.0,0.0,0.0,-3.9272,-3.9272,0.0,-3.9272,0.0,0.0,0.0,0.0,0.0,0.0,0.0,0.0,-3.9201,0.0,-4.0717,-4.1042,-4.1695,-4.2634,-4.2634,-4.2634,-4.2634,-4.2634,-4.2634,-4.2634,-4.2634,-4.2634,-4.2634,-4.2634,-4.2634,-4.2634,-4.2634,-4.2634,-4.2634,-4.2634,-4.2634,-4.2634,-4.4005,-4.4067,-4.4097,-4.4005,-4.4177,-4.4255,-4.4135,-4.4532,-4.4817,-4.4766,-4.493,-4.4869,-4.4373,-4.4934,0.0,-4.5247,-4.4786,-4.4423,-4.4195,-4.3736,-4.3375,-4.3214,-4.3214,-4.3214,-4.3214,0.0,0.0,-4.2995,-4.29,-4.2806,-4.2711,-4.2595,-4.2454,-4.2287,-4.2287,-4.2287,-4.2287,-4.2287,-4.2287,-4.2287,-4.2287,-4.2287,-4.2287,-4.2287,-4.2287,-4.2287,-4.2287,-4.1959,-4.156,-4.1869,-4.1395,-4.0746,-4.1079,-4.1177,-4.1171,-4.1355,-4.174,-4.2005,-4.1541,-4.1756,-4.2005,-4.1524,-4.1409,-4.1409,-4.1409,-4.121,-4.0912,-4.0464,-4.0166,-3.9835,-3.9355,-3.9272,-3.9272,-3.9272,-3.9272,-3.9272,-3.9272,0.0,0.0,0.0,0.0,0.0,0.0,-3.9272,0.0,0.0,0.0,0.0,0.0,0.0,0.0,-3.9094,-3.9598,0.0,-4.0909,-4.139,-4.2044,-4.2696,-4.2634,-4.2634,-4.2634,-4.2634,-4.2634,-4.2634,-4.2634,-4.2634,-4.2634,-4.2634,-4.2634,-4.2634,-4.2634,-4.2634,-4.2634,-4.2634,-4.2634,-4.2634,-4.4005,-4.4177,0.0,0.0,-4.4177,0.0,-4.3851,-4.3786,-4.3719,-4.3513,-4.3479,-4.3444,-4.3444,-4.3444,-4.3339,-4.316,0.0,0.0,0.0,-4.316,-4.316,-4.3123,-4.3123,0.0,-4.3123,-4.2844,-4.2673,-4.2673,-4.2432,-4.2432,-4.2673,-4.2432,-4.2287,-4.2287,-4.2287,-4.2287,-4.2287,-4.2287,-4.2287,-4.2287,-4.2287,-4.2287,-4.2287,-4.2287,-4.2287,-4.2287,-4.2287,-4.1941,-4.1383,-4.0943,-4.04,-3.9868,-3.9468,-3.9272,-3.9537,-4.0878,-4.1309,-4.1326,-4.1276,-4.1309,-4.1326,-4.1276,-4.1259,-4.1259,-4.1259,-4.0763,-4.0299,-4.0299,-3.9752,-3.9272,-3.9272,-3.9272,-3.9272,-3.9272,-3.9272,-3.9272,-3.9272,0.0,0.0,0.0,0.0,0.0,0.0,-3.9272,-3.9272,0.0,0.0,0.0,0.0,0.0,-3.9342,-3.9355,-3.9886,-4.0499,-4.1222,-4.1651,-4.2171,-4.2899,-4.2696,-4.2634,-4.2634,-4.2634,-4.2634,-4.2634,-4.2634,-4.2634,-4.2634,-4.2634,-4.2634,-4.2634,-4.2634,-4.2634,-4.2634,-4.2634,-4.2634,-4.2634,0.0,0.0,-4.4314,-4.4354,-4.4288,-4.4181,-4.3992,-4.374,-4.3542,-4.3508,-4.3213,-4.3069,-4.3105,-4.2938,-4.2786,-4.2765,-4.3069,-4.3178,-4.2957,-4.2882,-4.2729,-4.2512,-4.2512,-4.2512,-4.2512,-4.2432,-4.2391,-4.2391,-4.2328,-4.2328,-4.2391,-4.2328,-4.2287,-4.2287,-4.2287,-4.2287,-4.2287,-4.2287,-4.2287,-4.2287,-4.2287,-4.2287,-4.2287,-4.2287,-4.2287,-4.2287,-4.2287,-4.1727,-4.0943,-4.0849,-4.0237,-3.9468,-3.9325,-3.9272,-3.9392,-3.9686,-4.0183,-4.0498,-3.9934,-4.0199,-4.0481,-3.9918,-3.9785,-3.9785,-3.9785,-3.9653,-3.9537,-3.9537,-3.9404,-3.9272,-3.9272,-3.9272,-3.9272,-3.9272,-3.9272,-3.9272,-3.9272,-3.9272,0.0,0.0,-3.9272,-3.9272,-3.9272,-3.9272,-3.9272,0.0,0.0,0.0,0.0,0.0,-3.9537,-4.01,-4.0548,-4.1098,-4.1812,-4.2203,-4.2472,-4.2696,-4.2634,-4.2634,-4.2634,-4.2634,-4.2634,-4.2634,-4.2634,-4.2634,-4.2634,-4.2634,-4.2634,-4.2634,-4.2634,-4.2634,-4.2634,-4.2634,-4.2634,-4.2634,-4.4255,-4.4177,-4.4097,-4.4079,-4.398,-4.3818,-4.3572,-4.344,-4.3336,-4.3231,-4.305,-4.292,-4.2957,-4.2806,-4.2747,-4.2747,-4.2882,-4.292,-4.2786,-4.2691,-4.2591,-4.245,-4.245,-4.245,-4.245,-4.245,-4.245,-4.245,-4.2427,-4.2387,-4.2387,-4.2346,-4.2287,-4.2287,-4.2287,-4.2287,-4.2287,-4.2287,-4.2287,-4.2287,-4.2287,-4.2287,-4.2287,-4.2287,-4.2145,-4.1941,-4.1941,-4.1293,-4.0449,-4.0449,-3.9935,-3.9272,-3.9272,-3.9272,-3.9272,-3.9272,-3.9553,-3.9785,-3.9388,-3.957,-3.9785,-3.9425,-3.9272,-3.9272,-3.9272,-3.9272,-3.9272,-3.9272,-3.9272,-3.9272,-3.9272,-3.9272,-3.9272,-3.9272,-3.9272,-3.9272,-3.9272,-3.9272,0.0,-3.9272,-3.9272,-3.9272,-3.9272,-3.9272,-3.9272,-3.9272,0.0,0.0,-3.9272,-3.9272,-3.962,-4.0365,-4.0908,-4.1502,-4.2193,-4.2692,-4.2883,-4.2775,-4.2775,-4.2696,-4.2634,-4.2634,-4.2634,-4.2634,-4.2634,-4.2634,-4.2634,-4.2634,-4.2634,-4.2634,-4.2634,-4.2634,-4.2634,-4.2634,-4.2634,-4.2634,-4.4237,-4.3999,-4.3758,-4.3679,-4.3575,-4.3387,-4.3087,-4.3123,-4.3105,-4.29,-4.29,-4.29,-4.2882,-4.2882,-4.2882,-4.2882,-4.2747,-4.2649,-4.2649,-4.2609,-4.2609,-4.2609,-4.257,-4.257,-4.257,-4.257,-4.257,-4.257,-4.2486,-4.2463,-4.2463,-4.2346,-4.2287,-4.2287,-4.2287,-4.2287,-4.2287,-4.2287,-4.2287,-4.2287,-4.2287,-4.2287,-4.2287,-4.2287,-4.1959,-4.1472,-4.1472,-4.0861,-4.0003,-4.0003,-3.9679,-3.9272,-3.9272,-3.9272,-3.9272,-3.9272,-3.9272,-3.9272,-3.9272,-3.9272,-3.9272,-3.9272,-3.9272,-3.9272,-3.9272,-3.9272,-3.9272,-3.9272,-3.9272,-3.9272,-3.9272,-3.9272,-3.9272,-3.9272,-3.9272,-3.9272,-3.9272,0.0,-3.9272,-3.9272,-3.9272,-3.9272,-3.9272,-3.9272,-3.9272,-3.9272,-3.9272,-3.9272,0.0,-3.9272,-3.9653,-4.0514,-4.111,-4.1765,-4.2551,-4.3119,-4.319,-4.2899,-4.2899,-4.2759,-4.2634,-4.2634,-4.2634,-4.2634,-4.2634,-4.2634,-4.2634,-4.2634,-4.2634,-4.2634,-4.2634,-4.2634,-4.2634,-4.2634,-4.2634,-4.2634,-4.4121,-4.3949,-4.374,-4.3836,-4.3623,-4.3371,-4.3267,-4.3013,-4.286,-4.2822,-4.2822,-4.2842,-4.2882,-4.2882,-4.2882,-4.2882,-4.2844,-4.2824,-4.2783,-4.2649,-4.2609,-4.2609,-4.2566,-4.2503,-4.2503,-4.2427,-4.2328,-4.2328,-4.2328,-4.2328,-4.2328,-4.2287,-4.2287,-4.2287,-4.2287,-4.2287,-4.2287,-4.2287,-4.2287,-4.2287,-4.2287,-4.2287,-4.2287,-4.2287,-4.1959,-4.1472,-4.1472,-4.0861,-4.0003,-4.0003,-3.9679,-3.9272,-3.9272,-3.9272,-3.9272,-3.9272,-3.9272,-3.9272,-3.9272,-3.9272,-3.9272,-3.9272,-3.9272,-3.9272,-3.9272,-3.9272,-3.9272,-3.9272,-3.9272,-3.9272,-3.9272,-3.9272,-3.9272,-3.9272,-3.9272,-3.9272,-3.9272,0.0,-3.9272,-3.9272,-3.9272,-3.9272,-3.9272,-3.9272,-3.9272,-3.9272,-3.9272,-3.9272,-3.9272,-3.9272,-3.9885,-4.121,-4.1262,-4.1798,-4.2993,-4.3108,-4.3052,-4.2899,-4.2899,-4.2759,-4.2634,-4.2634,-4.2634,-4.2634,-4.2634,-4.2634,-4.2634,-4.2634,-4.2634,-4.2634,-4.2634,-4.2634,-4.2634,-4.2634,-4.2696,-4.2899,-4.3886,-4.3609,-4.3355,-4.3406,-4.3213,-4.3069,-4.305,-4.2938,-4.2824,-4.2824,-4.2824,-4.288,-4.29,-4.2882,-4.2882,-4.2882,-4.2882,-4.29,-4.2842,-4.2786,-4.2747,-4.2747,-4.2727,-4.2745,-4.2745,-4.2631,-4.2631,-4.2631,-4.257,-4.2588,-4.2588,-4.2468,-4.2405,-4.2387,-4.2328,-4.2287,-4.2287,-4.2287,-4.2287,-4.2287,-4.2287,-4.2287,-4.2287,-4.2287,-4.1959,-4.149,-4.1202,-4.0642,-3.9952,-3.9731,-3.9451,-3.9272,-3.9272,-3.9272,-3.9272,-3.9272,-3.9272,-3.9272,-3.9272,-3.9272,-3.9272,-3.9272,-3.9272,-3.9272,-3.9272,-3.9272,-3.9272,-3.9272,-3.9272,-3.9272,-3.9272,-3.9272,-3.9272,-3.9272,-3.9272,0.0,0.0,-3.9272,-3.9272,-3.9272,-3.9272,-3.9272,-3.9272,-3.9272,-3.9272,-3.9272,-3.9272,-3.9272,-3.9272,-3.9272,-3.9934,-4.1375,-4.2088,-4.2756,-4.3235,-4.3235,-4.319,-4.3007,-4.3007,-4.2945,-4.2867,-4.2867,-4.2867,-4.2867,-4.2821,-4.2759,-4.2759,-4.2634,-4.2634,-4.2634,-4.2696,-4.2759,-4.2759,-4.2867,-4.2929,-4.3007,-4.356,-4.3267,-4.2995,-4.2995,-4.29,-4.2822,-4.2822,-4.2862,-4.2882,-4.2882,-4.2882,-4.2882,-4.2882,-4.2882,-4.2882,-4.2882,-4.2882,-4.2882,-4.2882,-4.2882,-4.2882,-4.2882,-4.29,-4.2862,-4.2806,-4.2824,-4.2824,-4.2786,-4.2745,-4.2706,-4.2667,-4.2526,-4.2445,-4.2463,-4.2346,-4.2287,-4.2287,-4.2287,-4.2287,-4.2287,-4.2287,-4.2246,-4.2103,-4.2103,-4.1813,-4.1293,-4.0943,-4.0449,-3.9952,-3.9592,-3.9362,-3.9272,-3.9272,-3.9272,-3.9272,-3.9272,-3.9272,-3.9272,-3.9272,-3.9272,-3.9272,-3.9272,-3.9272,-3.9272,-3.9272,-3.9272,-3.9272,-3.9272,-3.9272,-3.9272,-3.9272,-3.9272,-3.9272,-3.9272,0.0,0.0,0.0,-3.9272,-3.9272,-3.9272,-3.9272,-3.9272,-3.9272,-3.9272,-3.9272,-3.9272,-3.9272,-3.9272,-3.9272,-3.9272,-3.9934,-4.1375,-4.285,-4.3568,-4.3449,-4.3449,-4.3372,-4.3174,-4.3174,-4.3113,-4.3052,-4.3052,-4.3052,-4.299,-4.2945,-4.2899,-4.2837,-4.2759,-4.2696,-4.2696,-4.2883,-4.2961,-4.2945,-4.3052,-4.3113,-4.3174,-4.3267,-4.3087,-4.292,-4.292,-4.29,-4.2882,-4.2882,-4.29,-4.2882,-4.2882,-4.2882,-4.2882,-4.2882,-4.2882,-4.2882,-4.2882,-4.2882,-4.2882,-4.2882,-4.2882,-4.2882,-4.2882,-4.2842,-4.2745,-4.2609,-4.2609,-4.2588,-4.2544,-4.2544,-4.2445,-4.2328,-4.2328,-4.2328,-4.2328,-4.2287,-4.2287,-4.2287,-4.2287,-4.2287,-4.2287,-4.2287,-4.2002,-4.1578,-4.1578,-4.1248,-4.0849,-4.0802,-4.0449,-4.0003,-3.9952,-3.9644,-3.9272,-3.9272,-3.9272,-3.9272,-3.9272,-3.9272,-3.9272,-3.9272,-3.9272,-3.9272,-3.9272,-3.9272,-3.9272,-3.9272,-3.9272,-3.9272,-3.9272,-3.9272,-3.9272,-3.9272,-3.9272,-3.9272,-3.9272,0.0,0.0,-3.9272,-3.9272,-3.9272,-3.9272,-3.9272,-3.9272,-3.9272,-3.9272,-3.9272,-3.9272,-3.9272,-3.9272,-3.9272,-3.9272,-3.9934,-4.1375,-4.285,-4.3628,-4.3568,-4.3568,-4.3509,-4.3372,-4.3372,-4.3207,-4.2899,-4.2899,-4.2821,-4.2634,-4.2837,-4.2759,-4.2634,-4.2929,-4.3007,-4.2899,-4.3052,-4.3113,-4.3113,-4.3113,-4.3235,-4.3372,-4.3032,-4.2957,-4.2882,-4.2882,-4.2882,-4.2882,-4.2882,-4.2882,-4.2882,-4.2882,-4.2882,-4.2882,-4.2882,-4.2882,-4.2882,-4.2882,-4.2882,-4.2882,-4.2882,-4.2882,-4.2882,-4.2882,-4.286,-4.2822,-4.2786,-4.2727,-4.2706,-4.2685,-4.2685,-4.2627,-4.249,-4.2427,-4.2445,-4.2405,-4.2346,-4.2287,-4.2287,-4.2287,-4.2287,-4.2287,-4.2287,-4.2187,-4.2002,-4.2002,-4.1683,-4.122,-4.0896,-4.0449,-3.9969,-3.9679,-3.9468,-3.9272,-3.9272,-3.9272,-3.9272,-3.9272,-3.9272,-3.9272,-3.9272,-3.9272,-3.9272,-3.9272,-3.9272,-3.9272,-3.9272,-3.9272,-3.9272,-3.9272,-3.9272,-3.9272,-3.9272,-3.9272,-3.9272,-3.9272,0.0,-3.9272,-3.9272,-3.9272,-3.9272,-3.9272,-3.9272,-3.9272,-3.9272,-3.9272,-3.9272,-3.9272,-3.9272,-3.9272,-3.9272,-4.0117,-4.0845,-4.1392,-4.285,-4.3492,-4.3295,-4.3295,-4.3235,-4.3235,-4.3235,-4.3251,-4.3328,-4.3328,-4.3312,-4.319,-4.319,-4.319,-4.3129,-4.3113,-4.3007,-4.2899,-4.319,-4.3235,-4.3113,-4.3355,-4.3432,-4.3492,-4.2862,-4.29,-4.2882,-4.2882,-4.2882,-4.2882,-4.2882,-4.2882,-4.2882,-4.2882,-4.2882,-4.2882,-4.2882,-4.2882,-4.2882,-4.2882,-4.2882,-4.2882,-4.2882,-4.2882,-4.2882,-4.2882,-4.2842,-4.2842,-4.2882,-4.2824,-4.2822,-4.2783,-4.2745,-4.2667,-4.2588,-4.2486,-4.2445,-4.2445,-4.2346,-4.2287,-4.2287,-4.2287,-4.2287,-4.2287,-4.2287,-4.2187,-4.2044,-4.2044,-4.1813,-4.1472,-4.1128,-4.0689,-4.0203,-3.9885,-3.9556,-3.9272,-3.9272,-3.9272,-3.9272,-3.9272,-3.9272,-3.9272,-3.9272,-3.9272,-3.9272,-3.9272,-3.9272,-3.9272,-3.9272,-3.9272,-3.9272,-3.9272,-3.9272,-3.9272,-3.9272,-3.9272,-3.9272,-3.9272,-3.9272,-3.9272,-3.9272,-3.9272,-3.9272,-3.9272,-3.9272,-3.9272,-3.9272,-3.9272,-3.9272,-3.9272,-3.9272,-3.9272,-3.9272,-4.063,-4.1409,-4.1409,-4.285,-4.3492,-4.3174,-4.3235,-4.3235,-4.3235,-4.3235,-4.3372,-4.3568,-4.3568,-4.3492,-4.3432,-4.3432,-4.3372,-4.3312,-4.3235,-4.319,-4.3084,-4.3388,-4.3372,-4.3295,-4.3509,-4.3628,-4.3628,-4.2783,-4.2824,-4.2882,-4.2882,-4.2882,-4.2882,-4.2882,-4.2882,-4.2882,-4.2882,-4.2882,-4.2882,-4.2882,-4.2882,-4.2882,-4.2882,-4.2882,-4.2882,-4.2882,-4.2882,-4.2882,-4.2882,-4.2882,-4.29,-4.2882,-4.29,-4.2862,-4.2802,-4.2649,-4.2548,-4.2503,-4.2346,-4.2287,-4.2287,-4.2287,-4.2287,-4.2287,-4.2287,-4.2287,-4.2287,-4.2287,-4.2002,-4.1534,-4.1534,-4.1516,-4.1472,-4.1472,-4.1202,-4.0802,-4.0802,-4.0137,-3.9325,-3.9272,-3.9272,-3.9272,-3.9272,-3.9272,-3.9272,-3.9272,-3.9272,-3.9272,-3.9272,-3.9272,-3.9272,-3.9272,-3.9272,-3.9272,-3.9272,-3.9272,-3.9272,-3.9272,-3.9272,-3.9272,-3.9272,-3.9272,-3.9272,-3.9272,-3.9272,-3.9272,-3.9272,-3.9272,-3.9272,-3.9272,-3.9272,-3.9272,-3.9272,-3.9272,-3.9272,-3.9272,-4.063,-4.1409,-4.1409,-4.285,-4.3552,-4.3372,-4.3509,-4.3628,-4.3628,-4.3628,-4.3509,-4.3372,-4.3372,-4.3295,-4.3113,-4.3295,-4.3312,-4.3113,-4.3432,-4.3509,-4.3432,-4.3568,-4.3628,-4.3628,-4.3628,-4.3628,-4.3628,-4.2862,-4.29,-4.2882,-4.2882,-4.2882,-4.2882,-4.2882,-4.2882,-4.2882,-4.2882,-4.2882,-4.2882,-4.2882,-4.2882,-4.2882,-4.2882,-4.2882,-4.2882,-4.2882,-4.2882,-4.2882,-4.2882,-4.2747,-4.2709,-4.2804,-4.2706,-4.2606,-4.2584,-4.2526,-4.2486,-4.2346,-4.2328,-4.2287,-4.2287,-4.2287,-4.2287,-4.2287,-4.2287,-4.2287,-4.2287,-4.2287,-4.2187,-4.2044,-4.2044,-4.1813,-4.1472,-4.1472,-4.1202,-4.0754,-4.0351,-4.0053,-3.9731,-3.9415,-3.9272,-3.9272,-3.9272,-3.9272,-3.9272,-3.9272,-3.9272,-3.9272,-3.9272,-3.9272,-3.9272,-3.9272,-3.9272,-3.9272,-3.9272,-3.9272,-3.9272,-3.9272,-3.9272,-3.9272,-3.9272,-3.9272,-3.9272,-3.9272,-3.9272,-3.9272,-3.9272,-3.9272,-3.9272,-3.9272,-3.9272,-3.9272,-3.9272,-3.9272,-3.9272,-3.9272,-4.0183,-4.0912,-4.1409,-4.2353,-4.3039,-4.3568,-4.3509,-4.3432,-4.3432,-4.3432,-4.3509,-4.3568,-4.3568,-4.3492,-4.3432,-4.3492,-4.3492,-4.3432,-4.3568,-4.3509,-4.3432,-4.3568,-4.3568,-4.3492,-4.3568,-4.3628,-4.3628,-4.2882,-4.2882,-4.2882,-4.2882,-4.2882,-4.2882,-4.2882,-4.2882,-4.2882,-4.2882,-4.2882,-4.2882,-4.2882,-4.2882,-4.2882,-4.2882,-4.2882,-4.2882,-4.2882,-4.2882,-4.2882,-4.2882,-4.2765,-4.2727,-4.2842,-4.2706,-4.2667,-4.2667,-4.2645,-4.2566,-4.2409,-4.2387,-4.2346,-4.2287,-4.2287,-4.2287,-4.2287,-4.2287,-4.2287,-4.2287,-4.2287,-4.2287,-4.2287,-4.2044,-4.177,-4.1472,-4.1472,-4.1202,-4.0802,-4.0625,-4.0334,-3.9919,-3.9468,-3.9272,-3.9272,-3.9272,-3.9272,-3.9272,-3.9272,-3.9272,-3.9272,-3.9272,-3.9272,-3.9272,-3.9272,-3.9272,-3.9272,-3.9272,-3.9272,-3.9272,-3.9272,-3.9272,-3.9272,-3.9272,-3.9272,-3.9272,-3.9272,-3.9272,-3.9272,-3.9272,-3.9272,-3.9272,-3.9272,-3.9272,-3.9272,-3.9272,-3.9272,-3.9272,-3.9272,-3.9984,-4.0696,-4.1392,-4.2137,-4.2866,-4.3611,-4.3509,-4.3509,-4.3509,-4.3509,-4.3509,-4.3628,-4.3628,-4.3628,-4.3628,-4.3628,-4.3628,-4.3628,-4.3628,-4.3568,-4.3509,-4.3568,-4.3568,-4.3509,-4.3568,-4.3628,-4.3628,-4.2882,-4.2882,-4.2882,-4.2882,-4.2882,-4.2882,-4.2882,-4.2882,-4.2882,-4.2882,-4.2882,-4.2882,-4.2882,-4.2882,-4.2882,-4.2882,-4.2882,-4.2882,-4.2882,-4.2882,-4.2882,-4.2882,-4.2842,-4.2842,-4.29,-4.2882,-4.2882,-4.2882,-4.2804,-4.2706,-4.2609,-4.2526,-4.2445,-4.2328,-4.2328,-4.2328,-4.2287,-4.2287,-4.2287,-4.2287,-4.2287,-4.2287,-4.2246,-4.177,-4.1516,-4.1472,-4.1472,-4.1202,-4.0849,-4.1248,-4.072,-3.9868,-3.9415,-3.9272,-3.9272,-3.9272,-3.9272,-3.9272,-3.9272,-3.9272,-3.9272,-3.9272,-3.9272,-3.9272,-3.9272,-3.9272,-3.9272,-3.9272,-3.9272,-3.9272,-3.9272,-3.9272,-3.9272,-3.9272,-3.9272,-3.9272,-3.9272,-3.9272,-3.9272,-3.9272,-3.9272,-3.9272,-3.9272,-3.9272,-3.9272,-3.9272,-3.9272,-3.9272,-3.9272,-3.9918,-4.0597,-4.1293,-4.1972,-4.2717,-4.3512,-4.3529,-4.3562,-4.3628,-4.3628,-4.3628,-4.3628,-4.3628,-4.3628,-4.3628,-4.3628,-4.3628,-4.3628,-4.3628,-4.3628,-4.3628,-4.3628,-4.3628,-4.3628,-4.3628,-4.3628,-4.3628,-4.2882,-4.2882,-4.2882,-4.2882,-4.2882,-4.2882,-4.2882,-4.2882,-4.2882,-4.2882,-4.2882,-4.2882,-4.2882,-4.2882,-4.2882,-4.2882,-4.2882,-4.2882,-4.2882,-4.2882,-4.2882,-4.2882,-4.29,-4.29,-4.2882,-4.2747,-4.2688,-4.2688,-4.2649,-4.2649,-4.2609,-4.2588,-4.2548,-4.2463,-4.2463,-4.2405,-4.2287,-4.2287,-4.2287,-4.2287,-4.2287,-4.2287,-4.2287,-4.2187,-4.1856,-4.1472,-4.1472,-4.1202,-4.0754,-4.0431,-3.9919,-3.9415,-3.9325,-3.9272,-3.9272,-3.9272,-3.9272,-3.9272,-3.9272,-3.9272,-3.9272,-3.9272,-3.9272,-3.9272,-3.9272,-3.9272,-3.9272,-3.9272,-3.9272,-3.9272,-3.9272,-3.9272,-3.9272,-3.9272,-3.9272,-3.9272,-3.9272,-3.9272,-3.9272,-3.9272,-3.9272,-3.9272,-3.9272,-3.9272,-3.9272,-3.9272,-3.9272,-3.9272,-3.9272,-3.9421,-3.9852,-4.058,-4.0763,-4.1458,-4.275,-4.2767,-4.3048,-4.3628,-4.3628,-4.3628,-4.3628,-4.3628,-4.3628,-4.3628,-4.3628,-4.3628,-4.3628,-4.3628,-4.3628,-4.3628,-4.3628,-4.3628,-4.3628,-4.3628,-4.3628,-4.3628,-4.2882,-4.2882,-4.2882,-4.2882,-4.2882,-4.2882,-4.2882,-4.2882,-4.2882,-4.2882,-4.2882,-4.2882,-4.2882,-4.2882,-4.2882,-4.2882,-4.2882,-4.2882,-4.2882,-4.2882,-4.2882,-4.2882,-4.2882,-4.2882,-4.2882,-4.2786,-4.2747,-4.2747,-4.2747,-4.267,-4.2609,-4.2609,-4.253,-4.2387,-4.2387,-4.2205,-4.1917,-4.1917,-4.1917,-4.1917,-4.1917,-4.2044,-4.2287,-4.2002,-4.1753,-4.1472,-4.1265,-4.1036,-4.0707,-4.0203,-3.9817,-3.9592,-3.9362,-3.9272,-3.9272,-3.9272,-3.9272,-3.9272,-3.9272,-3.9272,-3.9272,-3.9272,-3.9272,-3.9272,-3.9272,-3.9272,-3.9272,-3.9272,-3.9272,-3.9272,-3.9272,-3.9272,-3.9272,-3.9272,-3.9272,-3.9272,-3.9272,-3.9272,-3.9272,-3.9272,-3.9272,-3.9272,-3.9272,-3.9272,-3.9272,-3.9272,-3.9272,-3.9272,-3.9272,-3.9272,-3.962,-4.0365,-4.0382,-4.0895,-4.1972,-4.2005,-4.2187,-4.2585,-4.328,-4.3628,-4.3628,-4.3628,-4.3628,-4.3628,-4.3628,-4.3628,-4.3628,-4.3628,-4.3628,-4.3628,-4.3628,-4.3628,-4.3628,-4.3628,-4.3628,-4.3628,-4.2882,-4.2882,-4.2882,-4.2882,-4.2882,-4.2882,-4.2882,-4.2882,-4.2882,-4.2882,-4.2882,-4.2882,-4.2882,-4.2882,-4.2882,-4.2882,-4.2882,-4.2882,-4.2882,-4.2882,-4.2882,-4.2882,-4.2882,-4.2882,-4.2882,-4.2882,-4.2882,-4.2882,-4.2882,-4.2824,-4.2631,-4.2649,-4.253,-4.2369,-4.2328,-4.2002,-4.1472,-4.1472,-4.1428,-4.1383,-4.1383,-4.1622,-4.2002,-4.1622,-4.1428,-4.1338,-4.0943,-4.0707,-4.0466,-4.002,-3.9868,-3.9817,-3.9415,-3.9272,-3.9272,-3.9272,-3.9272,-3.9272,-3.9272,-3.9272,-3.9272,-3.9272,-3.9272,-3.9272,-3.9272,-3.9272,-3.9272,-3.9272,-3.9272,-3.9272,-3.9272,-3.9272,-3.9272,-3.9272,-3.9272,-3.9272,-3.9272,-3.9272,-3.9272,-3.9272,-3.9272,-3.9272,-3.9272,-3.9272,-3.9272,-3.9272,-3.9272,-3.9272,-3.9272,-3.9272,-3.9553,-4.0166,-4.0183,-4.0531,-4.1226,-4.1243,-4.1293,-4.1425,-4.2667,-4.3313,-4.3446,-4.3562,-4.3628,-4.3628,-4.3628,-4.3628,-4.3628,-4.3628,-4.3628,-4.3628,-4.3628,-4.3628,-4.3611,-4.3479,-4.3346,-4.3247,-4.2882,-4.2882,-4.2882,-4.2882,-4.2882,-4.2882,-4.2882,-4.2882,-4.2882,-4.2882,-4.2882,-4.2882,-4.2882,-4.2882,-4.2882,-4.2882,-4.2882,-4.2882,-4.2882,-4.2882,-4.2882,-4.2882,-4.2882,-4.2882,-4.2882,-4.2882,-4.2882,-4.2882,-4.2882,-4.29,-4.2862,-4.2804,-4.2706,-4.257,-4.2486,-4.2121,-4.1472,-4.1472,-4.1265,-4.0896,-4.0896,-4.0943,-4.1036,-4.1383,-4.1248,-4.0896,-4.0802,-4.0237,-3.952,-3.9415,-3.9415,-3.9362,-3.9325,-3.9272,-3.9272,-3.9272,-3.9272,-3.9272,-3.9272,-3.9272,-3.9272,-3.9272,-3.9272,-3.9272,-3.9272,-3.9272,-3.9272,-3.9272,-3.9272,-3.9272,-3.9272,-3.9272,-3.9272,-3.9272,-3.9272,-3.9272,-3.9272,-3.9272,-3.9272,-3.9272,-3.9272,-3.9272,-3.9272,-3.9272,-3.9272,-3.9272,-3.9272,-3.9272,-3.9272,-3.9272,-3.9322,-3.9475,-3.9475,-3.9785,-4.0514,-4.0514,-4.0829,-4.1409,-4.1624,-4.2054,-4.2684,-4.333,-4.3628,-4.3628,-4.3628,-4.3628,-4.3628,-4.3628,-4.3628,-4.3628,-4.3628,-4.3628,-4.3545,-4.2899,-4.227,-4.1707,-4.2882,-4.2882,-4.2882,-4.2882,-4.2882,-4.2882,-4.2882,-4.2882,-4.2882,-4.2882,-4.2882,-4.2882,-4.2882,-4.2882,-4.2882,-4.2882,-4.2882,-4.2882,-4.2882,-4.2882,-4.29,-4.2842,-4.2862,-4.2862,-4.2747,-4.2804,-4.2804,-4.2747,-4.2844,-4.2844,-4.2747,-4.2688,-4.2609,-4.245,-4.2387,-4.2061,-4.1472,-4.1472,-4.1383,-4.1157,-4.0896,-4.0943,-4.122,-4.1111,-4.099,-4.0754,-4.0449,-3.9885,-3.9272,-3.9272,-3.9272,-3.9272,-3.9272,-3.9272,-3.9272,-3.9272,-3.9272,-3.9272,-3.9272,-3.9272,-3.9272,-3.9272,-3.9272,-3.9272,-3.9272,-3.9272,-3.9272,-3.9272,-3.9272,-3.9272,-3.9272,-3.9272,-3.9272,-3.9272,-3.9272,-3.9272,-3.9272,-3.9272,-3.9272,-3.9272,-3.9272,-3.9272,-3.9272,-3.9272,-3.9272,-3.9272,-3.9272,-3.9272,-3.9272,-3.9272,-3.9272,-3.9272,-3.9272,-3.9437,-3.9752,-3.9769,-3.9918,-4.0216,-4.063,-4.121,-4.1922,-4.2237,-4.2386,-4.2386,-4.2386,-4.2386,-4.2386,-4.2386,-4.2386,-4.2386,-4.2386,-4.2386,-4.2353,-4.2021,-4.169,-4.1409]}]]